[[{"header":{"parameterUnit":"m.s-1","parameterCategory":1,"la1":30.6,"la2":28.766,"lo1":-90.7593,"lo2":-88.6598,"dy":0.0162,"dx":0.0183,"nx":116,"ny":114,"refTime":"2023-08-14T12:00:00:Z","depth":0,"parameterNumber":2,"parameterNumberName":"U-component_of_WINDS"},"data":[0.0,0.0,0.0,0.0,0.0,0.0,0.0,0.0,0.0,0.0,0.0,0.0,0.0,0.0,0.0,0.0,0.0,0.0,0.0,0.0,0.0,0.0,0.0,0.0,0.0,0.0,0.0,0.0,0.0,0.0,0.0,0.0,0.0,0.0,0.0,0.0,0.0,0.0,0.0,0.0,0.0,0.0,0.0,0.0,0.0,0.0,0.0,0.0,0.0,0.0,0.0,0.0,0.0,0.0,0.0,0.0,0.0,0.0,0.0,0.0,0.0,0.0,0.0,0.0,0.0,0.0,0.0,0.0,0.0,0.0,0.0,0.0,0.0,0.0,0.0,0.0,0.0,0.0,0.0,0.0,0.0,0.0,0.0,0.0,0.0,0.0,0.0,0.0,0.0,0.0,0.0,0.0,0.0,0.0,0.0,0.0,0.0,0.0,0.0,0.0,0.0,0.0,0.0,0.0,0.0,0.0,0.0,0.0,0.0,0.0,0.0,0.0,0.0,0.0,0.0,0.0,0.0,0.0,0.0,0.0,0.0,0.0,0.0,0.0,0.0,0.0,0.0,0.0,0.0,0.0,0.0,0.0,0.0,0.0,0.0,0.0,0.0,0.0,0.0,0.0,0.0,0.0,0.0,0.0,0.0,0.0,0.0,0.0,0.0,0.0,0.0,0.0,0.0,0.0,0.0,0.0,0.0,0.0,0.0,0.0,0.0,0.0,0.0,0.0,0.0,0.0,0.0,0.0,0.0,0.0,0.0,0.0,0.0,0.0,0.0,0.0,0.0,0.0,0.0,0.0,0.0,0.0,0.0,0.0,0.0,0.0,0.0,0.0,0.0,0.0,0.0,0.0,0.0,0.0,0.0,0.0,0.0,0.0,0.0,0.0,0.0,0.0,0.0,0.0,0.0,0.0,0.0,0.0,0.0,0.0,0.0,0.0,0.0,0.0,0.0,0.0,0.0,0.0,0.0,0.0,0.0,0.0,0.0,0.0,0.0,0.0,0.0,0.0,0.0,0.0,0.0,0.0,0.0,0.0,0.0,0.0,0.0,0.0,0.0,0.0,0.0,0.0,0.0,0.0,0.0,0.0,0.0,0.0,0.0,0.0,0.0,0.0,0.0,0.0,0.0,0.0,0.0,0.0,0.0,0.0,0.0,0.0,0.0,0.0,0.0,0.0,0.0,0.0,0.0,0.0,0.0,0.0,0.0,0.0,0.0,0.0,0.0,0.0,0.0,0.0,0.0,0.0,0.0,0.0,0.0,0.0,0.0,0.0,0.0,0.0,0.0,0.0,0.0,0.0,0.0,0.0,0.0,0.0,0.0,0.0,0.0,0.0,0.0,0.0,0.0,0.0,0.0,0.0,0.0,0.0,0.0,0.0,0.0,0.0,0.0,0.0,0.0,0.0,0.0,0.0,0.0,0.0,0.0,0.0,0.0,0.0,0.0,0.0,0.0,0.0,0.0,0.0,0.0,0.0,0.0,0.0,0.0,0.0,0.0,0.0,0.0,0.0,0.0,0.0,0.0,0.0,0.0,0.0,0.0,0.0,0.0,0.0,0.0,0.0,0.0,0.0,0.0,0.0,0.0,0.0,0.0,0.0,0.0,0.0,0.0,0.0,0.0,0.0,0.0,0.0,0.0,0.0,0.0,0.0,0.0,0.0,0.0,0.0,0.0,0.0,0.0,0.0,0.0,0.0,0.0,0.0,0.0,0.0,0.0,0.0,0.0,0.0,0.0,0.0,0.0,0.0,0.0,0.0,0.0,0.0,0.0,0.0,0.0,0.0,0.0,0.0,0.0,0.0,0.0,0.0,0.0,0.0,0.0,0.0,0.0,0.0,0.0,0.0,0.0,0.0,0.0,0.0,0.0,0.0,0.0,0.0,0.0,0.0,0.0,0.0,0.0,0.0,0.0,0.0,0.0,0.0,0.0,0.0,0.0,0.0,0.0,0.0,0.0,0.0,0.0,0.0,0.0,0.0,0.0,0.0,0.0,0.0,0.0,0.0,0.0,0.0,0.0,0.0,0.0,0.0,0.0,0.0,0.0,0.0,0.0,0.0,0.0,0.0,0.0,0.0,0.0,0.0,0.0,0.0,0.0,0.0,0.0,0.0,0.0,0.0,0.0,0.0,0.0,0.0,0.0,0.0,0.0,0.0,0.0,0.0,0.0,0.0,0.0,0.0,0.0,0.0,0.0,0.0,0.0,0.0,0.0,0.0,0.0,0.0,0.0,0.0,0.0,0.0,0.0,0.0,0.0,0.0,0.0,0.0,0.0,0.0,0.0,0.0,0.0,0.0,0.0,0.0,0.0,0.0,0.0,0.0,0.0,0.0,0.0,0.0,0.0,0.0,0.0,0.0,0.0,0.0,0.0,0.0,0.0,0.0,0.0,0.0,0.0,0.0,0.0,0.0,0.0,0.0,0.0,0.0,0.0,0.0,0.0,0.0,0.0,0.0,0.0,0.0,0.0,0.0,0.0,0.0,0.0,0.0,0.0,0.0,0.0,0.0,0.0,0.0,0.0,0.0,0.0,0.0,0.0,0.0,0.0,0.0,0.0,0.0,0.0,0.0,0.0,0.0,0.0,0.0,0.0,0.0,0.0,0.0,0.0,0.0,0.0,0.0,0.0,0.0,0.0,0.0,0.0,0.0,0.0,0.0,0.0,0.0,0.0,0.0,0.0,0.0,0.0,0.0,0.0,0.0,0.0,0.0,0.0,0.0,0.0,0.0,0.0,0.0,0.0,0.0,0.0,0.0,0.0,0.0,0.0,0.0,0.0,0.0,0.0,0.0,0.0,0.0,0.0,0.0,0.0,0.0,0.0,0.0,0.0,0.0,0.0,0.0,0.0,0.0,0.0,0.0,0.0,0.0,0.0,0.0,0.0,0.0,0.0,0.0,0.0,0.0,0.0,0.0,0.0,0.0,0.0,0.0,0.0,0.0,0.0,0.0,0.0,0.0,0.0,0.0,0.0,0.0,0.0,0.0,0.0,0.0,0.0,0.0,0.0,0.0,0.0,0.0,0.0,0.0,0.0,0.0,0.0,0.0,0.0,0.0,0.0,0.0,0.0,0.0,0.0,0.0,0.0,0.0,0.0,0.0,0.0,0.0,0.0,0.0,0.0,0.0,0.0,0.0,0.0,0.0,0.0,0.0,0.0,0.0,0.0,0.0,0.0,0.0,0.0,0.0,0.0,0.0,0.0,0.0,0.0,0.0,0.0,0.0,0.0,0.0,0.0,0.0,0.0,0.0,0.0,0.0,0.0,0.0,0.0,0.0,0.0,0.0,0.0,0.0,0.0,0.0,0.0,0.0,0.0,0.0,0.0,0.0,0.0,0.0,0.0,0.0,0.0,0.0,0.0,0.0,0.0,0.0,0.0,0.0,0.0,0.0,0.0,0.0,0.0,0.0,0.0,0.0,0.0,0.0,0.0,0.0,0.0,0.0,0.0,0.0,0.0,0.0,0.0,0.0,0.0,0.0,0.0,0.0,0.0,0.0,0.0,0.0,0.0,0.0,0.0,0.0,0.0,0.0,0.0,0.0,0.0,0.0,0.0,0.0,0.0,0.0,0.0,0.0,0.0,0.0,0.0,0.0,0.0,0.0,0.0,0.0,0.0,0.0,0.0,0.0,0.0,0.0,0.0,0.0,0.0,0.0,0.0,0.0,0.0,0.0,0.0,0.0,0.0,0.0,0.0,0.0,0.0,0.0,0.0,0.0,0.0,0.0,0.0,0.0,0.0,0.0,0.0,0.0,0.0,0.0,0.0,0.0,0.0,0.0,0.0,0.0,0.0,0.0,0.0,0.0,0.0,0.0,0.0,0.0,0.0,0.0,0.0,0.0,0.0,0.0,0.0,0.0,0.0,0.0,0.0,0.0,0.0,0.0,0.0,0.0,0.0,0.0,0.0,0.0,0.0,0.0,0.0,0.0,0.0,0.0,0.0,0.0,0.0,0.0,0.0,0.0,0.0,0.0,0.0,0.0,0.0,0.0,0.0,0.0,0.0,0.0,0.0,0.0,0.0,0.0,0.0,0.0,0.0,0.0,0.0,0.0,0.0,0.0,0.0,0.0,0.0,0.0,0.0,0.0,0.0,0.0,0.0,0.0,0.0,0.0,0.0,0.0,0.0,0.0,0.0,0.0,0.0,0.0,0.0,0.0,0.0,0.0,0.0,0.0,0.0,0.0,0.0,0.0,0.0,0.0,0.0,0.0,0.0,0.0,0.0,0.0,0.0,0.0,0.0,0.0,0.0,0.0,0.0,0.0,0.0,0.0,0.0,0.0,0.0,0.0,0.0,0.0,0.0,0.0,0.0,0.0,0.0,0.0,0.0,0.0,0.0,0.0,0.0,0.0,0.0,0.0,0.0,0.0,0.0,0.0,0.0,0.0,0.0,0.0,0.0,0.0,0.0,0.0,0.0,0.0,0.0,0.0,0.0,0.0,0.0,0.0,0.0,0.0,0.0,0.0,0.0,0.0,0.0,0.0,0.0,0.0,0.0,0.0,0.0,0.0,0.0,0.0,0.0,0.0,0.0,0.0,0.0,0.0,0.0,0.0,0.0,0.0,0.0,0.0,0.0,0.0,0.0,0.0,0.0,0.0,0.0,0.0,0.0,0.0,0.0,0.0,0.0,0.0,0.0,0.0,0.0,0.0,0.0,0.0,0.0,0.0,0.0,0.0,0.0,0.0,0.0,0.0,0.0,0.0,0.0,0.0,0.0,0.0,0.0,0.0,0.0,0.0,0.0,0.0,0.0,0.0,0.0,0.0,0.0,0.0,0.0,0.0,0.0,0.0,0.0,0.0,0.0,0.0,0.0,0.0,0.0,0.0,0.0,0.0,0.0,0.0,0.0,0.0,0.0,0.0,0.0,0.0,0.0,0.0,0.0,0.0,0.0,0.0,0.0,0.0,0.0,0.0,0.0,0.0,0.0,0.0,0.0,0.0,0.0,0.0,0.0,0.0,0.0,0.0,0.0,0.0,0.0,0.0,0.0,0.0,0.0,0.0,0.0,0.0,0.0,0.0,0.0,0.0,0.0,0.0,0.0,0.0,0.0,0.0,0.0,0.0,0.0,0.0,0.0,0.0,0.0,0.0,0.0,0.0,0.0,0.0,0.0,0.0,0.0,0.0,0.0,0.0,0.0,0.0,0.0,0.0,0.0,0.0,0.0,0.0,0.0,0.0,0.0,0.0,0.0,0.0,0.0,0.0,0.0,0.0,0.0,0.0,0.0,0.0,0.0,0.0,0.0,0.0,0.0,0.0,0.0,0.0,0.0,0.0,0.0,0.0,0.0,0.0,0.0,0.0,0.0,0.0,0.0,0.0,0.0,0.0,0.0,0.0,0.0,0.0,0.0,0.0,0.0,0.0,0.0,0.0,0.0,0.0,0.0,0.0,0.0,0.0,0.0,0.0,0.0,0.0,0.0,0.0,0.0,0.0,0.0,0.0,0.0,0.0,0.0,0.0,0.0,0.0,0.0,0.0,0.0,0.0,0.0,0.0,0.0,0.0,0.0,0.0,0.0,0.0,0.0,0.0,0.0,0.0,0.0,0.0,0.0,0.0,0.0,0.0,0.0,0.0,0.0,0.0,0.0,0.0,0.0,0.0,0.0,0.0,0.0,0.0,0.0,0.0,0.0,0.0,0.0,0.0,0.0,0.0,0.0,0.0,0.0,0.0,0.0,0.0,0.0,0.0,0.0,0.0,0.0,0.0,0.0,0.0,0.0,0.0,0.0,0.0,0.0,0.0,0.0,0.0,0.0,0.0,0.0,0.0,0.0,0.0,0.0,0.0,0.0,0.0,0.0,0.0,0.0,0.0,0.0,0.0,0.0,0.0,0.0,0.0,0.0,0.0,0.0,0.0,0.0,0.0,0.0,0.0,0.0,0.0,0.0,0.0,0.0,0.0,0.0,0.0,0.0,0.0,0.0,0.0,0.0,0.0,0.0,0.0,0.0,0.0,0.0,0.0,0.0,0.0,0.0,0.0,0.0,0.0,0.0,0.0,0.0,0.0,0.0,0.0,0.0,0.0,0.0,0.0,0.0,0.0,0.0,0.0,0.0,0.0,0.0,0.0,0.0,0.0,0.0,0.0,2.2199,2.2149,0.0,0.0,0.0,0.0,0.0,0.0,0.0,0.0,0.0,0.0,0.0,0.0,0.0,0.0,0.0,0.0,0.0,0.0,0.0,0.0,0.0,0.0,0.0,0.0,0.0,0.0,0.0,0.0,0.0,0.0,0.0,0.0,0.0,0.0,0.0,0.0,0.0,0.0,0.0,0.0,0.0,0.0,0.0,0.0,0.0,0.0,0.0,0.0,0.0,0.0,0.0,0.0,0.0,0.0,0.0,0.0,0.0,0.0,0.0,0.0,0.0,0.0,0.0,0.0,0.0,0.0,0.0,0.0,0.0,0.0,0.0,0.0,0.0,0.0,0.0,0.0,0.0,0.0,0.0,0.0,0.0,0.0,0.0,0.0,0.0,0.0,0.0,0.0,0.0,0.0,0.0,0.0,0.0,0.0,0.0,0.0,0.0,0.0,0.0,0.0,0.0,0.0,0.0,0.0,0.0,0.0,0.0,0.0,0.0,0.0,0.0,0.0,0.0,0.0,2.2642,2.2151,0.0,0.0,0.0,0.0,0.0,0.0,0.0,0.0,0.0,0.0,0.0,0.0,0.0,0.0,0.0,0.0,0.0,0.0,0.0,0.0,0.0,0.0,0.0,0.0,0.0,0.0,0.0,0.0,0.0,0.0,0.0,0.0,0.0,0.0,0.0,0.0,0.0,0.0,0.0,0.0,0.0,0.0,0.0,0.0,0.0,0.0,0.0,0.0,0.0,0.0,0.0,0.0,0.0,0.0,0.0,0.0,0.0,0.0,0.0,0.0,0.0,0.0,0.0,0.0,0.0,0.0,0.0,0.0,0.0,0.0,0.0,0.0,0.0,0.0,0.0,0.0,0.0,0.0,0.0,0.0,0.0,0.0,0.0,0.0,0.0,0.0,0.0,0.0,0.0,0.0,0.0,0.0,0.0,0.0,0.0,0.0,0.0,0.0,0.0,0.0,0.0,0.0,0.0,0.0,0.0,0.0,0.0,0.0,2.3541,2.4079,2.5103,2.4456,2.458,2.5115,2.3099,2.236,2.2528,2.2977,0.0,0.0,0.0,0.0,0.0,0.0,0.0,0.0,0.0,0.0,0.0,0.0,0.0,0.0,0.0,0.0,0.0,0.0,0.0,0.0,0.0,0.0,0.0,0.0,0.0,0.0,0.0,0.0,0.0,0.0,0.0,0.0,0.0,0.0,0.0,0.0,0.0,0.0,1.8654,1.8187,1.809,1.8312,0.0,0.0,0.0,0.0,0.0,0.0,0.0,0.0,0.0,0.0,0.0,0.0,0.0,0.0,0.0,0.0,0.0,0.0,0.0,0.0,0.0,0.0,0.0,0.0,0.0,0.0,0.0,0.0,0.0,0.0,0.0,0.0,0.0,0.0,0.0,0.0,0.0,0.0,0.0,0.0,0.0,0.0,0.0,0.0,2.1797,2.2153,0.0,0.0,0.0,0.0,0.0,0.0,0.0,0.0,0.0,0.0,0.0,0.0,0.0,2.3816,2.3666,2.4359,2.4667,2.468,2.5269,2.5708,2.6096,2.5245,2.4793,2.4564,2.3917,0.0,2.3754,2.3816,0.0,0.0,0.0,0.0,0.0,0.0,0.0,0.0,0.0,0.0,0.0,0.0,0.0,0.0,0.0,0.0,0.0,0.0,0.0,0.0,0.0,0.0,0.0,0.0,0.0,0.0,0.0,0.0,0.0,0.0,0.0,0.0,0.0,0.0,0.0,0.0,2.0222,1.959,1.9098,1.8312,1.8071,1.8163,1.7529,1.7619,1.814,1.7593,0.0,0.0,0.0,0.0,0.0,0.0,0.0,0.0,0.0,0.0,0.0,0.0,0.0,0.0,0.0,0.0,0.0,0.0,0.0,0.0,0.0,0.0,0.0,0.0,0.0,0.0,0.0,0.0,0.0,0.0,0.0,0.0,0.0,0.0,0.0,0.0,0.0,0.0,0.0,2.3342,2.3989,2.3873,2.3248,2.2674,0.0,0.0,0.0,0.0,0.0,0.0,0.0,0.0,0.0,2.4505,2.5498,2.5598,2.4654,2.5864,2.6158,2.5526,2.5679,2.5843,2.5988,2.4945,2.4487,2.4511,2.4067,2.3903,2.4082,2.416,2.3553,2.2469,0.0,0.0,0.0,0.0,2.1801,2.1692,0.0,0.0,0.0,0.0,0.0,0.0,0.0,0.0,0.0,0.0,0.0,0.0,0.0,0.0,0.0,2.8438,0.0,0.0,0.0,0.0,0.0,0.0,0.0,0.0,0.0,0.0,0.0,0.0,2.0311,1.9717,1.8965,1.7969,1.7569,1.7516,1.6523,1.6468,1.7106,1.6218,1.5454,0.0,0.0,0.0,0.0,0.0,0.0,0.0,0.0,0.0,0.0,0.0,0.0,0.0,0.0,0.0,0.0,0.0,0.0,0.0,0.0,0.0,0.0,0.0,0.0,0.0,0.0,0.0,0.0,0.0,0.0,0.0,0.0,0.0,0.0,0.0,0.0,0.0,0.0,2.482,2.5207,2.4998,2.3764,2.2778,0.0,0.0,0.0,0.0,0.0,0.0,2.1801,2.3312,2.4462,2.5077,2.6447,2.6751,2.5881,2.6975,2.7131,2.6246,2.5683,2.5492,2.5672,2.4518,2.415,2.4405,2.3864,2.3697,2.3839,2.4053,2.3606,2.2775,2.2782,2.2687,2.2592,2.2756,2.2648,2.2591,0.0,0.0,0.0,0.0,0.0,0.0,0.0,0.0,0.0,0.0,0.0,0.0,0.0,0.0,2.924,2.8887,2.8236,2.7713,0.0,0.0,0.0,0.0,0.0,0.0,0.0,0.0,0.0,2.0734,1.9072,1.7885,1.7239,1.6236,1.5733,1.5624,1.5779,1.6471,1.7604,1.6113,1.5348,1.4893,0.0,0.0,0.0,0.0,0.0,0.0,0.0,0.0,0.0,0.0,0.0,0.0,0.0,0.0,0.0,0.0,0.0,0.0,0.0,0.0,0.0,0.0,0.0,0.0,0.0,0.0,0.0,0.0,0.0,0.0,0.0,0.0,0.0,0.0,0.0,0.0,0.0,0.0,0.0,2.4759,2.2362,0.0,0.0,0.0,0.0,1.9815,2.0823,2.1635,2.2055,2.2184,2.3265,2.5508,2.5666,2.6464,2.801,2.7454,2.7107,2.7011,2.5342,2.4876,2.5392,2.4371,2.3928,2.3905,2.3346,2.3149,2.3164,2.3276,2.3257,2.3027,2.2194,2.253,2.3399,2.2567,2.2616,2.31,0.0,0.0,0.0,0.0,0.0,0.0,0.0,0.0,0.0,0.0,0.0,0.0,0.0,2.9832,2.9456,2.8938,2.8294,2.7575,2.673,0.0,0.0,0.0,0.0,0.0,0.0,0.0,2.1339,2.089,1.9599,1.8373,1.7269,1.6317,1.5292,1.4154,1.4074,1.4167,1.454,1.4208,1.3766,1.3271,1.2005,1.1741,0.0,0.0,0.0,0.0,0.0,0.0,0.0,0.0,0.0,0.0,0.0,0.0,0.0,0.0,0.0,0.0,0.0,0.0,0.0,0.0,0.0,0.0,0.0,0.0,0.0,0.0,0.0,0.0,0.0,0.0,0.0,0.0,0.0,0.0,0.0,0.0,0.0,2.31,2.143,0.0,1.9735,1.968,1.9218,1.8135,1.9937,2.0824,2.0154,2.1417,2.2396,2.2882,2.3728,2.3986,2.3571,2.4029,2.4541,2.5111,2.4347,2.44,2.5167,2.4403,2.3759,2.3173,2.2985,2.2985,2.2981,2.2326,2.2166,2.2325,2.2566,2.2471,2.2274,2.2802,2.2661,2.2375,0.0,0.0,0.0,0.0,0.0,0.0,0.0,0.0,0.0,0.0,0.0,3.0423,3.0227,2.9978,2.9647,2.9148,2.8197,2.7317,2.6599,0.0,0.0,0.0,0.0,0.0,0.0,2.2152,2.1468,2.1028,1.9629,1.8259,1.6822,1.579,1.4531,1.3176,1.3043,1.2821,1.2533,1.2513,1.2304,1.1954,1.0843,1.066,1.1069,0.0,0.0,0.0,0.0,0.0,0.0,0.0,0.0,0.0,0.0,0.0,0.0,0.0,0.0,0.0,0.0,0.0,0.0,0.0,0.0,0.0,0.0,0.0,0.0,0.0,0.0,0.0,0.0,0.0,0.0,0.0,0.0,0.0,0.0,2.0861,2.0785,2.0785,1.9198,1.8052,1.793,1.7941,1.7479,1.6261,1.7992,1.874,1.7964,1.9155,2.0079,2.0545,2.1414,2.1772,2.1506,2.2173,2.2792,2.3352,2.2997,2.3418,2.4481,2.3935,2.3633,2.349,2.336,2.3215,2.3087,2.2236,2.1893,2.1983,2.2278,2.2176,2.1959,2.2528,2.2382,2.2085,0.0,0.0,0.0,0.0,0.0,0.0,0.0,0.0,0.0,0.0,0.0,3.0484,3.042,3.0117,2.9817,2.955,2.7917,2.6971,2.7072,2.5213,0.0,0.0,0.0,0.0,2.3699,2.2625,2.1732,2.1004,1.9106,1.7335,1.5687,1.46,1.3575,1.2811,1.2856,1.2504,1.1872,1.1368,1.1128,1.1075,1.0201,0.9911,0.9911,0.0,0.0,0.0,0.0,0.0,0.0,0.0,0.0,0.0,0.0,0.0,0.0,0.0,0.0,0.0,0.0,0.0,0.0,0.0,0.0,0.0,0.0,0.0,0.0,0.0,0.0,0.0,0.0,0.0,0.0,0.0,0.0,0.0,2.0581,1.9302,1.7849,1.7868,1.5635,1.3958,1.3541,1.3999,1.4377,1.4254,1.4862,1.5328,1.5664,1.5373,1.6273,1.8646,1.8749,1.9857,2.2195,2.1991,2.1915,2.1949,2.1311,2.1814,2.3299,2.2896,2.3513,2.4902,2.4455,2.3971,2.349,2.3054,2.2577,2.2091,2.1313,2.1746,2.2671,2.1763,2.1805,2.2285,0.0,0.0,0.0,0.0,0.0,0.0,0.0,0.0,0.0,0.0,3.0658,3.0643,3.0613,3.0497,3.0255,0.0,0.0,0.0,0.0,0.0,0.0,0.0,0.0,0.0,2.3832,2.2538,2.1435,2.0564,1.8973,1.7484,1.6052,1.5277,1.4023,1.2439,1.2513,1.2249,1.1699,1.0968,1.0969,1.1369,1.0096,0.9884,1.0346,0.0,0.0,0.0,0.0,0.0,0.0,0.0,0.0,0.0,0.0,0.0,0.0,0.0,0.0,0.0,0.0,0.0,0.0,0.0,0.0,0.0,0.0,0.0,0.0,0.0,0.0,0.0,0.0,0.0,0.0,0.0,1.1949,1.2247,1.5566,1.5445,1.4806,1.4514,1.2811,1.162,1.1396,1.1438,1.1512,1.1519,1.238,1.3053,1.3463,1.3615,1.4013,1.4676,1.5173,1.5595,1.5997,1.6724,1.7636,1.8703,1.8848,2.0455,2.331,2.3183,2.3943,2.5313,2.5221,2.4894,2.4471,2.4013,2.3548,2.304,2.2141,2.2014,2.2297,2.22,2.249,2.2786,0.0,0.0,0.0,0.0,0.0,0.0,0.0,0.0,0.0,0.0,3.0667,3.052,3.0142,3.0057,0.0,0.0,0.0,0.0,0.0,0.0,0.0,0.0,0.0,2.091,2.2332,2.1105,2.0553,2.0709,1.9155,1.7834,1.6718,1.582,1.4658,1.3253,1.3223,1.2761,1.2018,1.1709,1.1639,1.1633,1.1009,1.0673,1.058,1.0846,1.1741,1.2892,1.2906,1.3598,1.464,1.4892,0.0,0.0,0.0,0.0,0.0,0.0,0.0,0.0,0.0,0.0,0.0,0.0,0.0,0.0,0.0,0.0,0.0,0.0,0.0,0.0,0.0,0.0,0.0,0.0,1.0496,1.0621,1.2058,1.2257,1.2183,1.1935,1.0905,1.0227,1.0065,0.9902,0.9823,0.9861,1.0626,1.1183,1.1477,1.1862,1.2142,1.2396,1.3073,1.347,1.3511,1.4638,1.5633,1.6499,1.694,1.8563,2.112,2.097,2.1649,2.2941,2.362,2.3577,2.3085,2.3619,2.3498,0.0,0.0,0.0,0.0,0.0,2.24,2.241,0.0,0.0,0.0,0.0,0.0,0.0,0.0,0.0,0.0,0.0,0.0,3.0251,2.9362,0.0,0.0,0.0,0.0,0.0,0.0,0.0,0.0,1.7441,1.826,1.9107,1.9962,1.9138,1.9381,2.0767,1.9271,1.8235,1.7612,1.6346,1.5404,1.4733,1.4627,1.3871,1.2791,1.3249,1.2937,1.2147,1.2506,1.2,1.1041,1.1396,1.2298,1.3553,1.3993,1.4776,1.5646,1.574,0.0,0.0,0.0,0.0,0.0,0.0,0.0,0.0,0.0,0.0,0.0,0.0,0.0,0.0,0.0,0.0,0.0,0.0,0.0,0.0,0.0,0.0,0.0,0.0,0.9814,0.9911,0.9623,0.9769,0.9966,1.0001,0.9518,0.9248,0.922,0.9017,0.8907,0.9047,0.9515,0.9879,0.9994,1.0374,0.0,0.0,0.0,1.2696,1.3381,1.446,1.5031,1.5041,1.5448,1.644,1.7886,1.7557,1.8067,1.9332,2.0938,2.1233,2.0729,2.2676,2.3008,2.2355,2.2668,2.2536,2.2168,2.2168,2.1936,2.1643,0.0,0.0,0.0,0.0,0.0,0.0,0.0,0.0,0.0,3.0511,3.0521,3.0173,0.0,0.0,0.0,0.0,0.0,0.0,0.0,0.0,1.529,1.7393,1.7912,1.8283,1.8583,1.9066,1.9109,1.869,1.7878,1.7834,1.844,1.7746,1.6793,1.564,1.5555,1.5141,1.4408,1.4312,1.4208,1.4044,1.4176,1.369,1.2938,1.3275,1.4136,1.518,1.5274,1.6365,1.7765,1.7722,1.8553,1.9796,2.0515,0.0,0.0,0.0,0.0,0.0,0.0,0.0,0.0,0.0,0.0,0.0,0.0,0.0,0.0,0.0,0.0,0.0,0.0,0.0,0.0,0.8047,0.8236,0.8223,0.764,0.7888,0.8335,0.8669,0.8088,0.7567,0.7409,0.7882,0.8197,0.8239,0.9285,0.9919,0.9848,1.0448,1.0744,1.0744,1.1358,1.2035,1.2696,1.3433,1.3951,1.4164,1.4222,0.0,1.6551,1.6288,1.7123,1.8915,2.0566,2.1199,2.1223,2.3093,2.3617,2.3124,2.2829,2.2664,2.2579,2.2579,2.2248,2.1729,0.0,0.0,0.0,0.0,0.0,0.0,0.0,0.0,0.0,0.0,2.9149,0.0,0.0,0.0,0.0,0.0,0.0,0.0,0.0,1.5005,1.4488,1.4996,1.5282,1.5639,1.6038,1.7337,1.8082,1.8249,1.8868,1.9301,1.957,1.8919,1.8166,1.7451,1.7029,1.6484,1.5849,1.5723,1.5686,1.5742,1.6174,1.6105,1.5713,1.526,1.5649,1.6472,1.6758,1.7831,1.9101,1.9432,2.0325,2.1449,2.2513,2.3163,2.3482,0.0,0.0,0.0,0.0,0.0,0.0,0.0,0.0,0.0,0.0,0.0,0.0,0.0,0.0,1.0138,0.9063,0.0,0.8013,0.6836,0.6821,0.683,0.6502,0.6875,0.7291,0.7637,0.7476,0.7176,0.6819,0.7396,0.7852,0.8112,0.9069,0.9709,0.9894,1.0478,1.0744,1.0681,1.1091,1.1601,1.219,1.2731,1.3195,1.3589,1.3589,1.4012,1.474,1.4436,1.4675,1.5375,1.6998,1.8068,1.8851,2.1534,2.272,2.2808,2.2378,2.2417,2.2724,2.2724,2.2079,2.1245,0.0,0.0,0.0,0.0,0.0,0.0,0.0,0.0,0.0,0.0,0.0,0.0,0.0,0.0,0.0,0.0,0.0,0.0,0.0,1.5522,1.4751,1.3145,1.3308,1.3477,1.361,1.5596,1.7099,1.8068,1.9896,2.0772,0.0,0.0,1.9504,1.9156,1.8579,1.7917,1.7194,1.73,1.7357,1.7352,1.8197,1.8561,1.853,1.7621,1.7456,1.7864,1.832,1.9178,2.0285,2.0887,2.1774,2.2722,2.3644,2.4443,2.4935,2.4729,2.5211,0.0,0.0,0.0,0.0,0.0,0.0,0.0,0.0,1.3304,1.0707,1.1041,1.0406,0.9288,0.7878,0.7816,0.7484,0.5899,0.5822,0.5837,0.5705,0.625,0.6666,0.6718,0.7184,0.7326,0.6872,0.726,0.7717,0.8231,0.8947,0.95,0.9945,1.0517,1.0753,1.0691,1.0813,1.1152,1.1674,1.2076,1.2567,1.3005,1.3113,1.3131,1.3057,1.2645,1.2211,1.1797,1.3259,1.4966,1.6939,1.9651,2.1345,2.2167,2.1855,2.2038,2.2512,2.2512,2.1768,2.073,0.0,0.0,0.0,0.0,0.0,0.0,0.0,0.0,0.0,0.0,0.0,0.0,0.0,0.0,0.0,0.0,0.0,0.0,0.0,1.6794,1.5772,1.53,1.5345,1.4523,1.2693,1.5593,1.7055,1.6886,0.0,0.0,0.0,0.0,0.0,0.0,1.9889,1.939,1.8545,1.9177,1.9308,1.9101,2.0021,2.046,2.0591,2.0959,2.0407,1.9517,1.9669,2.0561,2.1758,2.1863,2.2538,2.3501,2.4135,2.4801,2.5405,2.5798,2.638,2.6835,2.6378,2.5039,2.3377,2.1792,1.8627,1.6243,0.0,1.4504,1.1358,1.0876,1.0367,0.9635,0.838,0.7799,0.6949,0.5454,0.5554,0.5691,0.5084,0.5807,0.6191,0.567,0.6735,0.7461,0.7391,0.7456,0.7782,0.8425,0.9069,0.9611,0.9807,1.0457,1.0632,1.0182,1.0089,1.0357,1.099,1.1398,1.1771,1.2043,1.2527,1.2604,1.2204,1.1603,1.123,1.1235,1.2316,1.5162,1.9016,1.8883,2.0017,2.1853,2.1823,2.1826,2.1897,2.1818,2.1392,2.0732,0.0,0.0,0.0,0.0,0.0,0.0,0.0,0.0,0.0,0.0,0.0,0.0,0.0,0.0,0.0,0.0,0.0,0.0,1.9859,1.8878,1.8112,1.7648,1.7427,1.6738,1.5513,1.7915,1.9016,1.8687,0.0,0.0,0.0,0.0,0.0,0.0,0.0,2.099,2.109,2.1233,2.1482,2.1809,2.2413,2.2571,2.2465,2.304,2.2658,2.1744,2.1491,2.2073,0.0,0.0,2.4332,2.5127,2.6166,2.6889,2.7299,2.7271,2.7718,2.7709,2.5422,2.192,1.8674,1.7715,1.5902,1.4246,1.3881,1.2241,1.0757,1.033,0.9514,0.846,0.7265,0.6836,0.6141,0.4671,0.4674,0.482,0.483,0.5432,0.5875,0.5968,0.6795,0.7171,0.6733,0.6915,0.7531,0.856,0.8865,0.9421,1.0207,1.0434,1.0436,1.0243,0.996,1.0093,1.065,1.0547,1.091,1.1653,1.1815,1.198,1.2067,1.1568,1.1158,1.093,1.2291,1.4028,1.5932,1.6755,1.7659,1.8474,1.8474,1.8474,1.8745,2.0952,2.1323,2.0703,0.0,0.0,0.0,0.0,0.0,0.0,0.0,0.0,0.0,0.0,0.0,0.0,0.0,0.0,0.0,0.0,0.0,0.0,0.0,2.0545,1.997,1.9612,1.9051,0.0,1.7869,1.9828,2.0688,2.0386,0.0,0.0,0.0,0.0,0.0,0.0,0.0,0.0,2.3036,2.3207,2.3585,2.4092,2.4521,2.4477,2.4283,2.468,2.4446,2.3758,2.2998,2.3171,0.0,0.0,2.515,2.5718,2.679,2.738,2.7687,2.7592,2.7339,2.6427,2.3222,1.8851,1.4931,1.3809,1.3178,1.2538,1.1071,1.0567,1.0319,0.9683,0.8774,0.7721,0.6528,0.6496,0.6142,0.4833,0.4733,0.4983,0.5262,0.5717,0.6117,0.6697,0.7216,0.7283,0.6754,0.6987,0.7586,0.8705,0.8869,0.9382,1.0399,1.0335,1.0179,1.0093,0.9769,0.9764,1.0149,0.9941,1.0328,1.1209,1.1318,1.1628,1.2107,1.1673,1.13,1.0966,1.1882,1.273,1.3613,1.4718,1.5488,1.5948,1.5948,1.5913,1.6155,1.8927,1.968,1.9237,0.0,0.0,0.0,0.0,0.0,0.0,0.0,0.0,0.0,0.0,0.0,0.0,0.0,0.0,0.0,0.0,0.0,0.0,0.0,2.1374,2.0799,2.0836,1.9898,1.9094,1.8498,2.0445,2.1339,2.1074,0.0,0.0,0.0,0.0,0.0,0.0,0.0,0.0,2.3663,2.4957,2.5514,2.5563,2.5893,2.6038,2.6041,2.6041,2.5822,2.5361,2.4087,0.0,0.0,0.0,2.4066,2.4506,2.4791,2.5023,0.0,2.5967,2.4388,2.194,1.9813,1.6799,1.3658,1.1236,1.1253,1.1646,1.0817,1.0761,1.038,0.875,0.8398,0.8067,0.7114,0.7233,0.7234,0.6444,0.6597,0.6785,0.6656,0.7072,0.7384,0.7571,0.7959,0.8275,0.8207,0.8067,0.8247,0.8924,0.9354,0.9717,1.0079,1.0119,0.9972,0.965,0.948,0.9375,0.9225,0.9718,1.0167,1.0415,1.1158,1.1728,1.2107,1.1673,1.1489,1.1415,1.0577,1.168,1.4,1.322,1.3958,1.5614,1.5614,1.5422,1.5143,1.5265,1.5482,1.5604,0.0,0.0,0.0,0.0,0.0,0.0,0.0,0.0,0.0,0.0,0.0,0.0,0.0,0.0,0.0,0.0,0.0,0.0,0.0,2.3482,2.3646,2.4958,2.3877,2.3168,2.3014,2.3286,2.3426,2.3418,0.0,0.0,0.0,0.0,0.0,0.0,0.0,0.0,2.6328,2.6525,2.7201,2.807,2.7503,2.7612,2.8048,2.7652,2.7126,2.6511,0.0,0.0,0.0,2.5045,2.5412,2.5785,2.6103,2.6351,2.6199,2.4426,2.1593,1.8512,1.6276,1.3301,1.0854,1.0641,1.1158,1.1528,1.0384,1.0247,0.9997,0.8639,0.806,0.7739,0.7588,0.7563,0.7468,0.7055,0.7003,0.7199,0.7602,0.7629,0.7749,0.8451,0.8831,0.8996,0.8991,0.8676,0.8682,0.911,0.9304,0.9604,1.005,0.9892,0.9724,0.9621,0.9562,0.951,0.9465,0.9465,0.971,1.0167,1.0956,1.1288,1.1173,1.1393,1.1395,1.1179,1.063,1.0922,1.1808,1.1045,1.1143,1.1676,1.1552,1.1435,1.1278,1.1053,1.1041,1.1509,0.0,0.0,0.0,0.0,0.0,0.0,0.0,0.0,0.0,0.0,0.0,0.0,0.0,0.0,0.0,0.0,0.0,0.0,0.0,0.0,2.5529,2.7229,2.6186,2.5632,2.5796,2.5466,2.5376,2.5556,0.0,0.0,0.0,0.0,0.0,0.0,0.0,0.0,2.8906,2.8814,2.9369,3.0199,2.9219,2.8961,2.9113,2.8789,2.8187,0.0,0.0,0.0,0.0,2.5527,2.5711,2.5986,2.6224,2.6395,2.5976,2.327,1.9948,1.667,1.4514,1.1431,0.9009,0.9808,1.0362,1.0396,0.9515,0.9417,0.9335,0.8558,0.8051,0.7884,0.8087,0.827,0.8308,0.7937,0.8122,0.8353,0.8767,0.8581,0.8701,0.9542,0.982,1.011,1.0248,1.0208,0.9988,0.9599,0.9932,1.0178,1.0221,1.0006,0.9791,0.9621,0.9614,0.9562,0.9517,0.9569,0.9976,1.0635,1.1309,1.1487,1.123,1.1402,1.1395,1.1226,1.0722,1.0512,1.045,0.9918,0.9562,0.9412,0.9268,0.9144,0.9009,0.8794,0.8715,0.9139,0.0,0.0,0.0,0.0,0.0,0.0,0.0,0.0,0.0,0.0,0.0,0.0,0.0,0.0,0.0,0.0,0.0,0.0,0.0,0.0,0.0,2.7712,2.6809,2.6439,2.6776,2.686,2.7031,2.7305,0.0,0.0,0.0,0.0,0.0,0.0,0.0,0.0,3.11,3.157,3.1813,3.1834,3.0958,3.0118,2.9425,2.9595,0.0,0.0,0.0,0.0,0.0,2.5285,2.5086,2.526,2.5318,2.5286,2.4806,2.2625,1.9504,1.636,1.4504,1.1219,0.8356,0.8871,0.8885,0.8689,0.8301,0.8536,0.87,0.8373,0.8305,0.8446,0.8805,0.9353,0.9645,0.9171,0.9835,1.029,1.0055,1.0007,1.0182,1.0683,1.0972,1.1428,1.209,1.2392,1.1979,1.0418,1.1099,1.1295,1.0544,1.0461,1.018,0.965,0.9621,0.9562,0.9413,1.0035,1.0804,1.1619,1.2049,1.2147,1.203,1.1636,1.1453,1.1434,1.0786,1.0337,1.0103,0.9814,0.9391,0.8917,0.8917,0.8709,0.8414,0.8414,0.8414,0.8429,0.0,0.0,0.0,0.0,0.0,0.0,0.0,0.0,0.0,0.0,0.0,0.0,0.0,0.0,0.0,0.0,0.0,0.0,0.0,0.0,0.0,0.0,0.0,0.0,0.0,0.0,0.0,0.0,0.0,0.0,0.0,0.0,0.0,0.0,0.0,0.0,3.0469,3.1043,3.1619,3.2181,0.0,3.2071,3.2354,0.0,0.0,0.0,0.0,0.0,0.0,2.7492,2.7044,2.7256,2.7282,2.721,2.6569,2.382,2.0404,1.7022,1.4775,1.1645,0.9148,0.926,1.0073,1.0471,0.9069,0.9309,0.9669,0.8813,0.8721,0.8915,0.9369,0.9814,1.0223,1.0485,1.09,1.1187,1.1105,1.1095,1.1228,1.1586,1.1921,1.2237,1.2627,1.3333,1.3259,1.215,1.2004,1.1859,1.1684,1.0951,1.0447,1.0195,0.9918,0.9681,0.9562,1.002,1.032,1.0423,1.0951,1.1151,1.1142,1.1104,1.1067,1.1048,1.0547,1.0288,1.0184,0.9619,0.9321,0.9153,0.8865,0.8684,0.8602,0.8455,0.8414,0.8429,0.0,0.0,0.0,0.0,0.0,0.0,0.0,0.0,0.0,0.0,0.0,0.0,0.0,0.0,0.0,0.0,0.0,0.0,0.0,0.0,0.0,0.0,0.0,0.0,0.0,0.0,0.0,0.0,0.0,0.0,0.0,0.0,0.0,0.0,0.0,3.1654,3.2686,0.0,0.0,0.0,0.0,0.0,0.0,0.0,0.0,0.0,0.0,0.0,0.0,2.9613,2.8587,2.8133,2.8092,2.8023,2.7012,2.235,1.9619,1.716,1.2813,1.0414,0.9069,0.8835,0.9419,0.9717,0.8346,0.8702,0.9148,0.8673,0.8879,0.9302,0.9838,1.0521,1.1125,1.1175,1.1721,1.2085,1.1843,1.1847,1.1966,1.2478,1.2708,1.3064,1.3637,1.4152,1.4186,1.3598,1.3053,1.2554,1.1981,1.1264,1.0801,1.0492,1.0016,0.9844,0.9932,1.0431,1.0685,1.0838,1.1156,1.1302,1.1237,1.0847,1.0677,1.0659,1.022,0.9963,0.9853,0.9457,0.9239,0.9128,0.8837,0.8716,0.8683,0.8488,0.8414,0.8429,0.0,0.0,0.0,0.0,0.0,0.0,0.0,0.0,0.0,0.0,0.0,0.0,0.0,0.0,0.0,0.0,0.0,0.0,0.0,0.0,0.0,0.0,0.0,0.0,0.0,0.0,0.0,0.0,0.0,0.0,0.0,0.0,0.0,0.0,0.0,0.0,0.0,0.0,0.0,0.0,0.0,0.0,0.0,0.0,0.0,0.0,0.0,0.0,0.0,0.0,3.0037,2.8762,2.8582,2.8475,2.7156,2.0762,1.87,1.7158,1.0806,0.8953,0.8673,0.8154,0.8241,0.8259,0.7334,0.7755,0.8368,0.8427,0.908,0.9786,1.0207,1.1285,1.1998,1.1608,1.2401,1.2907,1.244,1.2415,1.2755,1.339,1.3436,1.3778,1.4775,1.4711,1.462,1.4552,1.3955,1.31,1.1968,1.1537,1.109,1.0593,1.0098,0.9999,1.03,1.0956,1.141,1.1819,1.195,1.1939,1.1817,1.0901,1.0503,1.0484,1.0067,0.974,0.9519,0.9519,0.9406,0.9243,0.8938,0.8831,0.879,0.8512,0.8414,0.8462,0.0,0.0,0.0,0.0,0.0,0.0,0.0,0.0,0.0,0.0,2.8282,2.8063,0.0,0.0,0.0,0.0,0.0,0.0,0.0,0.0,0.0,0.0,0.0,0.0,0.0,0.0,0.0,0.0,0.0,0.0,0.0,0.0,0.0,0.0,0.0,0.0,0.0,0.0,0.0,0.0,0.0,0.0,0.0,0.0,0.0,0.0,0.0,0.0,0.0,0.0,3.2148,3.1235,3.0509,3.0191,2.927,2.5215,2.1473,1.7889,1.4244,1.0994,0.8614,0.8515,0.9243,0.9755,0.8683,0.9263,0.9859,0.9436,0.9812,1.034,1.0691,1.116,1.1643,1.2253,1.2866,1.3194,1.324,1.3709,1.4172,1.4362,1.4202,1.4375,1.5103,1.4833,1.4495,1.4115,1.3766,1.3273,1.2496,1.1845,1.1091,1.0374,1.0081,0.9947,0.9895,1.0913,1.1418,1.1351,1.1836,1.2068,1.2003,1.1423,1.1063,1.0966,1.091,1.0786,1.0602,1.0602,1.0602,1.0487,0.9726,0.9427,0.9351,0.8642,0.8414,0.8422,0.0,0.0,0.0,0.0,0.0,0.0,0.0,2.8905,2.8712,2.844,2.8396,2.8398,2.834,2.8272,0.0,0.0,0.0,0.0,0.0,0.0,0.0,0.0,0.0,0.0,0.0,0.0,2.9876,2.9537,0.0,0.0,0.0,3.0349,3.0761,3.1312,0.0,0.0,0.0,0.0,0.0,0.0,0.0,0.0,0.0,0.0,0.0,0.0,0.0,0.0,0.0,0.0,3.3529,3.3022,3.1776,3.0993,2.9507,2.4197,2.1097,1.8245,1.3129,1.0675,0.9475,0.9207,0.9926,1.0453,0.9356,0.9724,1.0175,0.9715,1.0112,1.0594,1.1015,1.148,1.2018,1.2665,1.376,1.4552,1.4615,1.5323,1.5971,1.6285,1.5856,1.5624,1.6076,1.5601,1.5021,1.4353,1.402,1.3447,1.2606,1.1728,1.0949,1.0332,1.0213,1.0205,1.03,1.1116,1.1569,1.1701,1.1988,1.2171,1.2115,1.1589,1.1299,1.1255,1.1167,1.1044,1.099,1.0945,1.0901,1.0838,1.0286,0.9995,0.9777,0.9113,0.8883,0.8858,0.0,0.0,0.0,0.0,0.0,0.0,0.0,2.9075,2.8973,2.8735,2.8887,2.9143,2.9485,2.923,2.9316,0.0,0.0,0.0,0.0,0.0,0.0,0.0,0.0,0.0,0.0,0.0,0.0,3.0102,3.089,0.0,0.0,0.0,0.0,0.0,3.122,3.1641,0.0,0.0,0.0,0.0,0.0,3.5284,0.0,0.0,0.0,0.0,0.0,0.0,0.0,0.0,3.4388,3.3971,3.2542,3.1594,2.9643,2.2538,2.0373,1.8776,1.1773,1.0137,1.0347,0.9978,1.0386,1.0624,0.9724,0.9939,1.0198,0.986,1.0269,1.0839,1.1197,1.1812,1.2376,1.2806,1.4272,1.5383,1.553,1.6374,1.7171,1.7747,1.7238,1.6875,1.7005,1.6365,1.5631,1.4853,1.4132,1.3395,1.2514,1.1532,1.0809,1.0427,1.0419,1.0514,1.071,1.1345,1.1894,1.2177,1.2512,1.2637,1.2579,1.2173,1.1972,1.1926,1.1741,1.1602,1.1481,1.1334,1.1242,1.1113,1.0795,1.0486,1.0169,0.9625,0.94,0.9318,0.0,0.0,0.0,0.0,0.0,0.0,0.0,2.9503,2.9849,2.9689,3.0044,3.064,3.1539,3.0475,3.0017,0.0,0.0,0.0,0.0,0.0,0.0,0.0,0.0,0.0,0.0,0.0,0.0,3.2042,3.2147,0.0,0.0,0.0,0.0,0.0,0.0,3.1417,3.1055,3.2552,0.0,0.0,0.0,0.0,0.0,0.0,0.0,0.0,0.0,3.5442,3.5206,3.5132,3.4467,3.3527,3.2626,3.2392,3.0953,2.348,2.1288,1.9818,1.3185,1.0943,1.0512,1.0752,1.0514,1.0258,1.0051,1.031,1.0471,1.0133,1.0565,1.115,1.1393,1.1748,1.2242,1.2802,1.3536,1.417,1.474,1.5944,1.682,1.7236,1.7382,1.7439,1.747,1.6362,1.5562,1.5331,1.3865,1.2826,1.244,1.1467,1.0904,1.0871,1.082,1.0667,1.0368,1.1714,1.2296,1.214,1.3537,1.408,1.3902,1.3863,1.3801,1.3758,1.3527,1.3204,1.2702,1.26,1.2337,1.1929,1.1298,1.0871,1.0591,0.9956,0.9611,0.939,0.0,0.0,0.0,0.0,0.0,0.0,2.9682,2.9868,3.007,3.0308,3.0568,3.0828,3.1045,3.1316,3.1733,0.0,0.0,0.0,0.0,0.0,0.0,0.0,0.0,0.0,0.0,0.0,3.1675,3.2166,3.226,0.0,0.0,0.0,0.0,0.0,0.0,3.1394,3.0773,3.2,0.0,0.0,0.0,0.0,0.0,0.0,0.0,0.0,0.0,0.0,3.4961,3.4962,3.4642,3.3999,3.2409,3.2013,3.0793,2.4028,2.1927,2.0482,1.4616,1.3235,1.3155,1.2064,1.2028,1.2029,1.1372,1.1424,1.1467,1.1107,1.1092,1.1283,1.1538,1.1911,1.2272,1.2584,1.3978,1.5272,1.6149,1.7317,1.8391,1.912,1.8769,1.8361,1.8199,1.6978,1.588,1.5194,1.4181,1.3541,1.3411,1.1965,1.1124,1.1124,1.1541,1.18,1.1988,1.2915,1.3489,1.371,1.4265,1.446,1.4397,1.4397,1.4354,1.4214,1.4097,1.3633,1.3035,1.288,1.2536,1.2058,1.1795,1.1527,1.1239,1.0569,1.0339,1.0222,0.0,0.0,0.0,0.0,0.0,2.9359,2.9793,3.0136,3.0461,3.0728,3.1202,3.1445,3.1306,3.2192,3.2974,3.3396,0.0,0.0,0.0,0.0,0.0,0.0,0.0,0.0,0.0,0.0,3.2479,3.2879,3.2976,3.3191,0.0,0.0,3.3,3.2122,0.0,0.0,0.0,0.0,0.0,0.0,0.0,0.0,0.0,0.0,0.0,0.0,0.0,0.0,0.0,0.0,0.0,3.3705,3.1861,0.0,0.0,2.4194,2.2483,2.1153,1.6085,1.5071,1.5039,1.3609,1.3332,1.3171,1.2412,1.2172,1.1987,1.1551,1.151,1.156,1.1747,1.2159,1.2601,0.0,1.416,1.5695,1.6522,1.783,1.9018,1.9919,1.9573,1.9203,1.8995,1.7456,1.6177,1.5327,1.4552,1.4128,1.4176,1.2797,1.1972,1.1766,1.2228,1.2626,1.2924,1.3654,1.4253,1.4703,1.4834,1.4958,1.5057,1.5012,1.4914,1.4825,1.4641,1.4169,1.3614,1.3412,1.301,1.2475,1.2397,1.215,1.1793,1.1198,1.0937,1.0797,0.0,0.0,0.0,0.0,0.0,0.0,2.904,3.0241,3.114,3.0932,3.2037,3.2942,3.3069,3.319,3.3423,3.3765,0.0,0.0,0.0,0.0,0.0,0.0,0.0,0.0,0.0,0.0,3.3673,3.468,3.4754,3.4945,3.5267,3.5136,3.4295,3.2897,0.0,0.0,0.0,0.0,0.0,0.0,0.0,0.0,0.0,0.0,0.0,0.0,0.0,0.0,0.0,0.0,0.0,0.0,0.0,0.0,0.0,0.0,2.2966,2.1861,1.7612,1.6048,1.5529,1.5345,1.4186,1.3018,1.2738,1.2281,1.1725,1.1226,1.1644,1.2058,1.2058,1.2622,1.3073,0.0,0.0,1.4766,1.5104,1.6677,1.7987,1.8523,1.939,1.9811,1.9608,1.7734,1.6292,1.5859,1.4945,1.4421,1.4421,1.4003,1.3485,1.2894,1.2894,1.2793,1.2517,1.3494,1.4148,1.4439,1.5272,1.5826,1.6093,1.5951,1.5904,1.5846,1.5526,1.5156,0.0,1.4514,1.4044,1.3457,1.3038,1.2654,1.2244,1.1861,1.1368,1.0922,0.0,0.0,0.0,0.0,0.0,0.0,0.0,3.0134,3.0656,3.1474,3.187,3.2013,3.1812,3.2504,3.2901,3.2718,0.0,0.0,0.0,0.0,0.0,0.0,0.0,0.0,0.0,0.0,3.4223,3.462,3.4749,3.4908,3.5162,3.5107,3.4614,3.3703,3.3146,3.2795,0.0,0.0,0.0,0.0,0.0,0.0,3.5321,0.0,0.0,0.0,0.0,0.0,0.0,0.0,0.0,0.0,0.0,0.0,0.0,0.0,0.0,2.1263,1.7932,1.6891,1.6416,1.5071,1.4791,1.4576,1.346,1.3251,1.3243,1.2873,1.2699,1.2606,1.2779,1.3245,1.3692,1.3784,1.4556,1.5642,1.6987,1.8135,1.9208,2.0264,2.0348,1.9972,1.8983,1.8315,1.7621,1.6874,1.6117,1.5674,1.5555,1.5138,1.4467,1.3513,1.436,1.467,1.4405,1.5811,1.6374,1.6079,1.6507,1.6694,1.6581,1.6524,1.642,1.6269,1.6134,1.5642,1.4978,1.4482,1.3897,1.3309,1.2729,1.2419,1.225,1.1872,1.1569,1.1368,0.0,0.0,0.0,0.0,0.0,0.0,0.0,2.9899,3.0252,3.0899,3.1418,3.1568,3.122,3.2266,3.2897,3.2653,0.0,0.0,0.0,0.0,0.0,0.0,0.0,0.0,0.0,3.4086,3.447,3.4602,3.4698,3.4846,3.511,3.5038,3.4702,3.4054,3.3234,3.3077,0.0,0.0,0.0,0.0,0.0,0.0,3.5152,0.0,0.0,0.0,0.0,0.0,0.0,0.0,0.0,0.0,0.0,0.0,0.0,0.0,2.104,2.0175,1.8476,1.7701,1.7126,1.5976,1.5525,1.5099,1.4203,1.3847,1.369,1.3423,1.3355,1.334,1.3427,1.4001,1.4514,1.472,1.5311,1.6349,1.8009,1.9047,2.0111,2.1544,2.1151,2.0376,1.9525,1.8968,1.8364,1.7819,1.7089,1.6616,1.6554,1.6128,1.5526,1.4883,1.5299,1.5415,1.5256,1.6402,1.6944,1.6797,1.6965,1.7134,1.72,1.692,1.6761,1.6705,1.6488,1.6095,0.0,1.5034,1.4537,1.3999,1.3326,1.2944,1.2744,1.2136,1.1877,1.1728,0.0,0.0,0.0,0.0,0.0,0.0,0.0,0.0,2.9806,2.9544,3.0676,3.1445,3.1202,3.2371,3.3176,3.3261,0.0,0.0,0.0,0.0,0.0,0.0,0.0,0.0,0.0,3.4333,3.447,3.4583,3.4583,3.4749,3.5077,3.4963,3.463,3.4146,3.3207,3.3281,3.4173,3.5142,3.5579,3.5547,3.533,3.5136,0.0,0.0,0.0,0.0,0.0,0.0,0.0,0.0,0.0,0.0,0.0,0.0,0.0,0.0,0.0,0.0,0.0,1.8259,1.7509,1.7429,1.6165,1.4914,1.4925,1.4222,0.0,1.3301,1.3726,1.4161,1.4238,1.4878,1.548,1.5972,1.6252,1.6894,1.8326,1.9506,2.0723,2.2371,2.1628,2.0933,2.0841,1.9554,1.8735,1.8674,1.7873,1.7387,1.7387,1.6961,1.6708,1.6718,1.5822,1.5303,1.5274,1.5826,1.6379,1.6821,1.6933,1.7279,1.7909,1.719,1.7032,1.719,1.6705,1.6488,1.6488,1.6104,1.5738,1.5399,1.4582,1.4034,1.3597,1.271,1.2221,1.1963,0.0,0.0,0.0,0.0,0.0,0.0,0.0,0.0,0.0,0.0,2.9687,3.0201,3.1097,3.1498,3.2019,0.0,0.0,0.0,0.0,0.0,0.0,0.0,0.0,0.0,0.0,3.4271,3.4377,3.4451,3.4508,3.467,3.4964,3.4908,3.494,3.4944,3.3461,3.2941,3.3308,3.4697,3.5304,3.5254,3.4851,3.467,0.0,0.0,0.0,0.0,3.3815,3.314,0.0,0.0,0.0,0.0,0.0,0.0,0.0,0.0,1.975,1.923,1.8666,0.0,1.6378,1.5971,1.608,1.6127,0.0,1.5081,1.5167,1.546,1.4971,1.4835,1.5922,1.6,1.6244,1.7203,1.7264,1.7877,1.9735,2.1098,2.2143,2.2907,2.2442,2.1608,2.0544,2.047,2.0117,1.9393,1.8731,1.8343,1.8343,1.7926,1.7615,1.7492,1.7049,1.6598,1.6087,1.7346,1.7722,1.7346,1.8116,1.8333,1.803,1.7963,1.7843,1.7733,1.7579,1.7468,1.7368,1.6787,1.6352,1.5896,1.5141,1.4566,1.3975,1.334,1.2944,1.2693,0.0,0.0,0.0,0.0,0.0,0.0,0.0,0.0,0.0,0.0,0.0,0.0,0.0,0.0,0.0,0.0,0.0,0.0,0.0,0.0,0.0,0.0,0.0,0.0,3.4197,3.4253,3.4325,3.4409,3.4483,3.4649,3.4905,3.4888,3.5054,3.5247,3.4002,3.3177,3.2842,3.4075,3.4761,3.4982,3.4609,0.0,0.0,0.0,0.0,0.0,3.335,3.2307,0.0,2.9521,2.7662,2.5589,0.0,0.0,0.0,0.0,1.9034,1.8673,1.7941,1.7275,1.6707,1.6285,1.6524,1.6677,1.5962,1.575,1.5761,1.5963,1.5633,1.5599,1.6582,1.7003,1.7432,1.8379,1.8646,1.9439,2.1527,2.2195,2.2875,2.3809,2.3371,2.2608,2.1684,2.1549,2.1185,2.0423,1.9651,1.9176,1.9176,1.8765,1.8516,1.8455,1.8051,1.7509,1.68,1.7512,1.7897,1.7843,1.8441,1.8721,1.8762,1.8602,1.8494,1.8387,1.8182,1.8007,1.7852,1.7441,1.7059,1.6613,1.5946,1.5332,1.4673,1.4053,1.3501,1.3005,0.0,0.0,0.0,0.0,0.0,0.0,0.0,0.0,0.0,0.0,0.0,0.0,0.0,0.0,0.0,0.0,0.0,0.0,0.0,0.0,0.0,0.0,0.0,3.4123,3.4141,3.4216,3.4333,3.4389,3.4431,3.4609,3.4866,3.4888,3.4902,3.4898,3.4482,3.3671,3.2657,3.3563,3.4262,3.4674,3.4379,0.0,0.0,0.0,0.0,0.0,0.0,0.0,0.0,2.8102,2.6181,2.3882,2.1757,0.0,0.0,0.0,0.0,0.0,1.7157,1.7299,1.7616,1.7252,1.7175,1.707,1.6753,1.6398,1.6085,1.6038,1.6214,1.6531,1.7169,1.7927,1.872,1.943,2.0131,2.1305,2.3208,2.3221,2.3431,2.474,2.4209,2.3553,2.306,2.2535,2.2004,2.1406,2.0504,1.9975,1.9975,1.9558,1.9298,1.9298,1.8918,1.8406,1.7712,1.7464,1.7722,1.8483,1.859,1.9016,1.9656,1.9226,1.9081,1.9146,1.8762,0.0,1.8417,1.8267,1.7995,1.7622,1.7057,1.6383,1.5687,1.5067,1.4265,1.3514,0.0,0.0,0.0,0.0,0.0,0.0,0.0,0.0,0.0,0.0,0.0,0.0,0.0,0.0,0.0,0.0,0.0,0.0,0.0,0.0,0.0,0.0,3.3478,3.374,3.3857,3.4104,3.4234,3.4333,3.4321,3.4483,3.4728,3.4792,3.4241,3.3225,3.4323,3.3932,3.2602,3.3747,3.4248,3.4265,3.3876,0.0,0.0,0.0,0.0,0.0,0.0,0.0,0.0,2.6094,2.4301,2.2464,2.1437,0.0,0.0,0.0,0.0,0.0,1.7059,1.7252,1.7461,1.7095,1.7482,1.7894,1.77,1.7447,1.7311,1.776,1.7395,1.7341,1.8708,1.8941,1.9258,2.0493,2.1728,2.295,2.407,2.4344,2.4455,2.4681,2.4622,2.4038,2.2725,2.2858,2.2593,2.1614,2.0997,2.0659,2.0659,2.0157,1.9878,1.9854,1.9817,1.9727,1.9617,1.9084,1.9056,1.9411,1.9991,2.0207,2.0131,2.0169,2.0118,2.0029,0.0,1.9914,1.9862,1.9592,1.9279,1.8898,1.8826,1.8254,1.7404,1.6683,1.6147,1.5702,0.0,0.0,0.0,0.0,0.0,0.0,0.0,0.0,0.0,0.0,0.0,0.0,0.0,0.0,0.0,0.0,0.0,0.0,0.0,0.0,0.0,3.2342,3.2745,3.3078,3.3358,3.3573,3.3692,3.3755,3.379,3.3954,3.4264,3.4033,3.3373,3.2352,3.3034,3.2863,3.2123,3.3109,3.3654,3.3805,0.0,0.0,0.0,0.0,0.0,0.0,0.0,0.0,0.0,0.0,2.3453,2.1688,2.0805,0.0,0.0,0.0,0.0,0.0,1.7191,1.7377,1.7621,1.7698,1.8281,1.8761,1.8741,1.8475,1.8368,1.8869,1.8594,1.8577,1.9481,1.9825,2.051,2.1973,2.2666,2.3482,2.4796,2.4823,2.4862,2.5312,2.5059,2.4562,2.355,2.347,2.3119,2.2383,2.1618,2.1156,2.1156,2.0645,2.0341,2.0329,2.0607,2.0883,2.1081,2.0794,2.0557,2.0307,2.0594,2.0868,2.1068,2.1188,2.1126,2.1015,0.0,2.093,2.0845,2.0805,2.0644,2.0344,2.0319,1.9887,1.9194,1.8327,1.8113,1.8203,0.0,0.0,0.0,0.0,0.0,0.0,0.0,0.0,0.0,0.0,0.0,0.0,0.0,0.0,0.0,0.0,0.0,0.0,0.0,0.0,3.1642,3.1888,3.2115,3.2472,3.2885,3.3067,3.3183,3.3244,3.3293,3.3517,3.3825,3.3305,3.259,3.1787,3.1992,3.1883,3.1602,3.252,3.3067,3.3327,0.0,0.0,0.0,0.0,0.0,0.0,0.0,0.0,0.0,0.0,0.0,0.0,0.0,0.0,0.0,1.8548,1.7993,1.7609,1.7468,1.7473,1.7712,1.8244,1.8828,1.9264,1.9634,1.9514,1.9442,1.9772,1.9867,1.99,2.0237,2.0833,2.1668,2.2981,2.3286,2.3904,2.525,2.5337,2.5441,2.6107,2.5704,2.5145,2.4598,2.4115,2.3567,2.2952,2.209,2.1542,2.1471,2.0848,2.0585,2.0585,2.125,2.176,2.2047,2.2258,2.2021,2.1328,2.1301,2.1568,2.2077,2.2095,2.2067,2.1993,2.1993,2.1866,2.1752,2.1932,2.1857,2.1669,2.1694,2.1429,2.0918,2.0111,2.0147,2.0477,0.0,0.0,0.0,0.0,0.0,0.0,0.0,0.0,0.0,0.0,0.0,0.0,0.0,0.0,0.0,0.0,0.0,0.0,0.0,0.0,3.1102,3.1783,3.1817,3.2083,3.2596,3.2877,3.302,3.3022,3.3166,3.3346,3.3597,3.2878,3.2158,3.1455,3.2027,3.1824,3.1144,3.2444,3.2934,3.2813,3.2504,0.0,0.0,0.0,0.0,0.0,0.0,0.0,0.0,0.0,0.0,0.0,0.0,0.0,1.9263,1.8721,1.8007,1.7478,1.7643,1.7512,1.7483,1.8218,1.8646,1.919,2.0037,2.0487,2.0642,2.0744,2.103,2.1335,2.1376,2.1893,2.2306,2.2445,2.3677,2.4786,2.5351,2.6205,2.6875,2.6875,2.6365,2.5792,2.5294,2.467,2.3892,2.2866,2.2201,2.1693,2.134,2.0746,2.0474,2.0575,2.152,2.2105,2.2292,2.3216,2.329,2.2558,2.2558,2.2649,2.2799,2.2844,2.283,2.2785,2.2785,2.2799,2.2785,2.2832,2.2789,2.2833,2.3126,2.2966,2.2531,2.2395,2.2186,2.2149,0.0,0.0,0.0,0.0,0.0,0.0,0.0,0.0,0.0,0.0,0.0,0.0,0.0,0.0,0.0,0.0,0.0,0.0,0.0,0.0,3.0844,3.1596,3.1614,3.1661,3.1773,3.2118,3.2256,3.2249,3.21,3.2325,3.2872,3.1732,3.1297,3.1452,3.1182,3.0843,3.0505,3.1542,3.1595,3.108,3.1293,3.0078,0.0,0.0,0.0,0.0,0.0,0.0,0.0,0.0,2.1362,2.1138,0.0,1.9495,1.9377,1.8762,1.8109,1.7574,1.7655,1.8103,1.8533,1.86,1.9328,2.0161,2.0748,2.1176,2.1447,2.1891,2.2477,2.2751,2.2179,2.2454,2.2658,2.2083,2.3773,2.4964,2.4554,2.5754,2.6556,2.6246,2.5689,2.5249,2.5091,2.4606,2.4015,2.3219,2.2907,2.2485,2.1938,2.1488,2.1396,2.1657,2.236,2.283,2.3098,2.3782,2.4078,2.3991,2.3709,2.3595,2.3638,2.3724,2.3852,2.3948,2.3948,2.4032,2.4142,2.4277,2.4327,2.4353,2.4618,2.4703,2.4751,2.4719,2.4963,2.531,0.0,0.0,0.0,0.0,0.0,0.0,0.0,0.0,0.0,0.0,0.0,0.0,0.0,0.0,0.0,0.0,0.0,0.0,2.9591,2.9632,3.0031,3.1011,3.0844,3.0768,3.0886,3.0832,3.1124,3.1634,3.1237,3.1199,3.1513,3.056,3.0272,3.0469,3.0091,2.9732,2.9408,3.0023,2.9845,2.9269,2.9615,2.8278,0.0,0.0,0.0,0.0,0.0,0.0,0.0,0.0,2.1415,0.0,0.0,0.0,1.9371,1.8881,1.8344,1.8009,1.818,1.8486,1.8855,1.9393,1.9943,2.073,2.1757,2.2027,2.2347,2.3046,2.3536,2.3601,2.311,2.2874,2.2604,2.211,2.3729,2.4837,2.4222,2.5441,2.6255,2.59,2.524,2.478,2.4899,2.4315,2.3723,2.3205,2.3068,2.2787,2.2259,2.198,2.203,2.242,2.3009,2.345,2.3837,2.4369,2.4775,2.5052,2.4759,2.4542,2.4436,2.4614,2.4719,2.4863,2.4887,2.4965,2.5098,2.5368,2.554,2.5709,2.5872,2.6087,2.6317,2.6369,2.6804,2.7347,0.0,0.0,0.0,0.0,0.0,0.0,0.0,0.0,0.0,0.0,0.0,0.0,0.0,0.0,0.0,0.0,0.0,0.0,2.7842,2.7893,2.8554,3.0027,2.9367,2.9279,2.9871,2.9147,2.9597,3.1278,3.0737,3.0143,2.9506,2.9489,2.9076,2.8304,2.8851,2.8608,2.7789,2.7931,2.7814,2.7551,2.751,2.6286,2.4447,0.0,0.0,0.0,0.0,0.0,0.0,0.0,2.1716,2.0888,0.0,0.0,0.0,1.9064,1.8786,1.8689,1.9242,1.8554,1.8175,2.058,2.056,2.0544,2.2936,2.3234,2.3282,2.422,2.4003,2.379,2.4131,2.3047,2.2252,2.2594,2.3622,2.4372,2.436,2.5482,2.6268,2.6268,2.5242,2.4607,2.4878,2.3784,2.3008,2.2752,2.2696,2.2519,2.2024,2.1996,2.2217,2.2694,2.3348,2.3933,2.4389,2.5075,2.5454,2.5605,2.5663,2.5535,2.523,2.5329,2.5406,2.5406,2.5465,2.5503,2.554,2.5944,2.635,2.6742,2.6842,2.6959,2.7007,2.7166,2.7487,2.7943,0.0,0.0,0.0,0.0,0.0,0.0,0.0,0.0,0.0,0.0,0.0,0.0,0.0,0.0,0.0,0.0,0.0,0.0,2.7234,2.7177,2.7607,2.8661,2.8384,2.8306,2.8434,2.7778,2.8061,2.9341,2.8639,2.8477,2.8803,2.8747,2.8609,2.8367,2.7937,2.728,2.6419,2.5914,2.5302,2.4762,2.5475,2.4483,2.2638,0.0,0.0,0.0,0.0,0.0,0.0,0.0,0.0,0.0,0.0,0.0,0.0,1.9256,1.8896,1.887,1.8555,1.9144,1.9876,2.0406,2.1359,2.2421,2.3317,2.318,2.3067,2.362,2.3338,2.2959,2.3098,2.2708,2.2239,2.1619,2.3147,2.3978,2.289,2.4323,2.5222,2.4491,2.4243,2.4182,2.4235,2.3955,2.3534,2.3147,2.3271,2.3259,2.3142,2.2979,2.3377,2.4364,2.4266,2.4552,2.5329,2.5497,2.5738,2.601,2.6046,2.5885,2.5535,2.568,2.5828,2.5957,2.5994,2.6137,2.635,2.664,2.6792,2.6925,2.7023,2.7261,2.7582,2.7654,2.8,2.8414,0.0,0.0,0.0,0.0,0.0,0.0,0.0,0.0,0.0,0.0,0.0,0.0,0.0,0.0,0.0,0.0,0.0,0.0,0.0,2.6073,2.6451,2.7331,2.6944,2.6624,2.643,2.5734,2.5706,2.6366,2.6477,2.671,2.7027,2.7291,2.717,2.6791,2.6412,2.5685,2.4635,2.3674,2.2955,2.2567,2.3105,2.2452,2.1163,0.0,0.0,0.0,0.0,0.0,0.0,0.0,0.0,0.0,2.0299,0.0,2.0464,1.9402,1.9145,1.9261,1.9403,2.0093,2.0907,2.1521,2.2269,2.2956,2.3084,2.3375,2.3796,2.4214,2.372,2.3166,2.3103,2.2596,2.2063,2.1644,2.2673,2.3293,2.26,2.3757,2.4459,2.3844,2.3691,2.3702,2.3801,2.3596,2.3396,2.323,2.3531,2.3703,2.3739,2.3794,2.4241,2.5098,2.495,2.5221,2.5885,2.5974,2.6118,2.6347,2.6382,2.633,2.6173,2.6189,2.6295,2.6486,2.6521,2.664,2.6841,2.6666,2.6862,2.723,2.6964,2.729,2.7922,2.7961,2.8228,2.8536,0.0,0.0,0.0,0.0,0.0,0.0,0.0,0.0,0.0,0.0,0.0,0.0,0.0,0.0,0.0,0.0,0.0,0.0,0.0,0.0,2.5067,2.5851,2.513,2.4564,2.4178,2.3393,2.2981,2.2981,2.4334,2.4843,2.461,2.5308,2.5153,2.4208,2.4385,2.3822,2.2616,2.1358,2.0819,2.0779,2.0655,2.0377,2.0077,2.0277,0.0,0.0,0.0,0.0,0.0,0.0,0.0,0.0,1.9935,1.9654,1.9508,1.9414,1.9485,1.9812,2.09,2.1074,2.1422,2.3233,2.3159,2.257,2.2585,2.3671,2.4767,2.5095,2.4496,2.3819,2.3652,2.2611,2.1922,2.2266,2.2347,2.2605,2.3142,2.3659,2.3955,2.3884,2.34,2.3144,2.344,2.2922,2.27,2.3069,2.3503,2.3812,2.3956,2.4393,2.4847,2.5297,2.5524,2.5815,2.6241,2.6399,2.6554,2.6606,2.6674,2.6792,2.6909,2.6792,2.6758,2.6824,2.6889,2.6918,2.6877,2.6189,2.6511,2.7355,2.6755,2.7148,2.802,2.8091,2.8246,2.8432,0.0,0.0,0.0,0.0,0.0,0.0,0.0,0.0,0.0,0.0,0.0,0.0,0.0,0.0,0.0,0.0,0.0,0.0,0.0,0.0,2.3275,2.3378,2.2917,2.2826,2.3197,2.2253,2.1899,2.2151,2.2844,2.3113,2.3069,2.3545,2.3431,2.2728,2.2374,2.1741,2.0861,1.9974,1.949,1.928,1.928,1.9353,1.9452,1.9329,1.9533,0.0,0.0,0.0,0.0,0.0,0.0,0.0,1.9462,1.9412,1.9564,1.8776,1.9253,1.9876,1.9587,2.0608,2.1858,2.2759,2.3497,2.3934,2.358,2.3532,2.3323,2.2675,2.2643,2.2585,2.2177,2.2268,2.228,2.1822,2.2525,2.2951,2.2656,2.324,2.356,2.3184,2.2759,2.2703,2.3303,2.2307,2.199,2.2968,2.2622,2.2979,2.4292,2.4249,2.4751,2.6033,2.5852,2.6013,2.6503,2.6554,2.6657,2.6826,2.6842,2.6942,2.7038,2.6957,2.6635,2.6121,2.6199,2.5932,2.5441,2.5328,2.5536,2.5925,2.643,2.6933,2.7414,2.8146,2.8492,2.8644,0.0,0.0,0.0,0.0,0.0,0.0,0.0,0.0,0.0,0.0,0.0,0.0,0.0,0.0,0.0,0.0,0.0,0.0,0.0,0.0,2.1266,2.1417,2.1077,2.1027,2.1406,2.0655,2.032,2.0495,2.093,2.1287,2.1622,2.2019,2.1957,2.1429,2.0957,2.0422,1.9764,1.8885,1.8239,1.7839,1.7977,1.7991,1.7939,1.7765,1.793,1.822,1.8094,0.0,0.0,0.0,0.0,0.0,0.0,0.0,1.9985,1.8958,1.9475,2.0391,2.0085,2.1037,2.2213,2.2888,2.3761,2.4232,2.3454,2.3311,2.3128,2.2344,2.2565,2.2604,2.1482,2.2038,2.2356,2.1533,2.2115,2.2672,2.2747,2.3086,2.318,2.2659,2.2687,2.2774,2.2803,2.2241,2.2222,2.2985,2.2701,2.2954,2.4018,2.4465,2.5088,2.5899,2.5797,2.6032,2.6742,2.5999,2.591,2.6461,2.6461,2.6745,2.7247,2.7169,2.6742,2.6052,2.6079,2.5725,2.5086,2.4788,2.5014,2.5553,2.5719,2.6405,2.7306,2.7795,2.8268,2.8694,0.0,0.0,0.0,0.0,0.0,0.0,0.0,0.0,0.0,0.0,0.0,0.0,0.0,0.0,0.0,0.0,0.0,0.0,0.0,0.0,0.0,1.986,1.9466,1.9373,1.9665,1.9132,1.8815,1.8827,1.9175,1.9601,2.0067,2.0581,2.0625,2.0238,1.9657,1.9109,1.8621,1.7755,1.7031,1.6413,1.6524,1.6517,1.639,1.6201,1.6367,1.6775,1.6706,1.7198,1.7891,1.823,0.0,0.0,0.0,0.0,2.0012,1.9368,1.9969,2.0908,2.1069,2.1765,2.2687,2.342,2.4042,2.4177,2.3182,2.338,2.354,2.2997,2.317,2.2936,2.1428,2.2033,2.2411,2.1542,2.1777,2.2246,2.2907,2.301,2.2805,2.2271,2.2801,2.2978,2.2446,2.2277,2.246,2.304,2.2818,2.2919,2.3489,2.4562,2.5208,2.5326,2.539,2.5792,2.6534,2.5261,2.4999,2.5798,2.5829,2.6333,2.7186,2.7016,2.6601,2.6021,2.5883,2.5444,2.4781,2.4252,2.4547,2.528,2.4968,2.5793,2.7218,2.7387,2.7997,2.8743,0.0,0.0,0.0,0.0,0.0,0.0,0.0,0.0,0.0,0.0,0.0,0.0,0.0,0.0,0.0,0.0,0.0,0.0,1.7115,0.0,0.0,1.8983,1.8322,1.8311,1.8997,1.8467,1.8159,1.8061,1.852,1.8555,1.8248,1.884,1.9195,1.9231,1.7964,1.7064,1.6457,1.6166,1.5628,1.4872,1.4964,1.535,1.5828,1.5486,1.5886,1.6567,1.6237,1.6576,1.7179,1.6742,1.6941,0.0,0.0,0.0,1.8605,1.9634,2.0302,2.0764,2.1005,2.2409,2.3838,2.4124,2.4595,2.4829,2.4226,2.4282,2.43,2.3678,2.3232,2.2767,2.2018,2.2523,2.2886,2.2244,2.2203,2.235,2.2535,2.2577,2.2381,2.1849,2.2424,2.281,2.2735,2.1816,2.1688,2.2932,2.1913,2.1811,2.3098,2.3493,2.3955,2.4613,2.4737,2.488,2.4982,2.4795,2.4804,2.5043,2.5172,2.5628,2.6338,2.5739,2.5431,2.5303,2.4649,2.399,2.3292,2.3337,2.3525,2.3873,2.4603,2.552,2.6531,2.7287,2.8122,2.8881,0.0,0.0,0.0,0.0,0.0,0.0,0.0,0.0,0.0,0.0,0.0,0.0,0.0,0.0,0.0,1.5061,1.4945,1.4887,1.4945,1.5726,1.6285,1.6655,1.669,1.686,1.7302,1.7164,1.6877,1.6518,1.7263,1.7367,1.6798,1.7163,1.7708,1.8333,1.7307,1.6506,1.587,1.5253,1.4533,1.3857,1.4203,1.4368,1.4417,1.4284,1.4697,1.5321,1.5054,1.5392,1.6088,1.6394,1.6686,1.7174,1.8319,0.0,0.0,0.0,2.0973,2.1845,2.1804,2.2575,2.3515,2.4027,2.4511,2.4912,2.4793,2.5046,2.5086,2.433,2.4243,2.4001,2.2959,2.3363,2.3736,2.3544,2.3212,2.2992,2.3078,2.285,2.2319,2.1416,2.1946,2.2267,2.2102,2.1572,2.1686,2.2716,2.1907,2.179,2.2647,2.3214,2.3646,2.3986,2.4045,2.4325,2.4812,2.3944,2.3807,2.4333,2.4479,2.4962,2.5669,2.5013,2.4681,2.4609,2.4295,2.378,2.3193,2.3313,2.372,2.4329,2.4789,2.5769,2.7027,2.7414,2.8173,2.9075,0.0,0.0,0.0,0.0,0.0,0.0,0.0,0.0,0.0,0.0,0.0,0.0,0.0,0.0,0.0,0.0,1.3235,1.3183,1.3329,1.4255,1.4718,1.4619,1.5225,1.5584,1.5633,1.5816,1.5633,1.5012,1.5898,1.6113,1.5689,1.599,1.6503,1.7111,1.6469,1.5741,1.5014,1.4238,1.3459,1.2845,1.347,1.3416,1.3145,1.3417,1.3855,1.4281,1.4137,1.4489,1.5204,1.6184,1.6599,1.692,1.8484,1.964,0.0,0.0,0.0,2.2995,2.274,2.3004,2.3492,2.4092,2.4582,2.496,2.5485,2.5752,2.5741,2.5045,2.5435,2.5522,2.442,2.4445,2.4654,2.4757,2.4248,2.3775,2.3713,2.3197,2.24,2.1159,2.1622,2.1896,2.1568,2.1541,2.1874,2.2604,2.2085,2.194,2.2377,2.2999,2.3363,2.3363,2.3346,2.3693,2.4333,2.3216,2.3091,2.3942,2.385,2.4243,2.4995,2.4313,2.3979,2.3963,2.4015,2.3781,2.336,2.3517,2.3952,2.4604,2.4914,2.5928,2.7292,2.7543,2.8312,2.923,0.0,0.0,0.0,0.0,0.0,0.0,0.0,0.0,0.0,0.0,0.0,0.0,1.2135,1.16,1.1303,1.1428,1.1421,1.1677,1.2305,1.2834,1.3312,1.3743,1.441,0.0,1.4332,1.4638,1.4519,1.4085,1.4496,1.4881,1.5136,1.5601,1.5643,1.5334,1.4629,1.3941,1.3291,1.2811,1.2243,1.1766,1.2351,1.2548,1.2614,1.325,1.3775,1.4129,1.408,1.4297,1.4776,1.5921,1.6132,1.6272,1.8757,1.9422,1.9589,0.0,0.0,0.0,2.3497,2.3986,2.4628,2.495,2.5039,2.5344,2.6611,2.6458,2.609,2.6087,2.6674,2.7069,2.6587,2.5943,2.5487,2.5548,2.5107,2.4564,2.4031,2.3405,2.2495,2.1159,2.1645,2.1956,2.1624,2.1717,2.2045,2.2748,2.2209,2.2044,2.2377,2.2576,2.2647,2.2647,2.271,2.2771,2.2806,2.2799,2.3241,2.4085,2.3388,2.3466,2.4244,2.349,2.3221,2.3342,2.3478,2.3529,2.3494,2.3634,2.3721,2.3858,2.4762,2.5688,2.6677,2.7627,2.8547,2.9314,0.0,0.0,0.0,0.0,0.0,0.0,0.0,0.0,0.0,0.0,0.0,0.0,0.0,1.1677,1.1435,1.1185,1.1185,1.1373,1.1809,1.1779,1.195,1.2589,1.274,1.2907,1.3114,1.3295,1.3243,1.2931,1.3355,1.3484,1.3308,1.3733,1.3771,1.3676,1.3876,1.3639,1.2902,1.2082,1.1733,1.1783,1.2217,1.2582,1.2884,1.3323,1.3783,1.4137,1.4656,1.4792,1.5064,1.6839,1.745,1.7729,1.9206,2.0191,2.1109,2.2897,2.4044,2.47,2.4637,2.4476,2.4431,2.4912,2.4849,2.4961,2.628,2.6483,2.6339,2.6634,2.7145,2.7449,2.701,2.6606,2.6485,2.7052,2.635,2.5636,2.5436,2.4487,2.3594,2.302,2.2347,2.2128,2.2508,2.2194,2.2115,2.2562,2.244,2.2398,2.2525,2.2605,2.2659,2.2659,2.2738,2.279,2.2842,2.2876,2.3084,2.3388,2.326,2.3334,2.3615,2.3531,2.3504,2.3567,2.3642,2.3707,2.3768,2.3721,2.4404,2.5521,2.5908,2.6948,2.823,2.8778,2.927,2.9698,0.0,0.0,0.0,0.0,0.0,0.0,0.0,0.0,0.0,0.0,0.0,0.0,0.0,0.0,1.1178,1.0611,1.0674,1.0856,1.1045,1.071,1.0829,1.1538,1.1502,1.1556,1.1764,1.2143,1.2151,1.1779,1.2193,1.2304,1.2115,1.2424,1.2617,1.2682,1.3042,1.2892,1.2395,1.1652,1.1425,1.1732,1.2164,1.2528,1.2969,1.3331,1.3717,1.4095,1.4872,1.5168,1.5443,1.746,1.8185,1.8339,1.9414,2.0798,2.2275,2.358,2.4658,2.5333,2.5339,2.5018,2.4824,2.5078,2.4822,2.4835,2.6182,2.6398,2.6426,2.7074,2.7556,2.7797,2.7512,2.7364,2.7425,2.7978,2.7389,2.6826,2.6642,2.5703,2.4953,2.475,2.375,2.33,2.384,2.3432,2.3068,2.288,2.2928,2.288,2.2596,2.2659,2.2712,2.2738,2.2816,2.2868,2.2927,2.2995,2.3028,2.3095,2.3241,2.3313,2.336,2.3544,2.3656,2.37,2.3747,2.3813,2.3876,2.3768,2.4508,2.5761,2.6383,2.7372,2.8493,2.9326,2.9751,2.9905,0.0,0.0,0.0,0.0,0.0,0.0,0.0,0.0,0.0,1.015,0.0,0.0,0.0,0.0,0.0,0.9518,0.9767,0.9958,0.9952,0.9621,0.9812,1.0703,1.0829,1.0703,1.0275,1.1038,1.1233,0.0,0.0,0.0,1.1768,1.192,1.2172,1.2477,1.1962,1.1791,1.1747,1.141,1.1358,1.1578,1.21,1.2502,1.2779,1.3336,1.3659,1.3923,1.4879,1.5396,1.58,1.7633,1.8096,1.8033,1.9488,2.1252,2.2842,2.3737,2.4915,2.5787,0.0,0.0,0.0,2.5371,2.4996,2.5079,2.6351,2.6312,2.6325,2.7527,2.7905,2.8032,2.8195,2.8186,2.8186,2.8186,2.8186,2.8005,2.7519,2.6932,2.6483,2.6293,2.5812,2.5444,2.5463,2.5428,2.4917,2.3716,2.3665,2.3395,2.2674,2.2676,2.2738,2.2816,2.2868,2.2944,2.2995,2.302,2.3119,2.3289,2.3313,2.3383,2.3517,2.3517,2.3567,2.3721,2.3721,2.3747,2.3816,2.3816,2.3958,2.4319,2.6057,2.686,2.7267,2.9198,2.9905,2.994,0.0,0.0,0.0,0.0,0.0,0.0,0.0,0.0,0.0,0.0,0.0,0.0,0.9442,0.8994,0.8672,0.8538,0.8672,0.8807,0.9058,0.8678,0.8678,0.9244,0.9198,0.9332,0.9588,1.0028,1.0415,0.0,0.0,0.0,0.0,0.0,0.0,1.1468,1.1475,1.1284,1.1094,1.115,1.1401,1.1684,1.2231,1.2591,1.2885,1.3353,1.3755,1.4356,1.5934,1.6625,1.7091,1.9235,2.01,2.039,2.1475,2.2262,2.2925,2.3917,2.4995,2.5943,2.6127,0.0,0.0,0.0,0.0,0.0,2.6007,2.6217,2.658,2.7829,2.8147,2.8187,2.833,2.8444,2.8477,2.8477,2.8477,2.8463,2.8278,2.8025,2.7998,2.8233,2.7569,2.6974,2.6783,2.6233,2.5545,2.4689,2.4087,2.3674,2.3467,2.3032,2.2842,2.2944,2.2952,2.3003,2.307,2.3168,2.3241,2.3313,2.3499,2.3611,2.3656,2.3685,2.3831,2.3994,2.3994,2.4056,2.4154,2.4115,2.4579,2.5463,2.6662,2.7533,2.8242,2.9616,3.0128,3.0128,0.0,0.0,0.0,0.0,0.0,0.0,0.0,0.0,0.0,0.0,0.0,0.0,0.8668,0.8296,0.7966,0.7768,0.7756,0.7902,0.8156,0.7717,0.7777,0.8474,0.8296,0.8366,0.8748,0.9402,0.9926,0.0,0.0,0.0,0.0,0.0,0.0,0.0,1.1094,1.0989,1.08,1.1157,1.1382,1.1609,1.2232,1.2692,1.2945,1.3426,1.3797,1.4312,1.6166,1.6857,1.7319,1.9494,2.0447,2.0818,2.174,2.2154,2.2578,2.3579,2.4333,2.5019,2.5632,2.5775,2.5704,2.5435,0.0,0.0,2.6343,2.6748,2.7342,2.8035,2.8284,2.8381,2.8493,2.8589,2.8684,2.8684,2.8716,2.8779,2.8904,2.907,2.9342,2.9781,2.942,2.9016,2.8731,2.7989,2.7092,2.604,2.5212,2.4488,2.3877,2.3553,2.3275,2.2995,2.3045,2.307,2.3095,2.3241,2.3336,2.3401,2.3611,2.3703,2.3747,2.3855,2.3996,2.4094,2.4171,2.4284,2.4426,2.4408,2.4773,2.5431,2.677,2.7653,2.8286,2.9704,3.0204,3.0204,0.0,0.0,0.0,0.0,0.0,0.0,0.0,0.0,0.0,0.0,0.7259,0.7421,0.802,0.7977,0.7632,0.7044,0.7052,0.7129,0.7297,0.6951,0.7125,0.8021,0.7837,0.7772,0.8032,0.9092,0.9685,0.0,0.0,0.0,0.0,0.0,0.0,0.0,0.0,0.0,1.0841,1.1206,1.1425,1.1495,1.2209,1.2666,1.2983,1.3572,1.3833,1.4134,1.5975,1.6707,1.7049,1.9111,1.9911,2.0281,2.1035,2.1601,2.2155,2.2955,2.335,2.3651,2.4493,2.5001,2.5305,2.5366,2.6618,0.0,2.7032,2.7574,2.8218,2.8244,2.8429,2.8573,2.8636,2.8732,2.8794,2.8794,2.8982,2.9166,2.9361,2.9935,3.046,3.0858,3.105,3.1045,3.0712,2.9972,2.892,2.7523,2.6609,2.55,2.4133,2.4156,2.392,2.3282,2.3228,2.3242,2.3242,2.3453,2.3561,2.3494,2.3746,2.3858,2.3837,2.4036,2.4133,2.4152,2.4266,2.4444,2.4623,2.4682,2.47,2.482,2.6647,2.7447,2.7812,2.956,3.0204,3.0204,0.5955,0.0,0.0,0.0,0.0,0.0,0.0,0.0,0.0,0.7385,0.7008,0.6852,0.7148,0.6561,0.6186,0.625,0.6196,0.6293,0.6543,0.6647,0.6811,0.7152,0.7536,0.7867,0.8213,0.904,0.96,0.0,0.0,0.0,0.0,0.0,0.0,0.0,0.0,0.0,1.0694,1.1199,1.1508,1.1708,1.251,1.2833,1.2983,1.3404,1.392,1.4673,1.6305,1.7309,1.8133,2.0054,2.0654,2.0649,2.1521,2.2043,2.2515,2.3031,2.335,2.3564,2.3966,2.4713,2.5322,2.4962,2.6084,0.0,2.7108,2.7351,2.7831,2.8396,2.8573,2.8636,2.8747,2.8811,2.8873,2.8873,2.9617,3.0038,2.9617,3.0081,3.0625,3.1027,3.1411,3.1416,3.0765,2.9972,2.9127,2.8247,2.693,2.5854,2.5063,2.4506,2.4436,2.4918,2.4366,2.4075,2.4075,2.4903,2.4706,2.3517,2.4502,2.4673,2.4054,2.4191,2.4321,2.4426,2.4444,2.4578,2.4764,2.4832,2.4921,2.517,2.6936,2.7643,2.7899,2.9574,3.0204,3.0185,0.5517,0.0,0.0,0.0,0.0,0.0,0.0,0.0,0.644,0.6467,0.6359,0.6331,0.6419,0.6067,0.5902,0.6026,0.6077,0.6192,0.6256,0.6552,0.6758,0.6902,0.7157,0.755,0.8012,0.8701,0.9333,0.0,0.0,0.0,0.0,0.0,0.0,0.0,0.0,0.0,1.0953,1.1256,1.1576,1.1892,1.2565,1.2952,1.3077,1.3492,1.4201,1.5076,1.6314,1.7668,1.8992,1.9967,2.0291,2.0497,2.1274,2.1677,2.1999,2.2633,2.2751,2.2837,2.3815,2.4537,2.503,2.5244,2.6693,0.0,0.0,2.7885,2.8553,2.8587,2.8668,2.8795,2.8858,2.8936,2.9059,2.9303,2.9793,3.0208,3.0418,3.0868,3.1261,3.147,3.1765,3.1652,3.0872,3.011,2.9192,2.8048,2.7309,2.6603,2.5939,2.5592,2.5409,2.5401,2.5033,2.484,2.484,2.5496,2.5457,2.4805,2.5135,2.5342,2.5425,2.4727,2.4649,2.5089,2.4778,2.4734,2.4865,2.4966,2.5298,2.5876,2.7192,2.7701,2.7912,2.9574,3.0204,3.0199,0.4908,0.0,0.0,0.0,0.0,0.0,0.0,0.0,0.5467,0.5437,0.5659,0.5826,0.5806,0.5914,0.6044,0.6074,0.6255,0.6325,0.623,0.6576,0.6832,0.6902,0.6964,0.7288,0.7802,0.8428,0.8978,0.0,0.0,0.0,0.0,0.0,0.0,0.0,0.0,1.0951,1.1252,1.1495,1.1717,1.2104,1.2691,1.2997,1.3237,1.3775,1.4537,1.5317,1.6477,1.8026,1.9605,1.955,1.9813,2.0281,2.085,2.1158,2.14,2.2099,2.2092,2.2163,2.3702,2.4243,2.4529,2.5486,2.706,2.8195,0.0,0.0,0.0,2.842,2.8607,2.8873,2.8778,2.8916,2.9143,2.9556,2.9756,3.0162,3.0997,3.1588,3.193,3.1948,3.1898,3.1655,3.1185,3.0593,2.948,2.7666,2.7849,2.7652,2.6772,2.6654,2.6384,2.593,2.5754,2.5684,2.5711,2.6124,2.6285,2.6149,2.5957,2.6107,2.6542,2.5334,2.5049,2.5478,2.5001,2.4851,2.4934,2.5209,2.5749,2.6479,2.7358,2.7797,2.8122,2.9631,3.0204,3.0199,0.4258,0.4326,0.0,0.0,0.0,0.0,0.0,0.0,0.538,0.4975,0.4955,0.5056,0.528,0.5726,0.6156,0.6384,0.6426,0.6456,0.6525,0.6794,0.6973,0.6902,0.7213,0.7531,0.7802,0.8582,0.9099,0.9332,0.0,0.0,0.0,0.0,0.0,0.0,1.1247,1.1348,1.1379,1.1911,1.2265,1.2451,1.2778,1.2938,1.3077,1.4324,1.4917,1.5463,1.7189,1.8576,1.9539,1.9417,1.9813,2.041,2.0464,2.0955,2.1628,2.1877,2.2019,2.2276,2.325,2.3609,2.3899,2.479,2.569,2.6319,2.6244,0.0,2.7689,2.7183,0.0,2.8778,2.8271,0.0,0.0,2.8913,2.9563,3.0146,3.0387,3.1443,3.2144,3.2073,3.1464,3.129,3.1881,3.1899,3.0645,2.7796,2.8876,2.9029,2.7648,2.6964,2.6933,2.7685,2.7002,2.6685,2.6801,2.7861,2.7671,2.6304,2.737,2.7158,2.5818,2.5843,2.5461,2.4823,2.4787,2.4851,2.4972,2.5817,2.6263,2.6479,2.7358,2.8141,2.8872,2.9841,3.0204,3.0218,0.3862,0.4019,0.0,0.0,0.0,0.0,0.0,0.0,0.4294,0.4137,0.418,0.4286,0.4371,0.4591,0.4993,0.5735,0.5914,0.6143,0.6696,0.6904,0.7037,0.711,0.7265,0.7499,0.7941,0.8286,0.878,0.9271,0.9625,0.0,0.0,0.0,0.0,0.0,1.1257,1.1556,1.1812,1.2098,1.2412,1.2771,1.2945,1.3105,1.3397,1.4514,1.5443,1.6446,1.7863,1.8506,1.8723,1.9126,1.9296,1.9427,2.0142,2.0442,2.0721,2.2038,2.246,2.2865,2.4627,2.5101,2.5223,2.5364,2.6008,2.6412,2.5711,2.6377,2.7003,2.6811,0.0,0.0,0.0,0.0,0.0,0.0,3.0306,3.0974,3.1337,3.1952,3.2318,3.2179,3.2319,3.2197,3.1637,3.1584,3.0482,2.7852,2.9113,2.9355,2.7789,2.7403,2.7472,2.7996,2.7677,2.7593,2.7823,2.8413,2.845,2.7981,2.812,2.8166,2.8049,2.7159,2.6849,2.7006,2.6607,2.6157,2.5785,2.6727,2.7141,2.7243,2.8109,2.8664,2.9065,2.9934,3.0272,3.0253,0.3262,0.3439,0.3445,0.3311,0.0,0.0,0.0,0.0,0.3161,0.3335,0.3449,0.3526,0.354,0.3896,0.4491,0.527,0.5707,0.6237,0.6864,0.7106,0.7161,0.7165,0.7288,0.7535,0.7905,0.8067,0.8461,0.9027,0.0,0.0,0.0,0.0,0.0,0.0,1.1365,1.1786,1.2198,1.2331,1.2652,1.3025,1.3193,1.3702,1.433,1.4931,1.6038,1.738,1.8119,1.8197,1.8091,1.8678,1.8633,0.0,1.9765,2.0026,2.0239,2.2078,2.2886,2.3586,2.5551,2.595,2.5813,2.5744,2.5953,2.5971,2.5114,2.571,2.6389,2.6372,2.6825,0.0,0.0,0.0,2.8843,2.9709,0.0,3.1287,3.1934,3.2366,3.2523,3.2353,3.3055,3.3072,3.1817,3.1982,3.1122,2.8617,2.9677,2.9677,2.7895,2.7818,2.7922,2.8109,2.8109,2.8255,2.854,2.8707,2.8943,2.9251,2.8837,2.8932,2.943,2.8237,2.7944,2.8347,2.7828,2.7246,2.6719,2.7669,2.8058,2.8135,2.9028,2.9372,2.9473,3.0094,3.0292,3.0305,0.2149,0.223,0.244,0.3068,0.2779,0.0,0.0,0.2581,0.215,0.258,0.2599,0.2699,0.2821,0.4091,0.5113,0.5468,0.6254,0.6834,0.7075,0.7296,0.7322,0.7242,0.754,0.7698,0.7557,0.808,0.838,0.8456,0.0,0.0,0.0,0.0,0.0,0.0,1.1761,1.2131,1.2298,1.2693,1.2994,1.3193,1.3419,1.4553,1.6192,1.5958,1.6807,1.8073,1.778,1.7864,1.7976,1.7966,1.8078,0.0,0.0,0.0,2.0763,2.1805,2.3083,2.4352,2.5274,2.5049,2.4737,2.5411,2.4852,2.4101,2.4124,2.4983,2.567,2.5477,2.6566,2.755,2.7346,2.7595,2.815,2.9075,2.9809,0.0,0.0,3.2307,3.2802,3.2606,3.328,3.3576,3.3005,3.3952,3.3389,3.0442,3.0924,3.0362,2.8092,2.8109,2.8246,2.838,2.8398,2.8562,2.8863,2.9034,2.9191,2.9392,2.9626,2.9355,2.8636,2.8641,2.8252,2.7532,2.758,2.757,2.7641,2.8574,2.8957,2.9034,2.9915,3.0337,3.0432,3.0343,3.0292,3.0318,0.1348,0.1118,0.1106,0.1693,0.1779,0.1668,0.1514,0.1384,0.1414,0.1542,0.1654,0.1845,0.1854,0.2804,0.3687,0.4472,0.5305,0.6135,0.6949,0.7226,0.7399,0.7322,0.7642,0.7804,0.7885,0.8111,0.8331,0.8618,0.8784,0.0,0.0,0.0,0.0,0.0,0.0,1.1996,1.2305,1.2753,1.32,1.3645,1.3928,1.449,1.5154,1.5842,1.6758,1.7697,1.749,1.7197,0.0,1.7648,1.76,1.7503,1.8736,1.9356,1.9924,2.1511,2.2671,2.3758,0.0,0.0,2.523,2.5198,0.0,2.4628,2.4311,2.4611,2.5058,2.5355,2.5907,2.6508,2.7012,2.7707,2.8434,2.9096,2.9872,3.0693,0.0,3.3063,3.4304,3.486,3.4368,3.3725,3.3005,3.363,3.2855,2.9786,3.0251,2.9897,2.8103,2.8136,2.8273,2.8398,2.8536,2.8725,2.9034,2.9209,2.9434,2.9664,2.9773,2.9725,2.9589,2.9623,2.9497,2.9275,2.9303,2.9025,2.8593,2.9543,2.9602,2.9162,3.0124,3.0528,3.0565,3.0472,3.0462,3.0509,0.0616,0.0231,0.0154,0.0929,0.0931,0.0789,0.058,0.0765,0.0953,0.1054,0.1257,0.1542,0.1796,0.2513,0.3371,0.4383,0.5204,0.6048,0.6915,0.7155,0.7288,0.7365,0.7618,0.7804,0.7966,0.8111,0.8331,0.8618,0.8703,0.8946,0.0,0.0,0.0,0.0,0.0,1.1855,1.2298,1.2673,1.3119,1.3717,1.4145,1.456,1.5027,1.5695,1.6305,1.6848,0.0,1.6728,1.6576,1.7226,1.7177,1.7132,1.8605,1.9245,1.9812,2.1578,2.2762,2.3745,2.4843,2.5209,0.0,2.5001,2.4874,0.0,2.4368,2.4614,2.5036,2.5556,2.5888,2.635,2.7129,2.7778,2.843,2.9107,2.9779,3.0581,0.0,3.3325,3.4621,3.5071,3.487,3.4564,3.4183,3.425,3.3194,3.0571,3.0754,3.0205,2.8434,2.8727,2.8891,2.8651,2.9089,2.9278,2.9209,2.9332,2.9531,2.9808,2.9823,2.9926,3.0102,3.0132,3.0161,3.0204,3.0204,2.9934,2.9531,3.0144,3.0104,2.9689,3.0354,3.0613,3.0626,3.056,3.0591,3.0633,-0.0228,-0.0389,-0.0318,0.065,0.0408,0.0083,0.0346,0.062,0.0897,0.1076,0.1284,0.1662,0.2521,0.331,0.4226,0.5193,0.6022,0.6659,0.6979,0.7073,0.7207,0.7337,0.7431,0.7642,0.7804,0.8161,0.8399,0.844,0.8803,0.0,0.0,0.0,0.0,0.0,1.1117,1.1706,1.2305,1.2526,1.2973,1.3564,1.3992,1.4825,1.5802,1.5604,1.5575,1.5645,1.6219,1.6477,1.6637,1.6751,1.6909,1.7279,1.8886,1.9736,2.0442,2.2007,2.3339,2.4279,2.4492,2.4687,2.4776,2.4776,2.4554,0.0,0.0,0.0,2.5556,2.6016,2.6488,2.7004,2.7683,2.7818,2.8152,2.9109,2.9502,3.0297,3.1981,3.324,3.3879,3.359,3.4836,3.5889,3.6297,3.5589,3.4389,3.2643,3.2329,3.1237,2.909,2.9978,3.012,2.9178,2.9976,3.0083,2.9412,2.9412,2.9551,2.9808,2.9874,2.9972,3.0102,3.0176,3.0204,3.0185,3.0218,3.0273,3.0398,3.0402,3.0491,3.061,3.0613,3.0645,3.0706,3.0633,3.0645,3.0711,-0.0978,-0.0846,-0.0522,-0.0175,0.0,0.0,0.0087,0.0443,0.0718,0.0807,0.1173,0.1718,0.2516,0.3293,0.4084,0.4844,0.5783,0.6419,0.65,0.6898,0.7107,0.7202,0.7504,0.7723,0.7804,0.8161,0.8505,0.8649,0.8839,0.0,0.9094,0.0,0.0,0.0,0.0,1.1632,1.2305,1.2526,1.3112,1.4065,1.4982,1.5016,1.4629,0.0,1.5894,1.5439,1.6269,1.6581,1.6627,1.6853,1.7134,1.7556,1.8809,1.9762,2.0667,2.1866,2.2869,2.3615,2.3923,2.4096,2.4255,2.451,2.4498,2.4564,0.0,0.0,0.0,0.0,0.0,0.0,0.0,2.8063,2.8245,2.8711,2.9958,3.1217,3.2265,3.3954,3.5286,3.5795,3.5166,3.4829,3.5257,3.4429,3.3481,3.2658,3.2338,3.1518,2.9934,3.177,3.2004,3.0142,3.0386,3.0172,2.9412,2.9608,2.9754,2.9874,2.9991,3.0083,3.0157,3.0185,3.0199,3.0207,3.0311,3.0406,3.0491,3.0583,3.0633,3.0686,3.0724,3.0762,3.0768,3.0762,3.0781,3.0849,-0.1354,-0.106,-0.0818,-0.0455,-0.0271,-0.018,0.0,0.0367,0.0553,0.054,0.0926,0.1659,0.2827,0.3387,0.4124,0.5226,0.5787,0.6131,0.6321,0.6654,0.693,0.7099,0.748,0.7723,0.7961,0.8618,0.8918,0.8844,0.9329,0.0,0.903,0.0,0.0,0.0,0.0,1.1484,1.2224,1.2753,1.355,1.4553,1.533,1.5428,0.0,1.6218,1.6264,1.5874,1.6467,1.6694,1.6751,1.7078,1.7556,1.8201,1.927,2.0218,2.1121,2.2161,2.2889,2.3451,2.3696,2.3967,2.4193,2.4359,2.4539,2.4766,2.5269,2.5615,2.5999,0.0,2.7132,2.7552,0.0,0.0,2.8273,2.8484,2.9799,3.1052,3.1858,3.3753,3.5179,3.5491,3.5485,3.5498,3.5724,3.4119,3.3303,3.3839,3.3632,3.2716,3.0988,3.3197,3.3136,3.0193,3.1208,3.1104,2.9589,3.0076,3.0217,2.9991,3.0053,3.0132,3.0204,3.0204,3.0221,3.0292,3.0364,3.0462,3.0595,3.0678,3.073,3.0758,3.0794,3.0821,3.0841,3.0841,3.088,3.0899,-0.1391,-0.1269,-0.0933,-0.0559,-0.047,-0.0283,0.0,0.019,0.0379,0.0362,0.0764,0.1602,0.3292,0.3517,0.418,0.5835,0.5878,0.5938,0.6187,0.6453,0.671,0.7,0.7322,0.771,0.8232,0.9094,0.9493,0.9147,0.9848,0.0,0.0,0.0,0.0,0.0,1.0738,1.1484,1.2077,1.3185,1.4201,1.4966,1.5545,1.6044,1.6597,1.6664,1.6648,1.6637,1.6751,1.6864,1.6976,1.7368,1.8104,1.8967,1.9965,2.0841,2.1758,2.2694,2.3216,2.3538,2.3797,2.4051,2.4302,2.4343,2.4605,2.5005,2.5422,2.5908,2.642,2.6872,2.7396,2.7876,2.8146,0.0,2.8335,2.8432,2.9532,3.054,3.1127,3.3018,3.4282,3.4105,3.5286,0.0,3.6789,3.4531,3.3796,3.5578,3.5562,3.4456,3.2128,0.0,3.3985,2.9983,3.2048,3.2126,2.9809,3.0487,3.0591,3.0053,3.0102,3.0147,3.0199,3.0199,3.0273,3.0409,3.0419,3.0527,3.0691,3.0716,3.0747,3.0801,3.0801,3.086,3.0899,3.0888,3.0889,3.0889,-0.1453,-0.1325,-0.1069,-0.0778,-0.0592,-0.0296,0.0,0.0186,0.0364,0.036,0.0637,0.1504,0.3109,0.3437,0.4068,0.5562,0.5769,0.5751,0.5723,0.6275,0.6655,0.6659,0.7242,0.7938,0.8808,0.9369,0.9698,0.9962,1.0135,0.9895,0.0,0.0,0.0,0.0,1.0738,1.1558,1.2372,1.397,1.484,1.5242,1.6486,1.686,1.6631,1.7032,1.6936,1.6627,1.6909,1.7134,1.7423,1.759,1.8483,1.9554,2.0231,2.117,2.2175,2.3127,2.3494,2.3653,2.4024,2.4193,2.4343,2.4508,2.4934,2.5406,2.5872,2.6386,2.6905,2.7307,2.7552,2.7818,2.8146,0.0,0.0,2.881,3.0351,3.1396,3.0798,3.2371,3.3829,3.442,3.2981,3.3304,3.6714,3.5813,3.5504,3.671,3.7187,3.6155,3.328,0.0,3.5403,0.0,3.1767,3.1485,0.0,0.0,3.004,2.994,3.0098,3.0185,3.0207,3.0207,3.0292,3.0491,3.0537,3.062,3.0711,3.0762,3.0816,3.088,3.088,3.0899,3.0884,3.0834,3.0819,3.0825,-0.1519,-0.1466,-0.1295,-0.0897,-0.0703,-0.0502,-0.0099,0.009,0.0168,0.0168,0.0756,0.1623,0.2798,0.3471,0.4237,0.5316,0.5564,0.5568,0.5568,0.6172,0.6753,0.7214,0.7804,0.8571,0.9569,1.0312,1.079,1.0942,1.0852,1.0634,0.0,0.0,0.0,1.0283,1.1312,1.2214,1.3077,1.4394,1.5463,1.641,1.7092,1.7382,1.7255,1.7381,1.7269,1.7078,1.719,1.7634,1.8182,1.8363,1.9178,2.0194,2.1002,2.1894,2.2723,2.3319,2.3581,2.3782,2.4151,2.4359,2.4508,2.4645,2.5075,2.5577,2.6052,2.6522,2.7002,2.7448,2.7719,2.7933,2.8246,2.8626,0.0,0.0,3.0206,3.1092,3.0663,3.1815,3.2874,3.325,3.2255,3.2649,3.5522,3.5338,3.5385,3.6227,3.6907,3.5913,3.2723,0.0,3.5304,0.0,0.0,0.0,3.0487,0.0,3.0877,3.0049,3.0157,3.0199,3.0188,3.0267,3.0389,3.0565,3.0632,3.0686,3.0762,3.0816,3.088,3.0899,3.0905,3.0877,3.0837,3.0813,3.0779,3.0755,-0.1575,-0.16,-0.1415,-0.0909,-0.0808,-0.0606,0.0101,0.0176,0.0236,0.0236,0.0926,0.1773,0.2717,0.3551,0.4345,0.5156,0.5292,0.5428,0.5564,0.6184,0.6912,0.7774,0.8489,0.9417,1.0489,1.1309,1.1809,1.1784,1.1721,0.0,0.0,0.0,0.0,0.0,0.0,0.0,0.0,0.0,1.6219,1.7493,1.7589,1.7757,1.7943,1.7632,1.7481,1.7523,1.7634,1.8236,1.904,1.931,1.9965,2.0828,2.1718,2.2555,2.326,2.3509,2.3754,2.3967,2.4261,2.4508,2.4686,2.4782,2.5246,2.5726,2.6106,2.664,2.7147,2.7509,2.7864,2.8156,2.8412,2.8755,0.0,0.0,0.0,3.0592,3.0424,3.1368,3.2048,3.1879,3.1992,3.2611,3.3944,3.4245,3.4536,3.503,3.5975,3.5323,3.2545,0.0,0.0,0.0,0.0,3.2657,3.1478,0.0,3.1432,3.019,3.0185,3.0207,3.0254,3.0364,3.0492,3.062,3.067,3.0743,3.0841,3.088,3.0886,3.0875,3.0878,3.0832,3.0771,3.075,3.0723,3.0683,-0.1605,-0.1514,-0.1415,-0.1111,-0.0909,-0.0404,0.0606,0.0882,0.1021,0.1021,0.1163,0.1839,0.3291,0.3689,0.4156,0.502,0.5153,0.5223,0.5428,0.6324,0.706,0.7613,0.8811,1.0098,1.15,1.1812,1.2162,1.2479,1.2606,1.2356,0.0,0.0,0.0,0.0,0.0,0.0,0.0,1.6618,1.7394,1.7871,1.7849,1.7976,1.8094,1.766,1.7512,1.7579,1.8061,1.8792,1.9606,2.0319,2.0828,2.1272,2.1894,2.2709,2.3509,2.3855,2.4109,2.4302,2.4508,2.4686,2.4782,2.4782,2.5422,2.6052,2.6193,2.6856,2.7478,2.7587,2.8027,2.8438,2.8626,2.9052,2.9332,0.0,0.0,3.0621,2.9889,3.1128,3.1823,3.111,3.1654,3.2161,3.2311,3.3043,3.3529,3.3583,3.5086,3.5499,3.4392,0.0,0.0,3.3373,3.2751,3.2354,3.2291,3.0988,3.0255,3.0102,3.0166,3.026,3.0381,3.0451,3.0552,3.0682,3.0706,3.0771,3.0899,3.0899,3.0859,3.081,3.0807,3.0774,3.0701,3.0634,3.0616,3.0598,-0.0401,-0.0595,-0.0688,0.0,0.0202,0.049,0.1245,0.1412,0.1646,0.229,0.2415,0.2684,0.3284,0.3892,0.4434,0.4767,0.496,0.5292,0.5771,0.6602,0.7534,0.8636,0.9641,1.0789,1.1939,1.2351,1.2843,1.3431,1.3144,1.3061,0.0,0.0,0.0,0.0,0.0,1.5677,1.6817,1.7453,1.8152,1.8905,1.8385,1.8384,1.8529,1.7855,1.7865,1.8302,1.8518,1.9239,2.0143,2.0408,2.1057,2.1846,2.2495,2.3083,2.3625,2.3925,2.4151,2.4343,2.4645,2.4782,2.4846,2.5169,2.5689,2.6264,2.6556,2.7132,2.7617,2.7795,2.8237,2.8633,2.8785,2.9144,2.9433,2.955,0.0,3.0077,2.9739,3.0246,3.0546,3.0227,3.0452,3.0847,3.1335,3.2142,3.263,3.263,3.5195,3.6117,0.0,0.0,0.0,3.5035,0.0,3.2212,3.3234,3.1699,3.0691,3.0152,3.0267,3.0375,3.0472,3.0579,3.0689,3.0824,3.0824,3.0855,3.0891,3.0859,3.0825,3.0794,3.0749,3.0703,3.0642,3.0607,3.0569,3.055,0.0401,0.0095,0.0,0.0657,0.0849,0.109,0.1683,0.1869,0.2341,0.3284,0.3487,0.3553,0.3553,0.4097,0.4631,0.4815,0.5143,0.5609,0.6292,0.7161,0.8197,0.9378,1.0312,1.1268,1.2257,1.2711,1.323,1.3918,1.3753,1.3924,0.0,0.0,0.0,0.0,1.6268,1.6981,1.8152,1.8287,1.8977,1.9792,1.8895,1.8819,1.9137,1.8306,1.8464,1.9105,1.9251,1.9952,2.0926,2.0941,2.1671,2.2606,2.2878,2.3302,2.3782,2.4067,2.4276,2.4523,2.4766,2.4862,2.4966,2.5406,2.5855,2.6317,2.679,2.7272,2.7748,2.8119,2.85,2.8827,2.8997,2.9272,2.9531,2.9683,0.0,0.0,2.9701,2.9889,2.9964,2.972,3.034,3.0715,3.0565,3.173,3.2408,3.2182,3.4941,3.5962,0.0,0.0,0.0,0.0,0.0,0.0,3.3832,3.2087,3.086,3.0254,3.0389,3.0482,3.0554,3.0709,3.0813,3.0899,3.0899,3.0892,3.0878,3.0829,3.0784,3.0734,3.069,3.0627,3.0559,3.0568,3.0539,3.05,0.0505,0.0533,0.0471,0.0471,0.0708,0.11,0.1725,0.23,0.2947,0.3689,0.4097,0.43,0.43,0.43,0.4613,0.5349,0.569,0.6167,0.6837,0.8035,0.8908,0.9358,1.0428,1.1469,1.2458,1.2855,1.3294,1.3805,1.4638,0.0,1.5115,0.0,1.6595,1.7986,1.7645,1.8052,1.9075,1.9407,1.9878,2.0322,1.9276,1.9298,1.9785,1.9093,1.9198,1.985,2.022,2.114,2.2081,2.2221,2.286,2.349,2.2877,2.3299,2.4067,2.4416,2.462,2.4822,2.4966,2.5005,2.5068,2.5406,2.5855,2.6317,2.679,2.7365,2.7989,2.8569,2.8785,2.8997,2.9332,2.955,2.9701,2.9701,0.0,0.0,2.9701,3.0377,3.0603,2.9795,3.186,3.2405,2.9945,3.1996,3.3166,3.2355,3.4054,0.0,0.0,0.0,0.0,3.6178,3.3843,0.0,3.3987,3.1623,3.0417,3.0398,3.0537,3.062,3.0706,3.084,3.0899,3.0899,3.0899,3.0859,3.0794,3.0797,3.0723,3.0598,3.0598,3.0568,3.0491,3.049,3.0499,3.0499,0.1648,0.1325,0.1045,0.1643,0.1813,0.1983,0.241,0.2614,0.3155,0.4209,0.4452,0.4716,0.5355,0.5087,0.5203,0.6032,0.6298,0.6833,0.0,0.8361,0.9052,0.9781,1.0415,1.1245,1.2114,1.2613,1.3271,1.3992,0.0,0.0,0.0,1.7025,1.7735,1.8536,1.8584,1.8977,1.9671,1.9998,2.0083,2.0046,1.9689,1.9622,1.9568,1.9102,1.95,2.0359,2.051,2.1369,2.2441,2.216,2.2834,2.3761,2.3275,2.36,2.4276,2.4523,2.4686,2.4712,2.4342,2.4602,2.5035,2.5264,2.5828,2.6505,2.7227,2.773,2.8146,2.8432,2.8779,2.9064,2.9169,2.9472,2.9701,2.9701,2.9701,0.0,2.9701,2.9927,2.9983,2.972,3.0396,3.0565,2.9777,3.0922,3.1844,3.2126,3.4356,0.0,0.0,0.0,0.0,0.0,3.4232,0.0,3.4068,3.216,3.0992,3.0537,3.0639,3.0735,3.0843,3.0875,3.0899,3.0901,3.0859,3.0829,3.0797,3.0711,3.0646,3.0598,3.0549,3.0519,3.049,3.0439,3.0364,3.0292,0.214,0.1841,0.1698,0.2544,0.2679,0.282,0.3293,0.3496,0.3823,0.4599,0.4776,0.5173,0.5881,0.5745,0.0,0.6441,0.6837,0.7437,0.8257,0.8846,0.9466,1.0312,1.073,1.1539,1.2755,1.3188,0.0,1.4903,1.5571,1.641,1.7478,1.783,1.8321,1.8942,1.9075,1.9539,2.0129,2.02,2.0335,2.0305,1.9948,1.9856,1.9885,1.971,2.0194,2.114,2.1321,2.2114,2.3054,2.2789,2.3308,2.4074,2.385,2.4101,2.4461,2.4333,2.4414,2.4428,2.3792,2.426,2.4996,2.5212,2.595,2.6856,2.7642,2.8007,2.8255,2.8518,2.8874,2.9126,2.9209,2.9472,2.9701,2.9701,2.9701,2.9701,2.9701,2.9701,2.9701,2.9701,2.9964,3.0021,2.972,3.0753,3.1374,3.128,3.3696,0.0,0.0,0.0,3.6269,3.6653,3.4458,3.3402,3.3647,3.2394,3.1377,3.0646,3.0735,3.0817,3.0899,3.0899,3.0889,3.0859,3.0825,3.0768,3.0714,3.0617,3.0588,3.0558,3.049,3.046,3.0458,3.034,3.0235,3.0155,0.2153,0.2221,0.2485,0.3209,0.334,0.3542,0.4154,0.4558,0.4755,0.4803,0.5203,0.5609,0.6075,0.6346,0.6601,0.6767,0.0,0.0,0.8576,0.935,1.0168,1.1017,1.1226,1.2187,1.404,1.4329,1.5059,1.6437,1.701,1.7579,1.8144,1.8144,1.8539,1.9198,1.9341,1.9747,2.0442,2.0245,2.0511,2.0997,2.0145,2.0153,2.0605,2.0667,2.1224,2.2035,2.2558,2.3201,2.3839,2.3982,2.4151,2.4385,2.4589,2.4726,2.4697,2.4092,2.4078,2.4106,2.3387,2.4064,2.5041,2.5329,2.6294,2.7338,2.8045,2.8201,2.8335,2.8791,2.8989,2.9148,2.9332,2.955,2.9701,2.9701,2.9701,2.9701,2.9701,2.9701,2.9701,2.9701,0.0,0.0,2.9758,3.1205,3.1637,0.0,0.0,0.0,0.0,0.0,3.6804,3.5166,3.4592,3.3839,3.2933,3.2353,3.1626,3.0716,3.0843,3.0899,3.0899,3.0903,3.0859,3.0802,3.0789,3.0714,3.0588,3.0598,3.0539,3.0481,3.0419,3.0386,3.0364,3.0177,3.0095,3.0052,0.0,0.0,0.3489,0.362,0.3749,0.3882,0.3889,0.4082,0.4406,0.5074,0.5394,0.5858,0.6613,0.7269,0.7652,0.7837,0.7907,0.8366,0.9396,0.9716,1.0345,1.1545,1.1779,1.2414,1.3646,1.4413,1.5764,1.7726,1.8065,1.867,1.9607,1.9441,1.9649,2.0107,2.0129,2.0399,2.0805,2.0915,2.095,2.081,2.1053,2.0992,2.0793,2.1396,2.2067,2.2694,2.286,2.3493,2.4177,2.4234,2.4441,2.4742,2.491,2.5068,2.5146,2.4971,2.5,2.4916,2.4325,2.4938,2.5723,2.5594,2.6671,2.7911,2.8273,2.8353,2.8406,2.8637,2.8897,2.9107,2.9169,2.9472,2.9701,2.9701,2.9701,2.9701,2.9701,2.9701,2.9701,0.0,2.987,2.9908,2.972,3.0622,3.1638,0.0,0.0,3.4887,3.5416,3.638,3.6426,3.5364,3.5283,3.4574,3.3145,3.2999,3.2226,3.0846,3.0875,3.0899,3.0899,3.0857,3.0817,3.0793,3.0694,3.0636,3.0588,3.0539,3.0479,3.0409,3.0398,3.0309,3.0163,3.0122,2.9943,2.9715,0.362,0.3689,0.3823,0.422,0.4284,0.4483,0.4688,0.4815,0.5074,0.5609,0.58,0.6195,0.7068,0.7587,0.8042,0.842,0.8683,0.9134,0.9831,1.0091,1.073,1.1864,1.2212,1.2919,1.4176,1.5132,1.658,1.8499,1.8957,1.9541,2.0193,2.0386,2.0707,2.1164,2.082,2.0977,2.1412,2.1214,2.1107,2.1167,2.157,2.1591,2.1465,2.2146,2.2756,2.3246,2.3493,2.3979,2.4426,2.4523,2.4726,2.4966,2.5162,2.5378,2.5642,2.5717,2.5526,2.5102,2.4507,2.5196,2.6215,2.6605,2.7414,2.8136,2.8353,2.8398,2.8458,2.8687,2.892,2.9126,2.923,2.9492,2.9701,2.9701,2.9701,2.9701,2.9701,2.9701,2.9851,3.0302,2.9964,3.002,3.0864,3.1318,3.1977,3.3045,3.4312,0.0,3.5366,3.592,3.5975,3.5419,3.5591,3.4894,3.3231,3.2504,3.1734,3.0899,3.0899,3.0899,3.0901,3.0837,3.0773,3.0752,3.0636,3.0577,3.0539,3.0479,3.0428,3.0386,3.0297,3.019,3.0075,2.9927,2.9731,2.9533,0.3685,0.3754,0.402,0.4749,0.5014,0.5282,0.5885,0.6083,0.6214,0.6474,0.6474,0.6736,0.7521,0.7777,0.8161,0.8737,0.9512,0.9964,1.0078,1.0471,1.1178,1.2112,1.2589,1.3517,1.4964,1.6143,1.7516,1.9121,1.9966,2.0537,2.0835,2.1318,2.183,2.2323,2.1669,2.1724,2.2184,2.1565,2.1485,2.1792,2.2007,2.2193,2.236,2.298,2.3406,2.3782,2.4219,2.4467,2.463,2.4806,2.4966,2.5185,2.5394,2.5701,2.6085,2.6349,2.6,2.5429,2.4758,2.5521,2.6784,2.7809,2.8136,2.8273,2.8406,2.8458,2.8562,2.8839,2.9012,2.9209,2.9353,2.955,2.9701,2.9701,2.9719,2.9738,2.9738,0.0,3.0129,3.103,3.0448,3.0634,3.2286,3.2519,3.2664,3.2905,3.4347,3.4957,3.4318,3.5059,3.5389,3.5083,3.5438,3.4806,3.3053,3.1601,3.0899,3.0901,3.0899,3.0888,3.0878,3.082,3.0741,3.0685,3.0607,3.0558,3.0481,3.0428,3.0375,3.0352,3.0163,3.0061,2.9988,2.9678,2.9533,2.9456,0.4821,0.4957,0.516,0.5292,0.5885,0.6404,0.6334,0.6924,0.7512,0.7702,0.7717,0.7787,0.8042,0.8495,0.8947,0.9326,1.004,1.0478,1.0395,1.0521,1.1156,1.2613,1.2842,1.3459,1.4561,1.6698,1.8678,2.0504,2.1227,2.2113,2.3053,2.2798,2.2955,2.3551,2.3352,2.3251,2.3194,2.3255,2.3041,2.27,2.291,2.3084,2.326,2.3852,2.4219,2.4359,2.4508,2.4645,2.4806,2.4989,2.5162,2.5355,2.5974,2.6173,2.6349,2.6891,2.7158,2.7143,2.6822,2.7122,2.7706,2.821,2.8353,2.8406,2.8536,2.8712,2.8858,2.8905,2.9141,2.9353,2.9392,2.955,2.9701,2.9701,2.9787,2.9867,2.9855,0.0,3.0428,3.1269,3.1264,3.1613,3.256,3.3312,3.3782,3.3878,3.4801,3.5039,3.4268,3.4506,3.433,3.3569,3.4417,3.4035,3.2296,3.1365,3.0903,3.0892,3.0903,3.0875,3.0804,3.0755,3.069,3.0607,3.0528,3.0469,3.0409,3.0402,3.0292,3.015,3.0122,2.9927,2.9662,2.9551,2.9435,2.9307,0.4957,0.509,0.5289,0.5488,0.5951,0.6346,0.6597,0.699,0.7381,0.7772,0.7652,0.7852,0.8565,0.8689,0.9011,0.9716,1.011,1.0364,1.0541,1.0912,1.1421,1.212,1.2781,1.3996,1.5666,1.7338,1.8938,2.059,2.1729,2.2725,2.3564,2.3489,2.3804,2.4338,2.3649,2.3334,2.3395,2.3342,2.3263,2.3207,2.3598,2.3852,2.4036,2.4343,2.4589,2.4846,2.4871,2.513,2.546,2.5535,2.5795,2.6101,2.6418,2.6741,2.7051,2.7321,2.7535,2.7701,2.773,2.7933,2.8201,2.8492,2.8612,2.8694,2.8827,2.8943,2.9052,2.916,2.9289,2.9433,2.955,2.9664,2.9737,2.9737,2.9888,0.0,3.0,3.0128,3.0522,3.1405,3.1104,3.1501,3.3327,3.3455,3.384,3.4874,3.4894,3.4734,3.4429,3.4061,3.3698,3.3326,3.329,3.2904,3.2109,3.1309,3.0901,3.0907,3.0864,3.082,3.08,3.0692,3.0621,3.0597,3.0528,3.0469,3.0386,3.0292,3.0182,3.0075,2.9861,2.9677,2.9533,2.9395,2.9289,2.9175,0.627,0.6718,0.6742,0.5905,0.6971,0.7695,0.7149,0.719,0.7451,0.7907,0.7722,0.7857,0.8823,0.9414,1.0071,1.0865,1.1701,1.2307,1.2653,1.3208,1.2919,1.1524,1.2739,1.4559,1.6868,1.8233,1.9571,2.0921,2.2494,2.3449,2.3728,2.4149,2.4537,2.4958,2.395,2.3617,2.3789,2.3613,2.3584,2.3681,2.4245,2.4508,2.4645,2.4751,2.5013,2.5323,2.5323,2.5668,2.6158,2.6193,2.6488,2.6791,2.6906,2.7258,2.7654,2.776,2.7943,2.8093,2.8228,2.838,2.8562,2.8743,2.8868,2.903,2.9129,2.9193,2.9275,2.9434,2.9493,2.9551,2.9719,2.979,2.9823,2.9857,0.0,3.0161,3.0174,3.0253,3.0645,3.1557,3.1226,3.1796,3.4055,3.3647,3.3873,3.5301,3.4623,3.4107,3.4004,3.3379,3.2946,3.2798,3.2341,3.2012,3.1816,3.1182,3.0874,3.0876,3.0803,3.0759,3.0752,3.0646,3.0588,3.0577,3.0477,3.0394,3.0309,3.0136,3.0037,2.9958,2.9624,2.9476,2.9416,2.9246,2.9134,2.9108,1.0615,1.1959,1.1226,0.7076,1.0471,1.236,0.8117,0.7987,0.8447,0.87,0.8511,0.8511,0.877,1.1584,1.3499,1.3695,1.6712,1.8716,1.892,1.9112,1.6798,1.1345,1.29,1.4935,1.7183,1.9595,2.1344,2.2408,2.4416,2.5066,2.4502,2.5005,2.5243,2.5265,2.5177,2.5073,2.4969,2.5083,2.4844,2.4441,2.4719,2.4918,2.5068,2.5262,2.5589,2.5924,2.5924,2.6212,2.659,2.679,2.6935,2.7141,2.7577,2.776,2.7847,2.8228,2.8608,2.8832,2.8466,2.8612,2.8887,2.8966,2.9144,2.9293,2.9358,2.9533,2.9662,2.9662,2.9787,2.9855,2.9872,2.9888,2.9921,3.0064,0.0,0.0,3.037,3.0537,3.0979,3.1778,3.2582,3.3452,3.4384,3.4423,3.4442,3.4587,3.3829,3.3036,3.224,3.2191,3.1828,3.1012,3.1708,3.1738,3.0997,3.0878,3.0801,3.0807,3.0735,3.0678,3.0617,3.0598,3.0577,3.0499,3.0311,3.0182,3.0122,2.9962,2.9801,2.9626,2.9533,2.9415,2.9304,2.9175,2.9089,2.9044,1.5551,1.6322,1.541,1.1531,1.274,1.2814,0.845,1.0116,1.1907,1.1962,1.4123,1.5604,1.5332,1.6686,1.7534,1.7368,1.8504,1.9363,1.9638,1.9538,1.8783,1.7188,1.6609,1.7966,2.1484,2.0964,2.1984,2.4717,2.5349,2.5503,2.5155,2.5109,2.5213,2.5332,2.4893,2.4833,2.5086,2.5168,2.5147,2.5068,2.5246,2.546,2.5684,2.5852,2.6158,2.6556,2.6673,2.6967,2.7378,2.7409,2.7636,2.7869,2.8045,2.8281,2.8445,2.8282,2.8313,2.8304,2.7635,2.8329,2.9124,2.8743,2.9101,2.9289,2.8363,2.9032,2.9687,2.9174,2.9592,3.0011,3.0009,3.0125,3.0234,3.0287,0.0,3.0494,3.0529,3.0652,3.0884,3.117,3.1526,3.2071,3.2927,3.297,3.3161,3.3726,3.2966,3.2365,3.209,3.1573,3.1131,3.08,3.1112,3.1152,3.084,3.0772,3.0747,3.0741,3.0668,3.0621,3.0598,3.0549,3.0458,3.0304,3.0241,3.0114,2.9962,2.9731,2.9607,2.9533,2.9334,2.9225,2.9152,2.8887,2.8791,2.8725,2.0436,2.1345,2.0593,1.6702,1.7434,1.7081,1.2826,1.4406,1.6033,1.5743,1.8404,2.0107,1.9465,2.0425,2.1006,2.08,2.1252,2.1648,2.191,2.2034,2.1715,2.0862,1.9735,2.0838,2.455,2.3383,2.4003,2.6479,2.6793,2.6547,2.5775,2.5723,2.5767,2.579,2.5156,2.5082,2.5465,2.5346,2.5422,2.5705,2.5852,2.6104,2.6351,2.6539,2.6871,2.7238,2.7344,2.766,2.8045,2.8045,2.8273,2.8533,2.8533,2.8766,2.8944,2.8313,2.8185,2.8052,2.7265,2.7935,2.8738,2.819,2.8768,2.919,2.8141,2.9032,2.9894,2.935,2.9755,3.0234,3.0229,3.0344,3.0443,3.0463,3.0549,3.0617,3.0624,3.0704,3.0774,3.0774,3.1008,3.1418,3.1999,3.2037,3.2241,3.2846,3.2077,3.1618,3.166,3.1089,3.0767,3.0762,3.0746,3.0735,3.0735,3.0696,3.0675,3.0675,3.0617,3.0598,3.0558,3.0469,3.0321,3.0182,3.0071,2.9931,2.9786,2.9533,2.9435,2.9415,2.9181,2.9044,2.8952,2.8676,2.8533,2.8404,2.5103,2.7248,2.694,2.2268,2.5082,2.6449,2.1882,2.098,2.0553,1.9745,2.0413,2.0637,1.9766,2.2114,2.3788,2.3847,2.5602,2.6742,2.6804,2.768,2.6042,2.1168,2.1642,2.3172,2.5604,2.7106,2.7752,2.7514,2.9059,2.8622,2.6439,2.7025,2.7097,2.67,2.6216,2.6127,2.6266,2.5872,2.5928,2.6335,2.6539,2.6788,2.7141,2.7387,2.766,2.7926,2.7982,2.8246,2.8612,2.8612,2.8845,2.9086,2.9126,2.9237,2.9249,2.8447,2.8346,2.8342,2.7589,2.7527,2.7625,2.7357,2.8099,2.8916,2.8983,2.9698,3.0383,3.0383,3.0452,3.0502,3.0502,3.0502,3.0521,3.058,3.0594,3.0618,3.0697,3.0699,3.0699,3.0699,3.1459,3.1984,3.1984,3.1984,3.1984,3.1984,3.1187,3.0702,3.0699,3.0699,3.0704,3.0706,3.0633,3.0605,3.0602,3.0605,3.061,3.0598,3.0598,3.0559,3.0491,3.0278,3.019,3.0169,2.9767,2.9608,2.9589,2.937,2.9302,2.928,2.9152,2.8929,2.8694,2.8601,2.836,2.8075,3.0848,3.1259,3.004,2.6504,2.6631,2.5824,2.1698,2.2342,2.3379,2.3507,2.6002,2.7431,2.6517,2.7675,2.8346,2.791,2.78,2.7569,2.7114,2.8048,2.7972,2.6516,2.5565,2.6749,3.0292,2.8009,2.8,3.0522,2.9672,2.8592,2.74,2.7574,2.7517,2.7235,2.6926,2.696,2.7261,2.6994,2.7012,2.7217,2.7339,2.7507,2.7747,2.7918,2.8147,2.8414,2.8518,2.8731,2.8948,2.8948,2.9129,2.9399,2.9587,2.9693,2.9609,2.8965,2.8406,2.7829,2.7056,2.645,2.6136,2.668,2.752,2.8063,2.7507,2.8509,2.9571,2.9611,3.0134,3.0574,3.0638,3.063,3.0644,3.0661,3.068,3.0678,3.0708,3.0706,3.0706,3.0706,3.0923,3.1081,3.1081,3.1089,3.1097,3.1097,3.0841,3.0701,3.0706,3.0689,3.0691,3.0698,3.0599,3.053,3.053,3.0567,3.0549,3.0449,3.0417,3.0328,3.0215,3.0066,2.9912,2.9767,2.9644,2.9532,2.937,2.9265,2.9089,2.8863,2.8791,2.8558,2.8255,2.8055,2.7915,2.7771,3.3016,3.312,3.2386,3.0545,2.9555,2.8354,2.6335,2.7109,2.7929,2.7957,3.0204,3.1221,2.9682,3.0001,3.0021,2.9303,2.8455,2.7641,2.6877,2.8113,2.8899,2.8919,2.8363,2.9291,3.1953,2.9667,2.9436,3.143,3.0362,2.9324,2.8355,2.839,2.8319,2.8156,2.785,2.7784,2.7966,2.7723,2.777,2.7929,2.7939,2.8112,2.836,2.8456,2.8633,2.8845,2.8962,2.9123,2.9316,2.9316,2.9476,2.9713,2.9977,3.0071,2.9932,2.927,2.872,2.8188,2.7402,2.6555,2.6013,2.6553,2.7074,2.7412,2.7259,2.8286,2.9371,2.9742,3.025,3.0644,3.0683,3.0693,3.071,3.0704,3.07,3.0696,3.0701,3.0701,3.0677,3.0637,3.0617,3.0611,3.0568,3.0581,3.0579,3.0579,3.0571,3.0537,3.0537,3.0539,3.054,3.054,3.046,3.0417,3.0417,3.0458,3.0436,3.0359,3.0279,3.0169,3.0094,2.9918,2.975,2.9608,2.9551,2.9451,2.9283,2.9075,2.8892,2.8669,2.8482,2.8201,2.7926,2.7771,2.7612,2.7509,3.2521,3.3198,3.3729,3.3737,3.2878,3.2486,3.343,3.3241,3.2784,3.2184,3.2657,3.2203,2.9956,2.9683,2.9371,2.8673,2.7913,2.7108,2.6255,2.7911,2.8929,2.9002,3.0034,3.0832,3.1325,3.1523,3.1402,3.0986,3.1021,3.0453,2.9252,2.9342,2.9314,2.9222,2.8837,2.8603,2.8453,2.8219,2.8246,2.8471,2.8402,2.859,2.8929,2.8934,2.9052,2.923,2.9314,2.9474,2.9644,2.9662,2.9782,2.9973,3.024,3.0312,3.019,2.9506,2.9262,2.9068,2.8404,2.7528,2.6806,2.6809,2.6744,2.6909,2.7806,2.8669,2.955,3.0425,3.066,3.0693,3.0689,3.0685,3.0672,3.0675,3.0664,3.0639,3.0656,3.0642,3.0599,3.0481,3.0472,3.0434,3.0362,3.0351,3.0381,3.0392,3.0317,3.0283,3.0283,3.0279,3.0279,3.0266,3.0266,3.0266,3.0253,3.0253,3.0253,3.0279,3.0142,3.0071,3.0064,2.9805,2.9626,2.9551,2.9431,2.9304,2.9218,2.8832,2.8664,2.8576,2.821,2.7897,2.7672,2.7672,2.7478,2.725,3.2062,3.1975,3.177,3.2449,3.1808,3.1543,3.2541,3.1484,3.0767,3.1345,3.0349,2.9425,2.8998,2.8288,2.7834,2.7759,2.7034,2.6257,2.5482,2.7124,2.8173,2.8229,2.9819,3.073,3.0855,3.0897,3.1142,3.1603,3.0961,3.0351,2.9829,2.9912,2.9782,2.9513,2.9419,2.928,2.9104,2.9052,2.9026,2.9026,2.9007,2.9048,2.9156,2.9254,2.9318,2.9378,2.9551,2.9748,2.9931,3.009,3.0188,3.0241,3.0414,3.0458,3.0444,3.0328,2.9844,2.9311,2.9168,2.7984,2.6807,2.6873,2.637,2.6256,2.7744,2.8242,2.8823,3.0369,3.0647,3.0626,3.0614,3.0528,3.0472,3.0472,3.034,3.0271,3.0371,3.026,3.0157,3.0177,3.0144,3.0103,3.0075,3.0095,3.015,3.0311,3.0222,3.0144,3.0144,3.0228,3.0221,3.0071,3.0079,3.0,2.9899,2.9857,2.9943,3.0138,2.9946,2.9836,2.9792,2.955,2.937,2.9203,2.9178,2.9044,2.8834,2.8626,2.8352,2.8065,2.784,2.7612,2.7407,2.7407,2.7279,2.707,3.1035,3.0892,3.0785,3.167,3.1101,3.085,3.1787,3.1092,3.0677,3.1213,3.007,2.9109,2.8825,2.8023,2.7338,2.7004,2.7363,2.7071,2.5899,2.7846,2.8925,2.8631,2.9931,3.0685,3.0746,3.0757,3.0937,3.1329,3.0838,3.0477,3.0298,3.0256,3.0092,2.9817,2.9742,2.9623,2.9476,2.9392,2.9353,2.9397,2.9355,2.9397,2.9495,2.9533,2.9606,2.9695,2.9815,2.9977,3.018,3.0337,3.0407,3.04,3.0506,3.0548,3.0565,3.0625,3.0355,3.001,3.0018,2.9048,2.8043,2.8032,2.7326,2.6853,2.788,2.8081,2.8521,3.0167,3.0452,3.0394,3.0321,3.026,3.0222,3.0222,3.0122,3.0032,3.0018,2.9924,2.9826,2.9687,2.9636,2.9622,2.9569,2.957,2.9624,2.9712,2.9658,2.9604,2.9604,2.9695,2.9677,2.9569,2.957,2.9551,2.9476,2.9435,2.9494,2.9625,2.9551,2.9494,2.9453,2.9225,2.9067,2.8957,2.8957,2.8815,2.8594,2.837,2.8083,2.7806,2.7954,2.7684,2.7287,2.8027,2.8066,2.767,3.0049,3.0122,3.0331,3.1047,3.0585,3.0338,3.1073,3.1074,3.1004,3.0971,3.0148,2.9296,2.8536,2.774,2.6962,2.6249,2.7644,2.7994,2.6619,2.8775,2.9866,2.9321,3.0139,3.0664,3.0774,3.0789,3.0819,3.0811,3.0743,3.0671,3.0615,3.0506,3.0346,3.0136,2.998,2.9836,2.9761,2.9588,2.9588,2.9657,2.9605,2.9693,2.9823,2.9796,2.9896,3.0052,3.0089,3.0203,3.0379,3.0479,3.051,3.0543,3.0598,3.0613,3.0626,3.0681,3.0683,3.0675,3.0682,3.0012,2.9327,2.9254,2.833,2.7536,2.7892,2.8047,2.8516,2.9953,3.019,3.007,2.992,2.9858,2.9826,2.981,2.9777,2.9691,2.953,2.9476,2.9364,2.9147,2.9105,2.9101,2.9064,2.906,2.906,2.9104,2.9064,2.9064,2.9064,2.9086,2.9064,2.906,2.906,2.9064,2.906,2.906,2.906,2.906,2.9079,2.9082,2.9126,2.8915,2.8773,2.8767,2.8767,2.8619,2.8388,2.8027,2.7754,2.7622,2.8075,2.7706,2.7077,2.8423,2.8743,2.8378,2.9889,3.019,3.0214,3.0261,3.0185,3.0132,3.027,3.0251,3.0018,2.9327,2.8413,2.7561,2.6829,2.5983,2.5423,2.5382,2.6278,2.6772,2.6606,2.8324,2.9321,2.9226,3.0156,3.0691,3.0709,3.0771,3.0841,3.0888,3.0817,3.076,3.0699,3.0665,3.0555,3.0356,3.0326,3.0221,3.0036,3.0013,2.9971,2.9956,2.9931,2.995,2.9994,3.0084,3.0144,3.0196,3.0434,3.0543,3.0556,3.0576,3.0618,3.0665,3.0684,3.0698,3.0682,3.0708,3.0658,3.0616,3.0608,2.9852,2.9053,2.8969,2.7663,2.6591,2.7323,2.806,2.8874,2.9846,2.9908,2.972,2.9507,2.9289,2.9109,2.8987,2.8819,2.8717,2.8732,2.8603,2.8567,2.8753,2.8814,2.8879,2.8911,2.8855,2.892,2.9104,2.8997,2.8929,2.8929,2.9042,2.9016,2.8845,2.8902,2.8902,2.8845,2.8845,2.8845,2.8845,2.8676,2.8731,2.8952,2.8827,2.8718,2.8543,2.8543,2.8362,2.8025,2.7577,2.7303,2.7186,2.752,2.7054,2.631,2.6862,2.7791,2.8591,2.857,2.907,2.956,3.0032,3.0123,3.0157,3.0171,2.9708,2.9275,2.8935,2.7651,2.6844,2.7045,2.6759,2.6407,2.6025,2.719,2.7984,2.8056,2.9184,2.989,2.9922,3.0344,3.0607,3.0644,3.0678,3.0721,3.0794,3.0837,3.0838,3.0817,3.076,3.0708,3.0617,3.0502,3.0414,3.0316,3.0208,3.019,3.022,3.0215,3.0267,3.0337,3.0395,3.0423,3.0444,3.0562,3.0608,3.0603,3.0606,3.0615,3.0632,3.0636,3.0637,3.0633,3.0649,3.0548,3.0407,3.0343,2.9888,2.9425,2.9349,2.8542,2.7754,2.7678,2.7773,2.7919,2.8107,2.8297,2.838,2.819,2.8398,2.8585,2.8537,2.8467,2.8358,2.8262,2.8192,2.8129,2.8139,2.8174,2.8129,2.8021,2.7984,2.7929,2.7885,2.7802,2.7791,2.7791,2.783,2.7819,2.7741,2.778,2.778,2.7741,2.7741,2.7741,2.7741,2.766,2.8103,2.9007,2.8647,2.8443,2.837,2.8074,2.7707,2.7289,2.7068,2.6873,2.6793,2.7601,2.807,2.815,2.7612,2.8067,2.8866]},{"header":{"parameterUnit":"m.s-1","parameterCategory":1,"la1":30.6,"la2":28.766,"lo1":-90.7593,"lo2":-88.6598,"dy":0.0162,"dx":0.0183,"nx":116,"ny":114,"refTime":"2023-08-14T12:00:00:Z","depth":0,"parameterNumber":3,"parameterNumberName":"V-component_of_WINDS"},"data":[0.0,0.0,0.0,0.0,0.0,0.0,0.0,0.0,0.0,0.0,0.0,0.0,0.0,0.0,0.0,0.0,0.0,0.0,0.0,0.0,0.0,0.0,0.0,0.0,0.0,0.0,0.0,0.0,0.0,0.0,0.0,0.0,0.0,0.0,0.0,0.0,0.0,0.0,0.0,0.0,0.0,0.0,0.0,0.0,0.0,0.0,0.0,0.0,0.0,0.0,0.0,0.0,0.0,0.0,0.0,0.0,0.0,0.0,0.0,0.0,0.0,0.0,0.0,0.0,0.0,0.0,0.0,0.0,0.0,0.0,0.0,0.0,0.0,0.0,0.0,0.0,0.0,0.0,0.0,0.0,0.0,0.0,0.0,0.0,0.0,0.0,0.0,0.0,0.0,0.0,0.0,0.0,0.0,0.0,0.0,0.0,0.0,0.0,0.0,0.0,0.0,0.0,0.0,0.0,0.0,0.0,0.0,0.0,0.0,0.0,0.0,0.0,0.0,0.0,0.0,0.0,0.0,0.0,0.0,0.0,0.0,0.0,0.0,0.0,0.0,0.0,0.0,0.0,0.0,0.0,0.0,0.0,0.0,0.0,0.0,0.0,0.0,0.0,0.0,0.0,0.0,0.0,0.0,0.0,0.0,0.0,0.0,0.0,0.0,0.0,0.0,0.0,0.0,0.0,0.0,0.0,0.0,0.0,0.0,0.0,0.0,0.0,0.0,0.0,0.0,0.0,0.0,0.0,0.0,0.0,0.0,0.0,0.0,0.0,0.0,0.0,0.0,0.0,0.0,0.0,0.0,0.0,0.0,0.0,0.0,0.0,0.0,0.0,0.0,0.0,0.0,0.0,0.0,0.0,0.0,0.0,0.0,0.0,0.0,0.0,0.0,0.0,0.0,0.0,0.0,0.0,0.0,0.0,0.0,0.0,0.0,0.0,0.0,0.0,0.0,0.0,0.0,0.0,0.0,0.0,0.0,0.0,0.0,0.0,0.0,0.0,0.0,0.0,0.0,0.0,0.0,0.0,0.0,0.0,0.0,0.0,0.0,0.0,0.0,0.0,0.0,0.0,0.0,0.0,0.0,0.0,0.0,0.0,0.0,0.0,0.0,0.0,0.0,0.0,0.0,0.0,0.0,0.0,0.0,0.0,0.0,0.0,0.0,0.0,0.0,0.0,0.0,0.0,0.0,0.0,0.0,0.0,0.0,0.0,0.0,0.0,0.0,0.0,0.0,0.0,0.0,0.0,0.0,0.0,0.0,0.0,0.0,0.0,0.0,0.0,0.0,0.0,0.0,0.0,0.0,0.0,0.0,0.0,0.0,0.0,0.0,0.0,0.0,0.0,0.0,0.0,0.0,0.0,0.0,0.0,0.0,0.0,0.0,0.0,0.0,0.0,0.0,0.0,0.0,0.0,0.0,0.0,0.0,0.0,0.0,0.0,0.0,0.0,0.0,0.0,0.0,0.0,0.0,0.0,0.0,0.0,0.0,0.0,0.0,0.0,0.0,0.0,0.0,0.0,0.0,0.0,0.0,0.0,0.0,0.0,0.0,0.0,0.0,0.0,0.0,0.0,0.0,0.0,0.0,0.0,0.0,0.0,0.0,0.0,0.0,0.0,0.0,0.0,0.0,0.0,0.0,0.0,0.0,0.0,0.0,0.0,0.0,0.0,0.0,0.0,0.0,0.0,0.0,0.0,0.0,0.0,0.0,0.0,0.0,0.0,0.0,0.0,0.0,0.0,0.0,0.0,0.0,0.0,0.0,0.0,0.0,0.0,0.0,0.0,0.0,0.0,0.0,0.0,0.0,0.0,0.0,0.0,0.0,0.0,0.0,0.0,0.0,0.0,0.0,0.0,0.0,0.0,0.0,0.0,0.0,0.0,0.0,0.0,0.0,0.0,0.0,0.0,0.0,0.0,0.0,0.0,0.0,0.0,0.0,0.0,0.0,0.0,0.0,0.0,0.0,0.0,0.0,0.0,0.0,0.0,0.0,0.0,0.0,0.0,0.0,0.0,0.0,0.0,0.0,0.0,0.0,0.0,0.0,0.0,0.0,0.0,0.0,0.0,0.0,0.0,0.0,0.0,0.0,0.0,0.0,0.0,0.0,0.0,0.0,0.0,0.0,0.0,0.0,0.0,0.0,0.0,0.0,0.0,0.0,0.0,0.0,0.0,0.0,0.0,0.0,0.0,0.0,0.0,0.0,0.0,0.0,0.0,0.0,0.0,0.0,0.0,0.0,0.0,0.0,0.0,0.0,0.0,0.0,0.0,0.0,0.0,0.0,0.0,0.0,0.0,0.0,0.0,0.0,0.0,0.0,0.0,0.0,0.0,0.0,0.0,0.0,0.0,0.0,0.0,0.0,0.0,0.0,0.0,0.0,0.0,0.0,0.0,0.0,0.0,0.0,0.0,0.0,0.0,0.0,0.0,0.0,0.0,0.0,0.0,0.0,0.0,0.0,0.0,0.0,0.0,0.0,0.0,0.0,0.0,0.0,0.0,0.0,0.0,0.0,0.0,0.0,0.0,0.0,0.0,0.0,0.0,0.0,0.0,0.0,0.0,0.0,0.0,0.0,0.0,0.0,0.0,0.0,0.0,0.0,0.0,0.0,0.0,0.0,0.0,0.0,0.0,0.0,0.0,0.0,0.0,0.0,0.0,0.0,0.0,0.0,0.0,0.0,0.0,0.0,0.0,0.0,0.0,0.0,0.0,0.0,0.0,0.0,0.0,0.0,0.0,0.0,0.0,0.0,0.0,0.0,0.0,0.0,0.0,0.0,0.0,0.0,0.0,0.0,0.0,0.0,0.0,0.0,0.0,0.0,0.0,0.0,0.0,0.0,0.0,0.0,0.0,0.0,0.0,0.0,0.0,0.0,0.0,0.0,0.0,0.0,0.0,0.0,0.0,0.0,0.0,0.0,0.0,0.0,0.0,0.0,0.0,0.0,0.0,0.0,0.0,0.0,0.0,0.0,0.0,0.0,0.0,0.0,0.0,0.0,0.0,0.0,0.0,0.0,0.0,0.0,0.0,0.0,0.0,0.0,0.0,0.0,0.0,0.0,0.0,0.0,0.0,0.0,0.0,0.0,0.0,0.0,0.0,0.0,0.0,0.0,0.0,0.0,0.0,0.0,0.0,0.0,0.0,0.0,0.0,0.0,0.0,0.0,0.0,0.0,0.0,0.0,0.0,0.0,0.0,0.0,0.0,0.0,0.0,0.0,0.0,0.0,0.0,0.0,0.0,0.0,0.0,0.0,0.0,0.0,0.0,0.0,0.0,0.0,0.0,0.0,0.0,0.0,0.0,0.0,0.0,0.0,0.0,0.0,0.0,0.0,0.0,0.0,0.0,0.0,0.0,0.0,0.0,0.0,0.0,0.0,0.0,0.0,0.0,0.0,0.0,0.0,0.0,0.0,0.0,0.0,0.0,0.0,0.0,0.0,0.0,0.0,0.0,0.0,0.0,0.0,0.0,0.0,0.0,0.0,0.0,0.0,0.0,0.0,0.0,0.0,0.0,0.0,0.0,0.0,0.0,0.0,0.0,0.0,0.0,0.0,0.0,0.0,0.0,0.0,0.0,0.0,0.0,0.0,0.0,0.0,0.0,0.0,0.0,0.0,0.0,0.0,0.0,0.0,0.0,0.0,0.0,0.0,0.0,0.0,0.0,0.0,0.0,0.0,0.0,0.0,0.0,0.0,0.0,0.0,0.0,0.0,0.0,0.0,0.0,0.0,0.0,0.0,0.0,0.0,0.0,0.0,0.0,0.0,0.0,0.0,0.0,0.0,0.0,0.0,0.0,0.0,0.0,0.0,0.0,0.0,0.0,0.0,0.0,0.0,0.0,0.0,0.0,0.0,0.0,0.0,0.0,0.0,0.0,0.0,0.0,0.0,0.0,0.0,0.0,0.0,0.0,0.0,0.0,0.0,0.0,0.0,0.0,0.0,0.0,0.0,0.0,0.0,0.0,0.0,0.0,0.0,0.0,0.0,0.0,0.0,0.0,0.0,0.0,0.0,0.0,0.0,0.0,0.0,0.0,0.0,0.0,0.0,0.0,0.0,0.0,0.0,0.0,0.0,0.0,0.0,0.0,0.0,0.0,0.0,0.0,0.0,0.0,0.0,0.0,0.0,0.0,0.0,0.0,0.0,0.0,0.0,0.0,0.0,0.0,0.0,0.0,0.0,0.0,0.0,0.0,0.0,0.0,0.0,0.0,0.0,0.0,0.0,0.0,0.0,0.0,0.0,0.0,0.0,0.0,0.0,0.0,0.0,0.0,0.0,0.0,0.0,0.0,0.0,0.0,0.0,0.0,0.0,0.0,0.0,0.0,0.0,0.0,0.0,0.0,0.0,0.0,0.0,0.0,0.0,0.0,0.0,0.0,0.0,0.0,0.0,0.0,0.0,0.0,0.0,0.0,0.0,0.0,0.0,0.0,0.0,0.0,0.0,0.0,0.0,0.0,0.0,0.0,0.0,0.0,0.0,0.0,0.0,0.0,0.0,0.0,0.0,0.0,0.0,0.0,0.0,0.0,0.0,0.0,0.0,0.0,0.0,0.0,0.0,0.0,0.0,0.0,0.0,0.0,0.0,0.0,0.0,0.0,0.0,0.0,0.0,0.0,0.0,0.0,0.0,0.0,0.0,0.0,0.0,0.0,0.0,0.0,0.0,0.0,0.0,0.0,0.0,0.0,0.0,0.0,0.0,0.0,0.0,0.0,0.0,0.0,0.0,0.0,0.0,0.0,0.0,0.0,0.0,0.0,0.0,0.0,0.0,0.0,0.0,0.0,0.0,0.0,0.0,0.0,0.0,0.0,0.0,0.0,0.0,0.0,0.0,0.0,0.0,0.0,0.0,0.0,0.0,0.0,0.0,0.0,0.0,0.0,0.0,0.0,0.0,0.0,0.0,0.0,0.0,0.0,0.0,0.0,0.0,0.0,0.0,0.0,0.0,0.0,0.0,0.0,0.0,0.0,0.0,0.0,0.0,0.0,0.0,0.0,0.0,0.0,0.0,0.0,0.0,0.0,0.0,0.0,0.0,0.0,0.0,0.0,0.0,0.0,0.0,0.0,0.0,0.0,0.0,0.0,0.0,0.0,0.0,0.0,0.0,0.0,0.0,0.0,0.0,0.0,0.0,0.0,0.0,0.0,0.0,0.0,0.0,0.0,0.0,0.0,0.0,0.0,0.0,0.0,0.0,0.0,0.0,0.0,0.0,0.0,0.0,0.0,0.0,0.0,0.0,0.0,0.0,0.0,0.0,0.0,0.0,0.0,0.0,0.0,0.0,0.0,0.0,0.0,0.0,0.0,0.0,0.0,0.0,0.0,0.0,0.0,0.0,0.0,0.0,0.0,0.0,0.0,0.0,0.0,0.0,0.0,0.0,0.0,0.0,0.0,0.0,0.0,0.0,0.0,0.0,0.0,0.0,0.0,0.0,0.0,0.0,0.0,0.0,0.0,0.0,0.0,0.0,0.0,0.0,0.0,0.0,0.0,0.0,0.0,0.0,0.0,0.0,0.0,0.0,0.0,0.0,0.0,0.0,0.0,0.0,0.0,0.0,0.0,0.0,0.0,0.0,0.0,0.0,0.0,0.0,0.0,0.0,0.0,0.0,0.0,0.0,0.0,0.0,0.0,0.0,0.0,0.0,0.0,0.0,0.0,0.0,0.0,0.0,0.0,0.0,0.0,0.0,0.0,0.0,0.0,0.0,0.0,0.0,0.0,0.0,0.0,0.0,0.0,0.0,0.0,0.0,0.0,0.0,0.0,0.0,0.0,0.0,0.0,0.0,0.0,0.0,0.0,0.0,0.0,0.0,0.0,0.0,0.0,0.0,0.0,0.0,0.0,0.0,0.0,0.0,0.0,0.0,0.0,0.0,0.0,0.0,0.0,0.0,0.0,0.0,0.0,0.0,0.0,0.0,0.0,0.0,0.0,0.0,0.0,0.0,0.0,0.0,0.0,0.0,0.0,0.0,0.0,0.0,0.0,0.0,0.0,0.0,0.0,0.0,0.0,0.0,0.0,0.0,0.0,0.0,0.0,0.0,0.0,0.0,0.0,0.0,0.0,0.0,0.0,0.0,0.0,0.0,0.0,-2.8286,-2.835,0.0,0.0,0.0,0.0,0.0,0.0,0.0,0.0,0.0,0.0,0.0,0.0,0.0,0.0,0.0,0.0,0.0,0.0,0.0,0.0,0.0,0.0,0.0,0.0,0.0,0.0,0.0,0.0,0.0,0.0,0.0,0.0,0.0,0.0,0.0,0.0,0.0,0.0,0.0,0.0,0.0,0.0,0.0,0.0,0.0,0.0,0.0,0.0,0.0,0.0,0.0,0.0,0.0,0.0,0.0,0.0,0.0,0.0,0.0,0.0,0.0,0.0,0.0,0.0,0.0,0.0,0.0,0.0,0.0,0.0,0.0,0.0,0.0,0.0,0.0,0.0,0.0,0.0,0.0,0.0,0.0,0.0,0.0,0.0,0.0,0.0,0.0,0.0,0.0,0.0,0.0,0.0,0.0,0.0,0.0,0.0,0.0,0.0,0.0,0.0,0.0,0.0,0.0,0.0,0.0,0.0,0.0,0.0,0.0,0.0,0.0,0.0,0.0,0.0,-2.8981,-2.8867,0.0,0.0,0.0,0.0,0.0,0.0,0.0,0.0,0.0,0.0,0.0,0.0,0.0,0.0,0.0,0.0,0.0,0.0,0.0,0.0,0.0,0.0,0.0,0.0,0.0,0.0,0.0,0.0,0.0,0.0,0.0,0.0,0.0,0.0,0.0,0.0,0.0,0.0,0.0,0.0,0.0,0.0,0.0,0.0,0.0,0.0,0.0,0.0,0.0,0.0,0.0,0.0,0.0,0.0,0.0,0.0,0.0,0.0,0.0,0.0,0.0,0.0,0.0,0.0,0.0,0.0,0.0,0.0,0.0,0.0,0.0,0.0,0.0,0.0,0.0,0.0,0.0,0.0,0.0,0.0,0.0,0.0,0.0,0.0,0.0,0.0,0.0,0.0,0.0,0.0,0.0,0.0,0.0,0.0,0.0,0.0,0.0,0.0,0.0,0.0,0.0,0.0,0.0,0.0,0.0,0.0,0.0,0.0,-2.8813,-2.8952,-2.9262,-2.8634,-2.8527,-2.8891,-2.9566,-2.9273,-2.8449,-2.9016,0.0,0.0,0.0,0.0,0.0,0.0,0.0,0.0,0.0,0.0,0.0,0.0,0.0,0.0,0.0,0.0,0.0,0.0,0.0,0.0,0.0,0.0,0.0,0.0,0.0,0.0,0.0,0.0,0.0,0.0,0.0,0.0,0.0,0.0,0.0,0.0,0.0,0.0,-2.7397,-2.8685,-2.9092,-2.8744,0.0,0.0,0.0,0.0,0.0,0.0,0.0,0.0,0.0,0.0,0.0,0.0,0.0,0.0,0.0,0.0,0.0,0.0,0.0,0.0,0.0,0.0,0.0,0.0,0.0,0.0,0.0,0.0,0.0,0.0,0.0,0.0,0.0,0.0,0.0,0.0,0.0,0.0,0.0,0.0,0.0,0.0,0.0,0.0,-2.3684,-2.4496,0.0,0.0,0.0,0.0,0.0,0.0,0.0,0.0,0.0,0.0,0.0,0.0,0.0,-2.8509,-2.8329,-2.8021,-2.7881,-2.7896,-2.7336,-2.7569,-2.8354,-2.7914,-2.79,-2.8257,-2.8629,0.0,-2.8434,-2.8509,0.0,0.0,0.0,0.0,0.0,0.0,0.0,0.0,0.0,0.0,0.0,0.0,0.0,0.0,0.0,0.0,0.0,0.0,0.0,0.0,0.0,0.0,0.0,0.0,0.0,0.0,0.0,0.0,0.0,0.0,0.0,0.0,0.0,0.0,0.0,0.0,-2.5766,-2.7338,-2.8181,-2.9736,-3.0679,-3.1145,-3.1462,-3.13,-3.0796,-3.0167,0.0,0.0,0.0,0.0,0.0,0.0,0.0,0.0,0.0,0.0,0.0,0.0,0.0,0.0,0.0,0.0,0.0,0.0,0.0,0.0,0.0,0.0,0.0,0.0,0.0,0.0,0.0,0.0,0.0,0.0,0.0,0.0,0.0,0.0,0.0,0.0,0.0,0.0,0.0,-2.2838,-2.3573,-2.4187,-2.3761,-2.3583,0.0,0.0,0.0,0.0,0.0,0.0,0.0,0.0,0.0,-2.6977,-2.7948,-2.7936,-2.6788,-2.7018,-2.7088,-2.7016,-2.6246,-2.6413,-2.7386,-2.6517,-2.649,-2.7103,-2.6846,-2.7018,-2.746,-2.8039,-2.8195,-2.8122,0.0,0.0,0.0,0.0,-2.7779,-2.7517,0.0,0.0,0.0,0.0,0.0,0.0,0.0,0.0,0.0,0.0,0.0,0.0,0.0,0.0,0.0,-1.1779,0.0,0.0,0.0,0.0,0.0,0.0,0.0,0.0,0.0,0.0,0.0,0.0,-2.6954,-2.8158,-2.8927,-3.0353,-3.1372,-3.2094,-3.314,-3.3211,-3.2513,-3.1829,-3.1686,0.0,0.0,0.0,0.0,0.0,0.0,0.0,0.0,0.0,0.0,0.0,0.0,0.0,0.0,0.0,0.0,0.0,0.0,0.0,0.0,0.0,0.0,0.0,0.0,0.0,0.0,0.0,0.0,0.0,0.0,0.0,0.0,0.0,0.0,0.0,0.0,0.0,0.0,-2.0279,-1.9605,-2.0153,-1.7826,-1.6398,0.0,0.0,0.0,0.0,0.0,0.0,-0.8919,-1.5873,-2.0709,-2.2089,-2.3399,-2.4405,-2.5102,-2.5598,-2.5746,-2.5679,-2.4801,-2.4942,-2.5897,-2.495,-2.4899,-2.5494,-2.5147,-2.5412,-2.613,-2.7068,-2.7639,-2.7875,-2.7515,-2.7644,-2.8149,-2.8866,-2.8728,-2.8274,0.0,0.0,0.0,0.0,0.0,0.0,0.0,0.0,0.0,0.0,0.0,0.0,0.0,0.0,-0.943,-1.0229,-1.2058,-1.3442,0.0,0.0,0.0,0.0,0.0,0.0,0.0,0.0,0.0,-2.7515,-2.775,-2.8622,-3.001,-3.0697,-3.1046,-3.1166,-3.2896,-3.434,-3.5308,-3.4164,-3.3679,-3.3648,0.0,0.0,0.0,0.0,0.0,0.0,0.0,0.0,0.0,0.0,0.0,0.0,0.0,0.0,0.0,0.0,0.0,0.0,0.0,0.0,0.0,0.0,0.0,0.0,0.0,0.0,0.0,0.0,0.0,0.0,0.0,0.0,0.0,0.0,0.0,0.0,0.0,0.0,0.0,-0.994,-0.2301,0.0,0.0,0.0,0.0,0.1386,0.1228,0.1039,0.0818,0.0387,-0.3685,-1.2031,-1.238,-1.6138,-2.3923,-2.3552,-2.3357,-2.3377,-2.2818,-2.2895,-2.3575,-2.3432,-2.3412,-2.3491,-2.3965,-2.4182,-2.4303,-2.5401,-2.652,-2.7565,-2.7164,-2.709,-2.7276,-2.8118,-2.8054,-2.753,0.0,0.0,0.0,0.0,0.0,0.0,0.0,0.0,0.0,0.0,0.0,0.0,0.0,-0.7093,-0.8308,-0.9964,-1.172,-1.3005,-1.362,0.0,0.0,0.0,0.0,0.0,0.0,0.0,-2.4332,-2.5455,-2.6729,-2.7891,-2.8883,-2.9588,-3.0174,-3.0703,-3.1426,-3.2389,-3.344,-3.4091,-3.4504,-3.4572,-3.3209,-3.2702,0.0,0.0,0.0,0.0,0.0,0.0,0.0,0.0,0.0,0.0,0.0,0.0,0.0,0.0,0.0,0.0,0.0,0.0,0.0,0.0,0.0,0.0,0.0,0.0,0.0,0.0,0.0,0.0,0.0,0.0,0.0,0.0,0.0,0.0,0.0,0.0,0.0,-0.0504,0.2869,0.0,0.4556,0.5411,0.801,1.2817,0.7355,0.6168,1.1694,0.5489,0.0538,-0.2203,-0.2913,-0.4554,-0.7206,-0.7576,-0.9853,-1.3919,-1.3565,-1.6074,-2.1024,-2.0658,-2.0836,-2.1515,-2.1716,-2.2196,-2.2981,-2.3322,-2.451,-2.6139,-2.6189,-2.6194,-2.6311,-2.7295,-2.7006,-2.6198,0.0,0.0,0.0,0.0,0.0,0.0,0.0,0.0,0.0,0.0,0.0,-0.3332,-0.4923,-0.6167,-0.7598,-0.933,-1.1178,-1.2449,-1.283,0.0,0.0,0.0,0.0,0.0,0.0,-2.2346,-2.3429,-2.4084,-2.5238,-2.6198,-2.7052,-2.7487,-2.8063,-2.8745,-2.9469,-3.0204,-3.1021,-3.2812,-3.4036,-3.4718,-3.3873,-3.3808,-3.4067,0.0,0.0,0.0,0.0,0.0,0.0,0.0,0.0,0.0,0.0,0.0,0.0,0.0,0.0,0.0,0.0,0.0,0.0,0.0,0.0,0.0,0.0,0.0,0.0,0.0,0.0,0.0,0.0,0.0,0.0,0.0,0.0,0.0,0.0,0.8165,0.9637,0.9637,1.2467,1.4359,1.4072,1.4528,1.7101,2.2588,1.6704,1.5586,2.1792,1.5168,1.0066,0.7681,0.6906,0.5277,0.2736,0.2233,-0.0149,-0.4328,-0.4314,-0.8178,-1.5297,-1.5175,-1.678,-1.971,-1.9864,-2.0539,-2.1435,-2.1567,-2.2572,-2.4096,-2.4961,-2.5286,-2.5372,-2.6377,-2.609,-2.5184,0.0,0.0,0.0,0.0,0.0,0.0,0.0,0.0,0.0,0.0,0.0,-0.2935,-0.3533,-0.5446,-0.7158,-0.8264,-1.0438,-1.1588,-1.1352,-1.3195,0.0,0.0,0.0,0.0,-2.1433,-2.1471,-2.2211,-2.3741,-2.3281,-2.3642,-2.4743,-2.454,-2.4744,-2.5279,-2.7106,-2.8084,-2.8484,-3.0405,-3.2317,-3.4086,-3.4439,-3.4564,-3.4564,0.0,0.0,0.0,0.0,0.0,0.0,0.0,0.0,0.0,0.0,0.0,0.0,0.0,0.0,0.0,0.0,0.0,0.0,0.0,0.0,0.0,0.0,0.0,0.0,0.0,0.0,0.0,0.0,0.0,0.0,0.0,0.0,0.0,1.0714,1.5423,2.0533,2.0465,2.708,3.135,3.0594,3.0194,2.9973,3.0053,2.9647,2.9761,3.0577,2.9848,2.5667,1.7464,1.718,1.3206,0.4921,0.5027,0.5009,0.4766,0.4287,0.0286,-0.6681,-0.7274,-1.1405,-1.8093,-1.8596,-1.9153,-1.971,-2.0218,-2.0779,-2.152,-2.3464,-2.4258,-2.4418,-2.5257,-2.5195,-2.4534,0.0,0.0,0.0,0.0,0.0,0.0,0.0,0.0,0.0,0.0,0.0602,0.0267,-0.0868,-0.2333,-0.3916,0.0,0.0,0.0,0.0,0.0,0.0,0.0,0.0,0.0,-1.8287,-1.9592,-2.0341,-2.0564,-2.1445,-2.2378,-2.3356,-2.3637,-2.4289,-2.5224,-2.5797,-2.657,-2.7561,-2.8949,-3.0136,-3.1237,-3.3022,-3.3636,-3.3579,0.0,0.0,0.0,0.0,0.0,0.0,0.0,0.0,0.0,0.0,0.0,0.0,0.0,0.0,0.0,0.0,0.0,0.0,0.0,0.0,0.0,0.0,0.0,0.0,0.0,0.0,0.0,0.0,0.0,0.0,0.0,3.196,3.2975,2.6962,2.8595,3.0024,2.8795,3.0928,3.2144,3.1311,3.1212,3.1206,3.1224,3.0261,3.0019,3.0778,2.9876,2.8259,2.5941,2.5631,2.4129,2.1229,2.0837,1.8103,1.3096,1.2713,0.6108,-0.5812,-0.5995,-1.0225,-1.7479,-1.7578,-1.8004,-1.8608,-1.9101,-1.9672,-2.0294,-2.1663,-2.2207,-2.22,-2.2297,-2.2005,-2.1529,0.0,0.0,0.0,0.0,0.0,0.0,0.0,0.0,0.0,0.0,0.2414,0.2,0.0921,-0.0328,0.0,0.0,0.0,0.0,0.0,0.0,0.0,0.0,0.0,-0.5799,-1.2764,-1.3903,-1.5629,-1.8242,-1.9239,-2.0157,-2.1017,-2.1774,-2.2572,-2.3425,-2.3978,-2.4778,-2.5773,-2.677,-2.7756,-2.8793,-3.0454,-3.1668,-3.2562,-3.338,-3.3386,-3.2938,-3.2764,-3.3033,-3.3077,-3.0873,0.0,0.0,0.0,0.0,0.0,0.0,0.0,0.0,0.0,0.0,0.0,0.0,0.0,0.0,0.0,0.0,0.0,0.0,0.0,0.0,0.0,0.0,0.0,0.0,3.4064,3.4741,3.3356,3.3907,3.3934,3.257,3.2125,3.1712,3.121,3.0934,3.0918,3.1275,3.0217,2.9911,3.0698,2.9733,2.9133,2.9026,2.8685,2.8241,2.7701,2.71,2.4777,2.0742,2.0459,1.4373,0.3487,0.3556,-0.0709,-0.8237,-1.0764,-1.2404,-1.353,-1.6461,-1.8112,0.0,0.0,0.0,0.0,0.0,-2.0797,-2.0267,0.0,0.0,0.0,0.0,0.0,0.0,0.0,0.0,0.0,0.0,0.0,0.2913,0.2311,0.0,0.0,0.0,0.0,0.0,0.0,0.0,0.0,0.4714,0.4342,0.1127,-0.5489,-0.645,-0.9716,-1.5507,-1.5956,-1.693,-1.8398,-1.948,-2.0258,-2.0847,-2.1891,-2.2859,-2.368,-2.4276,-2.539,-2.681,-2.7441,-2.915,-3.1396,-3.2182,-3.2246,-3.193,-3.257,-3.2995,-3.3175,-3.2633,0.0,0.0,0.0,0.0,0.0,0.0,0.0,0.0,0.0,0.0,0.0,0.0,0.0,0.0,0.0,0.0,0.0,0.0,0.0,0.0,0.0,0.0,0.0,0.0,3.451,3.428,3.3285,3.3792,3.3918,3.297,3.1626,3.0728,3.0635,2.9961,2.9831,3.0544,2.9725,2.9524,3.0309,2.9499,0.0,0.0,0.0,2.802,2.7742,2.7195,2.6839,2.6721,2.6489,2.2627,1.5685,1.5878,1.1733,0.4021,-0.2016,-0.5343,-0.6986,-1.3224,-1.6412,-1.7545,-1.9532,-2.065,-2.1129,-2.1129,-2.0636,-1.9919,0.0,0.0,0.0,0.0,0.0,0.0,0.0,0.0,0.0,0.4492,0.4425,0.4375,0.0,0.0,0.0,0.0,0.0,0.0,0.0,0.0,1.8631,1.2811,0.8448,0.5113,0.2902,-0.2977,-0.6533,-0.7599,-0.8384,-1.1804,-1.7652,-1.8296,-1.9148,-2.02,-2.0364,-2.1227,-2.2617,-2.2793,-2.4,-2.5867,-2.5839,-2.7308,-2.9579,-3.0349,-3.084,-3.1124,-3.1317,-3.1775,-3.2381,-3.2982,-3.2297,-3.0925,-2.9435,0.0,0.0,0.0,0.0,0.0,0.0,0.0,0.0,0.0,0.0,0.0,0.0,0.0,0.0,0.0,0.0,0.0,0.0,0.0,0.0,3.3199,3.464,3.5265,3.3094,3.2855,3.2523,3.1525,3.1276,3.0924,3.0278,2.9937,2.9811,2.9962,2.945,2.9222,2.9431,2.9099,2.8929,2.8929,2.8651,2.8352,2.802,2.7695,2.7087,2.6224,2.6193,0.0,1.4451,1.4602,1.0596,0.3293,-0.2845,-0.5631,-0.6337,-1.2604,-1.5558,-1.6418,-1.8486,-1.9357,-1.9455,-1.9455,-1.9001,-1.8314,0.0,0.0,0.0,0.0,0.0,0.0,0.0,0.0,0.0,0.0,0.593,0.0,0.0,0.0,0.0,0.0,0.0,0.0,0.0,2.1133,2.1889,1.8768,1.646,1.3416,0.9637,0.2901,-0.21,-0.5233,-0.8848,-1.2594,-1.6421,-1.7109,-1.7851,-1.8551,-1.8912,-1.9645,-2.0655,-2.0677,-2.1991,-2.4011,-2.3533,-2.48,-2.708,-2.8252,-2.8973,-2.9413,-2.9924,-3.0729,-3.1633,-3.1867,-3.1001,-2.9658,-2.8686,-2.7604,-2.6426,0.0,0.0,0.0,0.0,0.0,0.0,0.0,0.0,0.0,0.0,0.0,0.0,0.0,0.0,3.5068,3.5361,0.0,3.5413,3.4764,3.4289,3.357,3.2321,3.1665,3.1271,3.1208,3.0845,3.0475,3.0136,2.994,2.9823,2.9754,2.9435,2.923,2.9148,2.8984,2.8929,2.8952,2.8337,2.7835,2.754,2.6841,2.6179,2.5557,2.5557,2.3435,1.956,1.9689,1.7567,1.3483,0.7391,0.2781,-0.1153,-1.0737,-1.5038,-1.5676,-1.694,-1.7593,-1.7834,-1.7834,-1.7328,-1.6524,0.0,0.0,0.0,0.0,0.0,0.0,0.0,0.0,0.0,0.0,0.0,0.0,0.0,0.0,0.0,0.0,0.0,0.0,0.0,2.1169,2.1973,2.2654,2.2149,1.9981,1.5936,0.8645,0.2251,-0.3145,-0.9278,-1.3233,0.0,0.0,-1.6439,-1.6873,-1.7477,-1.8074,-1.8682,-1.8797,-2.0055,-2.201,-2.1496,-2.2617,-2.4701,-2.5879,-2.688,-2.764,-2.8345,-2.9674,-3.0794,-2.9148,-2.8122,-2.7564,-2.7683,-2.6212,-2.3662,-1.9582,-1.749,0.0,0.0,0.0,0.0,0.0,0.0,0.0,0.0,2.7736,3.3957,3.4753,3.5702,3.6573,3.7063,3.5997,3.5209,3.5727,3.3442,3.1495,3.1162,3.0379,3.0071,3.0619,3.0212,2.9937,3.0064,2.9953,2.9839,2.9681,2.9493,2.9237,2.8883,2.87,2.8571,2.8406,2.7627,2.7091,2.6849,2.5897,2.5205,2.485,2.4793,2.4695,2.4557,2.4552,2.4225,2.3406,1.7202,1.019,0.2268,-0.8341,-1.3533,-1.4952,-1.5303,-1.572,-1.6132,-1.6431,-1.5961,-1.513,0.0,0.0,0.0,0.0,0.0,0.0,0.0,0.0,0.0,0.0,0.0,0.0,0.0,0.0,0.0,0.0,0.0,0.0,0.0,2.0555,2.1808,2.3226,1.8127,1.7618,2.2664,1.1433,0.4931,0.3782,0.0,0.0,0.0,0.0,0.0,0.0,-1.6034,-1.6634,-1.7599,-1.804,-1.9057,-2.0484,-2.0823,-2.1941,-2.3377,-2.3074,-2.4537,-2.674,-2.6581,-2.83,-2.9675,-2.3755,-2.3035,-2.4657,-2.5212,-2.4055,-2.1317,-1.5196,-1.366,-1.397,-1.4248,-0.8867,-0.1379,0.6197,1.5355,2.2984,0.0,3.0928,3.6578,3.7619,3.8026,3.7593,3.5589,3.5181,3.4542,3.2594,3.1903,3.1085,2.9586,2.9194,2.8815,2.8185,2.9174,2.9924,2.9921,2.9905,2.9822,2.9626,2.9435,2.8934,2.8083,2.7785,2.7341,2.6699,2.6629,2.6463,2.6207,2.5904,2.5242,2.4287,2.4064,2.3581,2.2953,2.2408,2.216,2.1697,1.5007,0.6164,-0.361,-0.5638,-0.9387,-1.3788,-1.3836,-1.3905,-1.4084,-1.5491,-1.5614,-1.4994,0.0,0.0,0.0,0.0,0.0,0.0,0.0,0.0,0.0,0.0,0.0,0.0,0.0,0.0,0.0,0.0,0.0,0.0,1.7493,1.7759,1.8512,2.0035,1.6902,1.5814,1.7229,0.807,0.2503,0.0938,0.0,0.0,0.0,0.0,0.0,0.0,0.0,-1.4903,-1.5464,-1.5928,-1.7011,-1.8462,-1.8807,-2.0057,-2.1694,-2.1112,-2.2364,-2.4469,-2.4614,-2.4515,0.0,0.0,-2.1339,-2.1555,-1.8237,-1.6077,-1.4515,-1.3008,-1.2414,-1.1548,-0.7833,0.2401,1.2655,1.5197,2.3245,3.0725,3.1362,3.4328,3.7207,3.8218,3.7806,3.7014,3.6112,3.4764,3.3544,3.2715,3.1274,3.0006,2.9252,2.861,2.8243,2.8383,2.8859,2.903,2.8593,2.8529,2.8353,2.7998,2.7903,2.7555,2.694,2.6832,2.6663,2.634,2.5947,2.5623,2.5396,2.4846,2.4219,2.35,2.3441,2.3137,2.2694,2.1986,2.1781,2.1568,1.5179,1.0099,0.6076,0.2169,-0.0771,-0.2843,-0.2843,-0.2843,-0.3771,-1.1674,-1.4247,-1.3768,0.0,0.0,0.0,0.0,0.0,0.0,0.0,0.0,0.0,0.0,0.0,0.0,0.0,0.0,0.0,0.0,0.0,0.0,0.0,1.5412,1.5743,1.6974,1.6128,0.0,1.3283,0.6157,0.1492,-0.0445,0.0,0.0,0.0,0.0,0.0,0.0,0.0,0.0,-1.3842,-1.4572,-1.5536,-1.6635,-1.725,-1.8697,-2.0376,-1.9986,-2.0241,-2.0927,-2.1446,-2.041,0.0,0.0,-1.9038,-1.7511,-1.1858,-0.9628,-0.9398,-1.1008,-1.0086,-0.7019,-0.0203,1.1327,2.1827,2.3442,2.9773,3.5653,3.5931,3.655,3.7209,3.7783,3.6901,3.5938,3.5657,3.3815,3.2352,3.2336,3.0751,2.9385,2.9098,2.8415,2.8172,2.8722,2.8676,2.8417,2.7865,2.7767,2.7589,2.7195,2.6896,2.6493,2.5901,2.5905,2.5841,2.5623,2.512,2.4787,2.4653,2.3999,2.3473,2.3109,2.3077,2.2944,2.2651,2.1953,2.1707,2.1638,1.7049,1.4709,1.3732,0.9064,0.614,0.4611,0.4611,0.445,0.3177,-0.5832,-0.8762,-0.8315,0.0,0.0,0.0,0.0,0.0,0.0,0.0,0.0,0.0,0.0,0.0,0.0,0.0,0.0,0.0,0.0,0.0,0.0,0.0,1.4417,1.4631,1.5348,1.5199,1.512,1.5113,0.8208,0.4148,0.315,0.0,0.0,0.0,0.0,0.0,0.0,0.0,0.0,-1.3388,-1.4701,-1.5179,-1.5133,-1.6896,-1.8487,-1.9802,-1.9802,-1.8081,-1.5694,-1.64,0.0,0.0,0.0,-1.4892,-1.2085,-0.7757,-0.7116,0.0,-0.8814,-0.5128,0.0766,0.8207,1.526,2.2508,3.0662,3.3389,3.4555,3.6517,3.6921,3.6806,3.6445,3.5665,3.4599,3.3112,3.1965,3.1023,3.0319,3.0066,2.9684,2.8831,2.8632,2.8553,2.8504,2.8459,2.8389,2.8388,2.8367,2.8295,2.8089,2.7165,2.6164,2.5103,2.5045,2.4683,2.3886,2.3912,2.3953,2.4032,2.3753,2.3522,2.3392,2.3133,2.2893,2.2651,2.1953,2.1608,2.1581,2.0871,1.7986,1.3758,1.3048,0.9238,0.3821,0.3821,0.3348,0.2636,0.2247,0.2626,0.3246,0.0,0.0,0.0,0.0,0.0,0.0,0.0,0.0,0.0,0.0,0.0,0.0,0.0,0.0,0.0,0.0,0.0,0.0,0.0,1.295,1.2772,1.2923,1.1904,1.0436,0.8605,0.5323,0.2462,-0.0,0.0,0.0,0.0,0.0,0.0,0.0,0.0,0.0,-1.1791,-1.2018,-1.2468,-1.3239,-1.5324,-1.6427,-1.6687,-1.5014,-1.3747,-1.2787,0.0,0.0,0.0,-1.0119,-0.8564,-0.7151,-0.6872,-0.6692,-0.5988,-0.2837,0.2508,0.878,1.4849,2.1811,2.8093,3.1348,3.2637,3.3481,3.5057,3.4873,3.458,3.5306,3.3899,3.2549,3.2545,3.1808,3.1108,3.0864,3.0335,2.9988,3.021,2.9236,2.8921,2.9964,3.0546,3.0864,3.0845,2.9289,2.796,2.7227,2.6272,2.5518,2.5031,2.4483,2.4067,2.3813,2.3816,2.3837,2.3876,2.3876,2.3735,2.3522,2.323,2.2765,2.2167,2.1769,2.1658,2.1704,2.0976,2.0117,1.9175,1.8564,1.7077,1.5216,1.5261,1.5105,1.4832,1.434,1.4324,1.3416,0.0,0.0,0.0,0.0,0.0,0.0,0.0,0.0,0.0,0.0,0.0,0.0,0.0,0.0,0.0,0.0,0.0,0.0,0.0,0.0,1.1567,1.1279,1.0315,0.8826,0.6731,0.5123,0.3116,0.0725,0.0,0.0,0.0,0.0,0.0,0.0,0.0,0.0,-1.0521,-1.0773,-1.1127,-1.1744,-1.3548,-1.4047,-1.3498,-1.1851,-1.0609,0.0,0.0,0.0,0.0,-0.6602,-0.529,-0.4349,-0.5216,-0.555,-0.4522,0.0711,0.6675,1.2733,1.8003,2.4797,3.0412,3.0411,3.0969,3.176,3.2645,3.2572,3.2555,3.3393,3.2293,3.1328,3.1841,3.1693,3.1279,3.0689,3.058,3.0639,3.0828,2.9927,2.9851,3.1456,3.2371,3.2814,3.275,3.1184,2.9425,2.768,2.6563,2.5673,2.4982,2.4458,2.4082,2.3813,2.3795,2.3816,2.3855,2.3834,2.3646,2.3335,2.306,2.2666,2.216,2.1787,2.1658,2.168,2.0929,2.097,2.1545,2.1149,2.0862,2.0652,2.0695,2.0537,2.0234,1.9752,1.9573,1.8533,0.0,0.0,0.0,0.0,0.0,0.0,0.0,0.0,0.0,0.0,0.0,0.0,0.0,0.0,0.0,0.0,0.0,0.0,0.0,0.0,0.0,1.043,1.0493,1.0149,0.9285,0.7512,0.6117,0.5184,0.0,0.0,0.0,0.0,0.0,0.0,0.0,0.0,-0.9434,-1.0717,-1.1032,-1.0729,-1.1729,-1.1411,-1.0348,-1.0335,0.0,0.0,0.0,0.0,0.0,-0.578,-0.4933,-0.355,-0.2941,-0.3779,-0.3818,0.1781,0.7341,1.2782,1.7911,2.4335,2.9382,2.8351,2.8838,2.957,2.9681,3.0265,3.0847,3.0978,3.0996,3.0979,3.096,3.1574,3.1547,2.9997,3.0956,3.1671,3.0946,3.0798,3.1336,3.2878,3.377,3.4154,3.3905,3.3817,3.247,2.9421,2.7997,2.6608,2.5144,2.4946,2.4577,2.3886,2.3813,2.3816,2.3896,2.3642,2.3301,2.2927,2.266,2.2607,2.2625,2.1884,2.1539,2.1505,2.083,2.062,2.0714,2.0809,2.0489,1.9911,1.9911,1.9447,1.8788,1.8788,1.8788,1.8931,0.0,0.0,0.0,0.0,0.0,0.0,0.0,0.0,0.0,0.0,0.0,0.0,0.0,0.0,0.0,0.0,0.0,0.0,0.0,0.0,0.0,0.0,0.0,0.0,0.0,0.0,0.0,0.0,0.0,0.0,0.0,0.0,0.0,0.0,0.0,0.0,-0.6199,-0.6882,-0.8695,-1.0924,0.0,-0.8819,-0.673,0.0,0.0,0.0,0.0,0.0,0.0,-0.3011,-0.362,-0.4073,-0.3895,-0.437,-0.3912,0.2032,0.7326,1.2424,1.7764,2.3743,2.8366,2.8083,2.8445,2.8966,2.9435,2.9524,2.9758,3.0734,3.0923,3.1091,3.163,3.2353,3.2922,3.3003,3.33,3.3679,3.4179,3.3647,3.3315,3.3647,3.4378,3.4557,3.3771,3.4066,3.3234,3.0648,2.8979,2.7939,2.7525,2.5799,2.4761,2.4613,2.4093,2.381,2.3816,2.3606,2.3455,2.341,2.2452,2.2004,2.1986,2.1105,2.0704,2.067,1.9941,1.9658,1.9668,1.9189,1.8901,1.8766,1.8903,1.8837,1.8659,1.8769,1.8788,1.8931,0.0,0.0,0.0,0.0,0.0,0.0,0.0,0.0,0.0,0.0,0.0,0.0,0.0,0.0,0.0,0.0,0.0,0.0,0.0,0.0,0.0,0.0,0.0,0.0,0.0,0.0,0.0,0.0,0.0,0.0,0.0,0.0,0.0,0.0,0.0,-0.3397,-0.3291,0.0,0.0,0.0,0.0,0.0,0.0,0.0,0.0,0.0,0.0,0.0,0.0,-0.0969,-0.1936,-0.3081,-0.3263,-0.3814,-0.272,0.5936,0.9675,1.2698,2.0505,2.4987,2.7303,2.6598,2.7163,2.7825,2.7512,2.7811,2.8366,2.9045,2.9738,3.0426,3.1201,3.2869,3.3987,3.3642,3.4777,3.5602,3.5395,3.4899,3.4507,3.4284,3.4679,3.4483,3.3334,3.3543,3.3019,3.1273,3.0019,2.8873,2.7887,2.6218,2.5141,2.4869,2.418,2.3765,2.3685,2.3427,2.3312,2.3242,2.2133,2.1596,2.1586,2.0401,1.9872,1.9837,1.912,1.8836,1.8827,1.8461,1.833,1.8408,1.8528,1.8585,1.8622,1.8733,1.8788,1.8931,0.0,0.0,0.0,0.0,0.0,0.0,0.0,0.0,0.0,0.0,0.0,0.0,0.0,0.0,0.0,0.0,0.0,0.0,0.0,0.0,0.0,0.0,0.0,0.0,0.0,0.0,0.0,0.0,0.0,0.0,0.0,0.0,0.0,0.0,0.0,0.0,0.0,0.0,0.0,0.0,0.0,0.0,0.0,0.0,0.0,0.0,0.0,0.0,0.0,0.0,-0.0328,-0.1633,-0.1999,-0.2805,-0.1304,0.9959,1.2086,1.293,2.3041,2.6188,2.6302,2.491,2.5744,2.6599,2.5367,2.618,2.7158,2.714,2.8367,2.9678,3.0506,3.3007,3.46,3.3474,3.5762,3.722,3.5873,3.5551,3.5285,3.4882,3.455,3.3888,3.261,3.2467,3.208,3.1207,3.0622,2.9423,2.736,2.6376,2.5506,2.4657,2.4082,2.37,2.3549,2.323,2.301,2.2825,2.1781,2.1318,2.1319,1.9973,1.9344,1.931,1.8736,1.8512,1.8582,1.8582,1.8662,1.8743,1.8739,1.8725,1.8744,1.8787,1.8788,1.8895,0.0,0.0,0.0,0.0,0.0,0.0,0.0,0.0,0.0,0.0,1.2297,1.2789,0.0,0.0,0.0,0.0,0.0,0.0,0.0,0.0,0.0,0.0,0.0,0.0,0.0,0.0,0.0,0.0,0.0,0.0,0.0,0.0,0.0,0.0,0.0,0.0,0.0,0.0,0.0,0.0,0.0,0.0,0.0,0.0,0.0,0.0,0.0,0.0,0.0,0.0,0.014,-0.1842,-0.1866,-0.2708,-0.2239,0.5648,0.8894,1.1287,1.7669,2.254,2.5745,2.5449,2.5921,2.6442,2.6525,2.7093,2.765,2.7798,2.9114,3.0461,3.127,3.241,3.3813,3.5586,3.6842,3.7782,3.818,3.7411,3.6443,3.5548,3.3458,3.1912,3.1487,3.0923,3.0219,2.9427,2.9354,2.8958,2.8066,2.6603,2.5207,2.3858,2.375,2.3721,2.3743,2.3271,2.3028,2.3017,2.1799,2.1223,2.1215,2.0398,2.0062,2.0093,1.999,1.9969,2.0045,2.0045,2.0045,2.0039,1.9615,1.9436,1.9386,1.8963,1.8788,1.8806,0.0,0.0,0.0,0.0,0.0,0.0,0.0,1.0807,1.131,1.1926,1.1981,1.2422,1.367,1.3942,0.0,0.0,0.0,0.0,0.0,0.0,0.0,0.0,0.0,0.0,0.0,0.0,0.9492,0.9526,0.0,0.0,0.0,0.5693,0.4666,0.3291,0.0,0.0,0.0,0.0,0.0,0.0,0.0,0.0,0.0,0.0,0.0,0.0,0.0,0.0,0.0,0.0,0.2639,0.0576,-0.0277,-0.1624,-0.1611,0.5088,0.8151,1.1345,2.0025,2.3424,2.4522,2.4624,2.5038,2.5393,2.536,2.6182,2.7035,2.7245,2.8555,2.9918,3.068,3.2194,3.3703,3.4798,3.6559,3.7908,3.8323,3.7688,3.695,3.6364,3.4004,3.2212,3.1551,3.0455,2.948,2.8788,2.843,2.8035,2.7502,2.6035,2.4736,2.362,2.3629,2.3611,2.3549,2.3175,2.2952,2.2841,2.1738,2.1187,2.1196,2.0484,2.0176,2.0201,2.025,2.034,2.0347,2.0371,2.0394,2.0384,2.0187,2.0158,2.0156,1.9542,1.9605,1.9895,0.0,0.0,0.0,0.0,0.0,0.0,0.0,1.0798,1.134,1.1829,1.1818,1.2221,1.3437,1.3708,1.3983,0.0,0.0,0.0,0.0,0.0,0.0,0.0,0.0,0.0,0.0,0.0,0.0,0.9491,0.7702,0.0,0.0,0.0,0.0,0.0,0.2594,0.1105,0.0,0.0,0.0,0.0,0.0,0.1849,0.0,0.0,0.0,0.0,0.0,0.0,0.0,0.0,0.537,0.3946,0.249,0.0689,0.0582,0.8203,1.0437,1.2784,2.3484,2.5248,2.4082,2.4238,2.4617,2.4877,2.4529,2.5557,2.6567,2.6548,2.7834,2.9185,2.9948,3.1803,3.3323,3.3578,3.5774,3.76,3.7962,3.7435,3.7033,3.6999,3.4574,3.2589,3.1815,3.0141,2.8939,2.8533,2.7587,2.6865,2.6533,2.5159,2.4135,2.3557,2.3539,2.3476,2.3365,2.326,2.3094,2.2901,2.2228,2.1887,2.1898,2.1298,2.1053,2.1079,2.1182,2.1148,2.1036,2.1093,2.1032,2.0901,2.0848,2.0917,2.0965,2.0294,2.0507,2.0929,0.0,0.0,0.0,0.0,0.0,0.0,0.0,1.1104,1.1458,1.1546,1.2291,1.2535,1.1792,1.2004,1.2357,0.0,0.0,0.0,0.0,0.0,0.0,0.0,0.0,0.0,0.0,0.0,0.0,0.9491,0.8689,0.0,0.0,0.0,0.0,0.0,0.0,0.2335,0.1899,0.2062,0.0,0.0,0.0,0.0,0.0,0.0,0.0,0.0,0.0,0.5455,0.6605,0.6988,0.7405,0.7586,0.6861,0.4986,0.5319,1.6826,1.7471,1.612,2.3665,2.5781,2.5855,2.5798,2.6023,2.6209,2.6184,2.6859,2.7278,2.6571,2.7702,2.9047,2.9874,3.0805,3.1891,3.335,3.5034,3.6674,3.815,3.711,3.6485,3.7175,3.3932,3.1623,3.1517,2.9518,2.822,2.8235,2.6493,2.5446,2.5507,2.4176,2.3383,2.3313,2.3336,2.3407,2.3562,2.3753,2.3875,2.3955,2.4049,2.4143,2.4201,2.4133,2.4147,2.4194,2.4279,2.3944,2.3395,2.345,2.3081,2.2436,2.1819,2.1685,2.1715,2.111,2.0969,2.109,0.0,0.0,0.0,0.0,0.0,0.0,1.073,1.1019,1.1317,1.1786,1.235,1.2848,1.3338,1.1943,1.155,0.0,0.0,0.0,0.0,0.0,0.0,0.0,0.0,0.0,0.0,0.0,1.0215,0.9757,0.8493,0.0,0.0,0.0,0.0,0.0,0.0,0.3785,0.337,0.287,0.0,0.0,0.0,0.0,0.0,0.0,0.0,0.0,0.0,0.0,0.8152,0.8232,0.8477,0.8714,0.9064,0.9029,1.0754,2.0072,1.94,1.7339,2.4689,2.6115,2.5542,2.5579,2.5077,2.4664,2.4953,2.5658,2.6215,2.6009,2.7453,2.8828,2.9105,3.0239,3.1356,3.1947,3.3954,3.5762,3.6702,3.6511,3.6486,3.7123,3.4569,3.2787,3.2832,3.0316,2.8356,2.7553,2.6392,2.5737,2.5761,2.413,2.3193,2.3193,2.3533,2.3667,2.3528,2.4035,2.4211,2.4109,2.4216,2.4305,2.432,2.432,2.4368,2.4495,2.454,2.422,2.3636,2.3721,2.333,2.2677,2.2418,2.2382,2.2419,2.1791,2.1922,2.23,0.0,0.0,0.0,0.0,0.0,1.0181,1.077,1.0969,1.1162,1.1565,1.2291,1.3347,1.4848,1.2762,1.1677,1.2736,0.0,0.0,0.0,0.0,0.0,0.0,0.0,0.0,0.0,0.0,1.071,0.9895,0.8298,0.7207,0.0,0.0,0.6789,0.5881,0.0,0.0,0.0,0.0,0.0,0.0,0.0,0.0,0.0,0.0,0.0,0.0,0.0,0.0,0.0,0.0,0.0,1.0064,1.0893,0.0,0.0,2.0391,2.0156,1.9384,2.537,2.6503,2.6048,2.6143,2.5207,2.4385,2.4758,2.5376,2.5852,2.5793,2.7281,2.8612,2.8536,2.9908,3.0993,0.0,3.3158,3.5044,3.5633,3.5959,3.634,3.6878,3.513,3.3769,3.3573,3.0853,2.8592,2.7368,2.6524,2.6021,2.5973,2.4452,2.3624,2.3727,2.4129,2.4254,2.4052,2.4633,2.4811,2.4592,2.481,2.4895,2.4812,2.4862,2.4944,2.5042,2.5105,2.4791,2.4185,2.432,2.3961,2.334,2.3072,2.3093,2.3145,2.2461,2.2676,2.3153,0.0,0.0,0.0,0.0,0.0,0.0,1.0498,1.1081,1.118,1.0651,1.2298,1.4068,1.5596,1.4431,1.283,1.1298,0.0,0.0,0.0,0.0,0.0,0.0,0.0,0.0,0.0,0.0,1.0698,0.9862,0.8263,0.7507,0.7496,0.7069,0.6589,0.6097,0.0,0.0,0.0,0.0,0.0,0.0,0.0,0.0,0.0,0.0,0.0,0.0,0.0,0.0,0.0,0.0,0.0,0.0,0.0,0.0,0.0,0.0,2.0319,2.3036,2.5388,2.6974,2.8015,2.8116,2.7251,2.6398,2.6556,2.6792,2.6806,2.6128,2.7266,2.8406,2.8406,2.9737,3.0797,0.0,0.0,3.4577,3.5367,3.5561,3.588,3.6551,3.5343,3.4141,3.3287,3.0717,2.8796,2.8032,2.6686,2.5883,2.5883,2.5132,2.4837,2.5171,2.5171,2.5244,2.5382,2.5784,2.5922,2.5783,2.632,2.6469,2.6262,2.6417,2.6468,2.6503,2.6624,2.6251,0.0,2.5785,2.5466,2.4785,2.4013,2.3798,2.3902,2.3154,2.3052,2.3289,0.0,0.0,0.0,0.0,0.0,0.0,0.0,1.0745,1.1082,1.1689,1.3693,1.527,1.5774,1.533,1.3966,1.1345,0.0,0.0,0.0,0.0,0.0,0.0,0.0,0.0,0.0,0.0,1.0708,0.9927,0.9392,0.8703,0.7795,0.7863,0.7279,0.6247,0.6143,0.5783,0.0,0.0,0.0,0.0,0.0,0.0,0.6626,0.0,0.0,0.0,0.0,0.0,0.0,0.0,0.0,0.0,0.0,0.0,0.0,0.0,0.0,2.3615,2.6092,2.7031,2.7186,2.6638,2.601,2.5503,2.5449,2.5866,2.6417,2.6989,2.819,2.934,2.9924,3.083,3.1679,3.2277,3.388,3.5132,3.5414,3.6374,3.6703,3.5817,3.4891,3.357,3.175,3.0784,2.9765,2.8505,2.7636,2.7148,2.7216,2.6487,2.57,2.4888,2.4997,2.5156,2.5331,2.5426,2.5579,2.5857,2.5911,2.5954,2.6026,2.6063,2.6151,2.6291,2.6329,2.6033,2.5428,2.5084,2.4564,2.3886,2.3202,2.2993,2.3039,2.2929,2.2952,2.3052,0.0,0.0,0.0,0.0,0.0,0.0,0.0,1.0588,1.0936,1.1938,1.4235,1.5825,1.5822,1.5824,1.4992,1.3027,0.0,0.0,0.0,0.0,0.0,0.0,0.0,0.0,0.0,1.1075,1.0703,0.9922,0.9868,0.9256,0.8025,0.825,0.7614,0.6388,0.631,0.5981,0.0,0.0,0.0,0.0,0.0,0.0,0.7472,0.0,0.0,0.0,0.0,0.0,0.0,0.0,0.0,0.0,0.0,0.0,0.0,0.0,2.2172,2.4044,2.6022,2.6743,2.6883,2.6721,2.5967,2.5379,2.5624,2.5906,2.6298,2.707,2.8317,2.9443,2.9982,3.0902,3.1849,3.2677,3.4189,3.5261,3.5344,3.6589,3.7041,3.5679,3.4685,3.3579,3.2176,3.1258,3.0413,2.951,2.8582,2.8068,2.8104,2.738,2.6624,2.5778,2.5715,2.5782,2.5899,2.5746,2.5721,2.5864,2.5754,2.5642,2.5621,2.5807,2.5934,2.597,2.6132,2.6009,0.0,2.5395,2.5053,2.4618,2.3675,2.3352,2.335,2.2945,2.2816,2.2893,0.0,0.0,0.0,0.0,0.0,0.0,0.0,0.0,1.0848,1.1489,1.398,1.5678,1.5813,1.5788,1.5735,1.551,0.0,0.0,0.0,0.0,0.0,0.0,0.0,0.0,0.0,1.1073,1.0703,0.9916,0.9916,0.9392,0.834,0.8313,0.7757,0.6637,0.6455,0.6168,0.5719,0.5723,0.5715,0.5789,0.6788,0.7548,0.0,0.0,0.0,0.0,0.0,0.0,0.0,0.0,0.0,0.0,0.0,0.0,0.0,0.0,0.0,0.0,0.0,2.6198,2.6962,2.7893,2.6904,2.5963,2.6787,2.6747,0.0,2.6825,2.7987,2.9035,2.9193,3.0337,3.1564,3.2389,3.3882,3.5025,3.5203,3.6302,3.6814,3.5975,3.4781,3.3993,3.3844,3.2067,3.0874,3.0773,2.9454,2.8653,2.8653,2.7952,2.7534,2.7551,2.713,2.691,2.6859,2.6469,2.6085,2.5779,2.5705,2.5497,2.5107,2.5605,2.5733,2.5605,2.597,2.6132,2.6132,2.6279,2.6454,2.6404,2.5004,2.4554,2.453,2.3168,2.2745,2.2859,0.0,0.0,0.0,0.0,0.0,0.0,0.0,0.0,0.0,0.0,1.2985,1.4486,1.5674,1.579,1.4846,0.0,0.0,0.0,0.0,0.0,0.0,0.0,0.0,0.0,0.0,1.1135,1.0674,0.9879,0.9895,0.9533,0.888,0.8703,0.8067,0.703,0.658,0.618,0.5798,0.6666,0.7022,0.7173,0.877,0.9533,0.0,0.0,0.0,0.0,1.2224,1.2473,0.0,0.0,0.0,0.0,0.0,0.0,0.0,0.0,2.3227,2.396,2.477,0.0,2.6338,2.6062,2.6499,2.6972,0.0,2.7348,2.808,2.9384,2.9702,3.0249,3.1934,3.2092,3.2581,3.4504,3.4626,3.471,3.542,3.5287,3.5265,3.5613,3.489,3.3754,3.2093,3.1978,3.1578,3.0441,2.9543,2.9072,2.9072,2.8411,2.8053,2.813,2.7417,2.6823,2.638,2.5476,2.5192,2.5476,2.4934,2.4775,2.5045,2.5068,2.513,2.5208,2.5339,2.5416,2.5389,2.5005,2.4942,2.5073,2.4348,2.4242,2.4452,2.3578,2.3352,2.3378,0.0,0.0,0.0,0.0,0.0,0.0,0.0,0.0,0.0,0.0,0.0,0.0,0.0,0.0,0.0,0.0,0.0,0.0,0.0,0.0,0.0,0.0,0.0,0.0,1.1111,1.1129,1.0905,1.0438,1.0051,0.9609,0.9108,0.8861,0.8093,0.7011,0.6455,0.6299,0.6384,0.7088,0.7706,0.8318,0.9679,0.0,0.0,0.0,0.0,0.0,1.339,1.3714,0.0,1.5368,1.6457,1.7423,0.0,0.0,0.0,0.0,2.3716,2.4446,2.5036,2.5853,2.6478,2.6189,2.7097,2.8031,2.7928,2.7981,2.8288,2.9248,2.9558,3.0127,3.1685,3.2147,3.2959,3.4933,3.4702,3.4534,3.5302,3.4839,3.4561,3.4969,3.4487,3.3518,3.1997,3.1947,3.1556,3.0421,2.941,2.8835,2.8835,2.8217,2.7843,2.7883,2.7143,2.6706,2.6627,2.5599,2.5091,2.513,2.4695,2.4508,2.4451,2.4574,2.4655,2.4735,2.491,2.5013,2.5028,2.4792,2.482,2.498,2.4437,2.4182,2.4062,2.3388,2.3034,2.2869,0.0,0.0,0.0,0.0,0.0,0.0,0.0,0.0,0.0,0.0,0.0,0.0,0.0,0.0,0.0,0.0,0.0,0.0,0.0,0.0,0.0,0.0,0.0,1.1087,1.1093,1.1117,1.1073,1.1091,1.0363,0.9679,0.918,0.8861,0.8058,0.6863,0.6547,0.6621,0.7091,0.7518,0.8305,0.9372,1.0265,0.0,0.0,0.0,0.0,0.0,0.0,0.0,0.0,1.7053,1.8078,1.8827,2.0112,0.0,0.0,0.0,0.0,0.0,2.5556,2.626,2.6869,2.7081,2.8027,2.8979,2.9163,2.8691,2.8285,2.8492,2.8952,2.967,3.0657,3.1686,3.292,3.4695,3.452,3.4429,3.523,3.4588,3.4092,3.4051,3.3784,3.3173,3.218,3.1739,3.1134,3.0289,2.9013,2.8263,2.8263,2.7673,2.7306,2.7306,2.6522,2.6286,2.6759,2.5891,2.5192,2.4639,2.4558,2.423,2.3739,2.4063,2.4204,2.4177,2.4451,0.0,2.4664,2.4799,2.4997,2.5166,2.4703,2.4288,2.3813,2.2981,2.25,2.2161,0.0,0.0,0.0,0.0,0.0,0.0,0.0,0.0,0.0,0.0,0.0,0.0,0.0,0.0,0.0,0.0,0.0,0.0,0.0,0.0,0.0,0.0,1.2851,1.1126,1.1083,1.1081,1.1123,1.1073,1.0657,1.0051,0.9468,0.9079,0.8141,0.676,0.7609,0.7834,0.7602,0.928,1.0226,1.064,1.1996,0.0,0.0,0.0,0.0,0.0,0.0,0.0,0.0,1.8442,1.9679,2.0584,2.1625,0.0,0.0,0.0,0.0,0.0,2.541,2.6314,2.7016,2.7226,2.8389,2.9488,2.9604,2.9618,2.9833,3.0454,3.0281,3.0649,3.2568,3.2478,3.2858,3.4964,3.4603,3.4511,3.5853,3.4287,3.3049,3.3052,3.2973,3.2191,3.0295,3.061,3.0394,2.9077,2.8246,2.7792,2.7792,2.724,2.6863,2.6832,2.571,2.5136,2.5222,2.4647,2.4173,2.3864,2.3406,2.3246,2.3363,2.3304,2.3348,2.3451,0.0,2.3523,2.3566,2.3767,2.4021,2.4297,2.4205,2.4444,2.4627,2.3174,2.2741,2.2529,0.0,0.0,0.0,0.0,0.0,0.0,0.0,0.0,0.0,0.0,0.0,0.0,0.0,0.0,0.0,0.0,0.0,0.0,0.0,0.0,0.0,1.6926,1.5182,1.3281,1.1161,1.1071,1.1931,1.3638,1.2633,1.1774,1.0968,0.992,0.8942,0.8216,0.862,0.8959,0.9211,1.028,1.1261,1.2137,0.0,0.0,0.0,0.0,0.0,0.0,0.0,0.0,0.0,0.0,2.121,2.1594,2.2606,0.0,0.0,0.0,0.0,0.0,2.5486,2.6254,2.7005,2.7514,2.8834,3.017,3.0733,3.0597,3.057,3.1249,3.1254,3.1537,3.2908,3.3158,3.3634,3.5164,3.507,3.4813,3.4924,3.37,3.2695,3.2398,3.2074,3.1298,3.0007,2.9771,2.9327,2.8266,2.7177,2.6596,2.6596,2.5954,2.5572,2.5557,2.4777,2.4236,2.4038,2.3196,2.2831,2.3054,2.2772,2.2575,2.2495,2.2328,2.236,2.2438,0.0,2.2543,2.2649,2.2606,2.2727,2.2995,2.2966,2.2877,2.2673,2.1744,2.1208,2.0665,0.0,0.0,0.0,0.0,0.0,0.0,0.0,0.0,0.0,0.0,0.0,0.0,0.0,0.0,0.0,0.0,0.0,0.0,0.0,0.0,1.6913,1.6866,1.6897,1.5488,1.2541,1.2446,1.3491,1.5591,1.439,1.3287,1.2311,1.0822,1.0041,0.9794,0.9857,1.0206,1.0805,1.1436,1.2446,1.355,0.0,0.0,0.0,0.0,0.0,0.0,0.0,0.0,0.0,0.0,0.0,0.0,0.0,0.0,0.0,2.4614,2.4879,2.5032,2.5416,2.6027,2.6759,2.7695,2.8993,3.0384,3.1421,3.1381,3.1264,3.1795,3.2104,3.2474,3.3023,3.3665,3.4341,3.5052,3.5015,3.4619,3.3968,3.302,3.2272,3.1811,3.1181,3.0503,2.984,2.9124,2.8336,2.7475,2.621,2.5446,2.525,2.4626,2.4209,2.4209,2.3601,2.3131,2.2831,2.1683,2.1452,2.2086,2.2058,2.1852,2.1506,2.1431,2.1403,2.1424,2.1424,2.1582,2.1752,2.1459,2.1479,2.1669,2.1505,2.0967,2.0288,2.0023,1.9287,1.8356,0.0,0.0,0.0,0.0,0.0,0.0,0.0,0.0,0.0,0.0,0.0,0.0,0.0,0.0,0.0,0.0,0.0,0.0,0.0,0.0,1.6887,1.6899,1.6917,1.679,1.6519,1.6482,1.6016,1.5049,1.468,1.3812,1.2478,1.1886,1.123,1.0754,1.1657,1.1978,1.1955,1.3439,1.4235,1.4609,1.533,0.0,0.0,0.0,0.0,0.0,0.0,0.0,0.0,0.0,0.0,0.0,0.0,0.0,2.4109,2.4508,2.4335,2.4166,2.508,2.548,2.6043,2.7525,2.8576,2.955,3.1002,3.1851,3.2401,3.2406,3.3011,3.3488,3.3554,3.4036,3.4513,3.4562,3.3658,3.3192,3.3795,3.2361,3.119,3.119,3.0598,2.9933,2.9226,2.8631,2.7728,2.6421,2.5653,2.4955,2.4227,2.3553,2.3142,2.3052,2.2091,2.1533,2.134,2.0271,2.0156,2.0944,2.0944,2.0845,2.0709,2.066,2.0646,2.0696,2.0696,2.0709,2.0696,2.0468,2.0429,2.038,1.9927,1.9271,1.8573,1.8461,1.7727,1.6464,0.0,0.0,0.0,0.0,0.0,0.0,0.0,0.0,0.0,0.0,0.0,0.0,0.0,0.0,0.0,0.0,0.0,0.0,0.0,0.0,1.7273,1.7245,1.7254,1.737,1.7612,1.7348,1.6881,1.6167,1.5225,1.4646,1.4378,1.347,1.3044,1.3028,1.3316,1.3411,1.3502,1.4292,1.5239,1.6179,1.6903,1.7629,0.0,0.0,0.0,0.0,0.0,0.0,0.0,0.0,2.4467,2.4969,0.0,2.4399,2.4914,2.4673,2.4697,2.4866,2.5214,2.5974,2.684,2.7575,2.8521,2.975,3.1495,3.2452,3.3184,3.3548,3.4611,3.5202,3.4316,3.4742,3.489,3.4005,3.3639,3.3279,3.2585,3.1242,3.0148,2.9666,2.9037,2.8539,2.8236,2.7569,2.6788,2.5901,2.4998,2.4218,2.3526,2.2743,2.2156,2.1846,2.1126,2.0646,2.0346,1.9604,1.9239,1.9254,1.9631,1.9798,1.9747,1.9643,1.9488,1.9307,1.9307,1.9202,1.9032,1.8797,1.8667,1.8602,1.8216,1.7702,1.709,1.7068,1.6211,1.4909,0.0,0.0,0.0,0.0,0.0,0.0,0.0,0.0,0.0,0.0,0.0,0.0,0.0,0.0,0.0,0.0,0.0,0.0,1.6067,1.668,1.7164,1.7456,1.7273,1.7408,1.7832,1.7533,1.7252,1.7176,1.6002,1.547,1.5541,1.4823,1.452,1.4696,1.4758,1.4824,1.4903,1.5546,1.6458,1.75,1.8506,1.9164,0.0,0.0,0.0,0.0,0.0,0.0,0.0,0.0,2.5297,0.0,0.0,0.0,2.5018,2.4606,2.4791,2.5132,2.537,2.6278,2.7306,2.7955,2.8881,3.0023,3.1805,3.2966,3.3763,3.4329,3.5059,3.5321,3.4262,3.4233,3.399,3.2934,3.2661,3.2222,3.1142,3.0052,2.916,2.8639,2.7787,2.7281,2.7173,2.6304,2.544,2.4775,2.4098,2.3392,2.2651,2.2076,2.1554,2.1091,2.0446,1.994,1.9475,1.8869,1.8333,1.7952,1.8321,1.8578,1.875,1.8548,1.8375,1.8147,1.8081,1.7972,1.782,1.7435,1.7146,1.6856,1.6641,1.6301,1.5891,1.5766,1.4934,1.3784,0.0,0.0,0.0,0.0,0.0,0.0,0.0,0.0,0.0,0.0,0.0,0.0,0.0,0.0,0.0,0.0,0.0,0.0,1.5994,1.6023,1.6403,1.7249,1.687,1.6904,1.7595,1.7169,1.7174,1.7696,1.6863,1.6196,1.5606,1.568,1.5541,1.5368,1.6075,1.6268,1.6125,1.7368,1.8062,1.8496,1.9987,2.0445,2.0423,0.0,0.0,0.0,0.0,0.0,0.0,0.0,2.6344,2.591,0.0,0.0,0.0,2.4291,2.4482,2.4801,2.5534,2.6254,2.7201,2.8719,2.9499,3.0315,3.1861,3.3182,3.4194,3.459,3.4122,3.3507,3.3214,3.231,3.1485,3.1241,3.0371,2.9697,2.9682,2.8803,2.8168,2.8168,2.7069,2.6272,2.5988,2.4845,2.3722,2.2851,2.2796,2.2421,2.1643,2.1616,2.1361,2.0795,2.0029,1.9294,1.8715,1.7886,1.7412,1.719,1.7067,1.7224,1.7667,1.749,1.7379,1.7379,1.7257,1.7202,1.7146,1.6528,1.5911,1.5362,1.5264,1.5098,1.497,1.4597,1.3855,1.2956,0.0,0.0,0.0,0.0,0.0,0.0,0.0,0.0,0.0,0.0,0.0,0.0,0.0,0.0,0.0,0.0,0.0,0.0,1.6935,1.7064,1.7334,1.7822,1.7823,1.7946,1.829,1.8648,1.8398,1.7456,1.6954,1.6691,1.6713,1.6849,1.6852,1.6877,1.7798,1.8056,1.7904,1.8827,1.9768,2.0686,2.2048,2.3031,2.3752,0.0,0.0,0.0,0.0,0.0,0.0,0.0,0.0,0.0,0.0,0.0,0.0,2.567,2.6009,2.67,2.7252,2.7985,2.8785,2.9416,3.0083,3.086,3.1946,3.2647,3.3251,3.389,3.287,3.1892,3.1792,3.1544,3.075,2.8951,2.923,2.8959,2.6683,2.6428,2.6118,2.514,2.4563,2.4182,2.413,2.3747,2.3228,2.2451,2.218,2.1595,2.0385,2.051,2.0055,1.878,1.8874,1.8501,1.749,1.7279,1.6955,1.657,1.6513,1.6729,1.7224,1.7078,1.6853,1.6616,1.656,1.6332,1.5911,1.5536,1.5313,1.5079,1.4902,1.4419,1.3752,1.3563,1.2834,1.1988,0.0,0.0,0.0,0.0,0.0,0.0,0.0,0.0,0.0,0.0,0.0,0.0,0.0,0.0,0.0,0.0,0.0,0.0,0.0,1.7752,1.7926,1.8262,1.8692,1.9078,1.9379,1.9657,1.9371,1.8462,1.8027,1.7679,1.7552,1.8322,1.8674,1.8672,1.9633,1.9977,1.9949,2.0489,2.1406,2.2567,2.3926,2.4936,2.5787,0.0,0.0,0.0,0.0,0.0,0.0,0.0,0.0,0.0,2.6816,0.0,2.7157,2.6583,2.684,2.738,2.771,2.8562,2.9446,2.9895,3.0511,3.1024,3.1196,3.2025,3.2902,3.3636,3.2499,3.1306,3.0939,3.0537,2.9546,2.7455,2.7504,2.7033,2.4881,2.4709,2.4459,2.3637,2.318,2.2888,2.2785,2.249,2.2105,2.1568,2.1094,2.0514,1.9656,1.9527,1.8939,1.782,1.7961,1.7578,1.6729,1.6627,1.64,1.6066,1.6009,1.6056,1.6275,1.6285,1.6114,1.5836,1.5778,1.5536,1.5108,1.4781,1.4585,1.4478,1.4187,1.3681,1.3094,1.2964,1.2421,1.1747,0.0,0.0,0.0,0.0,0.0,0.0,0.0,0.0,0.0,0.0,0.0,0.0,0.0,0.0,0.0,0.0,0.0,0.0,0.0,0.0,1.8464,1.8782,1.9545,2.0159,2.0741,2.0425,2.0243,2.0243,1.9793,1.9149,1.8293,1.9951,2.0643,2.0676,2.1574,2.2021,2.2128,2.2409,2.3122,2.4222,2.5621,2.6437,2.6886,2.7782,0.0,0.0,0.0,0.0,0.0,0.0,0.0,0.0,2.8339,2.7939,2.7349,2.7344,2.7317,2.7395,2.761,2.848,2.9485,3.0278,3.0873,3.1065,3.0107,3.127,3.2718,3.3302,3.236,3.1182,3.0274,2.9203,2.7933,2.6419,2.537,2.4453,2.3755,2.3351,2.3133,2.3065,2.2498,2.2059,2.1859,2.1096,2.0529,2.032,1.9634,1.9196,1.9141,1.8549,1.797,1.7468,1.7135,1.6765,1.6239,1.6019,1.5798,1.5672,1.5478,1.5313,1.5147,1.5313,1.5294,1.5099,1.4982,1.4768,1.4517,1.4146,1.3874,1.3639,1.3267,1.2949,1.2696,1.2728,1.2428,1.1996,0.0,0.0,0.0,0.0,0.0,0.0,0.0,0.0,0.0,0.0,0.0,0.0,0.0,0.0,0.0,0.0,0.0,0.0,0.0,0.0,2.0144,2.0233,2.0725,2.1286,2.1918,2.1773,2.152,2.1205,2.066,2.0359,2.0142,2.1107,2.1754,2.2237,2.2867,2.3416,2.3997,2.4665,2.5172,2.5701,2.7534,2.8291,2.8436,2.9482,2.9793,0.0,0.0,0.0,0.0,0.0,0.0,0.0,2.8854,2.9053,2.928,2.905,2.9088,2.9329,2.9734,2.9846,3.0085,3.0757,3.1181,3.1192,3.0454,3.012,2.9986,2.9819,2.9376,2.8778,2.8005,2.7255,2.6202,2.4557,2.4155,2.356,2.1975,2.1958,2.1874,2.1244,2.0492,2.0174,2.0527,1.9649,1.9032,1.8933,1.84,1.7793,1.7168,1.7296,1.709,1.6425,1.6708,1.6492,1.5846,1.5798,1.5624,1.5332,1.5264,1.5088,1.4834,1.502,1.4916,1.4554,1.4373,1.4007,1.3599,1.3396,1.3081,1.2785,1.2819,1.2488,1.1991,1.202,1.1802,1.1428,0.0,0.0,0.0,0.0,0.0,0.0,0.0,0.0,0.0,0.0,0.0,0.0,0.0,0.0,0.0,0.0,0.0,0.0,0.0,0.0,2.2118,2.2569,2.2406,2.2747,2.367,2.3346,2.3069,2.2862,2.2942,2.253,2.1716,2.3102,2.3961,2.4435,2.4866,2.5332,2.5874,2.6113,2.6663,2.747,2.8909,2.9794,3.0303,3.0925,3.1055,3.0931,3.1027,0.0,0.0,0.0,0.0,0.0,0.0,0.0,3.0337,3.0046,3.0133,3.0231,2.9918,2.9904,3.0019,3.0099,3.0412,3.0464,2.9485,2.9175,2.8946,2.847,2.8495,2.8164,2.6886,2.6381,2.5492,2.3396,2.2901,2.2377,2.1027,2.1062,2.0871,2.0135,1.9896,1.9797,1.9823,1.9249,1.8729,1.8448,1.7577,1.6754,1.6049,1.6117,1.5983,1.5562,1.5731,1.5719,1.5439,1.5086,1.4809,1.4667,1.4667,1.4597,1.4488,1.4675,1.452,1.4072,1.3939,1.3606,1.3059,1.2698,1.2336,1.212,1.1857,1.1618,1.145,1.1442,1.1421,1.1303,0.0,0.0,0.0,0.0,0.0,0.0,0.0,0.0,0.0,0.0,0.0,0.0,0.0,0.0,0.0,0.0,0.0,0.0,0.0,0.0,0.0,2.4856,2.4146,2.4246,2.5284,2.4709,2.441,2.4426,2.5217,2.4863,2.3495,2.5077,2.6045,2.6494,2.6565,2.6914,2.7348,2.7081,2.7657,2.8863,2.9964,3.0902,3.1653,3.1969,3.195,3.1716,3.1752,3.1511,3.1145,3.0948,0.0,0.0,0.0,0.0,3.1112,3.0549,3.0604,3.0564,2.9402,2.9548,2.9834,2.9312,2.9689,2.9856,2.8627,2.8743,2.894,2.8273,2.8485,2.8197,2.6226,2.5797,2.4999,2.2503,2.1588,2.1019,2.0356,2.0268,1.9999,1.9274,1.9646,1.9799,1.9341,1.9027,1.8597,1.8001,1.6807,1.5825,1.5254,1.4905,1.4775,1.4844,1.4733,1.4741,1.4936,1.4292,1.4,1.4007,1.3951,1.4002,1.4227,1.4214,1.3996,1.3546,1.3474,1.3175,1.2627,1.2026,1.1643,1.1454,1.0857,1.0816,1.0997,1.0996,1.1099,1.1178,0.0,0.0,0.0,0.0,0.0,0.0,0.0,0.0,0.0,0.0,0.0,0.0,0.0,0.0,0.0,0.0,0.0,0.0,2.5137,0.0,0.0,2.5654,2.5219,2.5203,2.579,2.5186,2.4879,2.4974,2.5726,2.6134,2.6182,2.605,2.6419,2.7211,2.626,2.6529,2.7662,2.772,2.8049,2.8722,3.0512,3.1128,3.1063,3.2105,3.2214,3.1825,3.2039,3.1842,3.1476,3.1821,3.1694,0.0,0.0,0.0,3.2063,3.0379,3.0384,3.0639,2.9448,2.9604,3.0103,2.9924,3.0372,3.0661,2.9917,2.972,2.9478,2.8852,2.8308,2.7375,2.5553,2.4687,2.3596,2.167,2.0435,1.96,1.9417,1.9368,1.9116,1.8415,1.8733,1.8971,1.8908,1.7904,1.7098,1.6585,1.5559,1.4712,1.4154,1.3838,1.39,1.4282,1.4067,1.3933,1.3991,1.3886,1.3749,1.3597,1.3314,1.3412,1.3784,1.3327,1.3028,1.2893,1.2627,1.2158,1.1676,1.1319,1.097,1.0629,1.057,1.0505,1.0451,1.0611,1.0725,1.087,0.0,0.0,0.0,0.0,0.0,0.0,0.0,0.0,0.0,0.0,0.0,0.0,0.0,0.0,0.0,2.6621,2.6686,2.6719,2.6686,2.6302,2.6189,2.6396,2.6072,2.5963,2.614,2.581,2.5742,2.5928,2.7097,2.7793,2.8095,2.8423,2.8616,2.8639,2.7831,2.7883,2.863,2.8388,2.8523,2.9052,3.0809,3.1529,3.1635,3.2657,3.2816,3.2486,3.2654,3.2453,3.2092,3.2002,3.2225,3.23,3.1099,0.0,0.0,0.0,3.0803,3.0768,2.9738,2.9157,2.891,2.9147,2.9735,3.0087,2.9678,2.9849,2.9764,2.8613,2.7889,2.701,2.561,2.4193,2.3022,2.2148,2.0718,1.9724,1.9623,1.9258,1.8645,1.7654,1.7931,1.8031,1.7424,1.693,1.6268,1.5395,1.4568,1.3815,1.3273,1.3268,1.3378,1.357,1.3466,1.3484,1.3612,1.3204,1.2926,1.2938,1.2743,1.2787,1.3079,1.2471,1.2305,1.2404,1.2246,1.1792,1.1124,1.0871,1.0685,1.0515,1.0331,1.0411,1.0578,1.0661,1.0534,1.0225,0.0,0.0,0.0,0.0,0.0,0.0,0.0,0.0,0.0,0.0,0.0,0.0,0.0,0.0,0.0,0.0,2.7747,2.7794,2.7789,2.7238,2.6967,2.7066,2.6774,2.659,2.6539,2.6453,2.6539,2.6805,2.81,2.892,2.9351,3.0231,3.0554,3.0398,2.9257,2.8991,2.9308,2.8714,2.87,2.9193,3.0796,3.1606,3.1931,3.3002,3.3244,3.3042,3.3104,3.293,3.2606,3.2109,3.2402,3.2676,3.1069,3.1279,0.0,0.0,0.0,3.0654,2.9769,2.892,2.8372,2.8712,2.9167,2.9615,2.9707,3.0018,2.9873,2.8433,2.7636,2.6778,2.5399,2.3917,2.279,2.2389,2.1078,2.0039,1.9809,1.9207,1.8301,1.7134,1.7431,1.7339,1.6327,1.6233,1.5747,1.4609,1.3934,1.3314,1.2725,1.2814,1.2884,1.2884,1.2874,1.2931,1.3143,1.254,1.2278,1.2464,1.2218,1.2219,1.2462,1.1858,1.1696,1.1817,1.1713,1.1343,1.0769,1.047,1.0353,1.0317,1.0129,1.0279,1.0545,1.0435,1.0096,0.9709,0.0,0.0,0.0,0.0,0.0,0.0,0.0,0.0,0.0,0.0,0.0,0.0,2.8246,2.8533,2.8694,2.8644,2.8626,2.8543,2.83,2.8,2.7754,2.7565,2.7244,0.0,2.7241,2.71,2.7164,2.7348,2.8146,2.8893,2.9706,3.0455,3.1375,3.2329,2.9828,2.8903,2.9165,2.8439,2.8327,2.876,3.0378,3.1057,3.122,3.2795,3.3256,3.3086,3.317,3.3078,3.2802,3.2284,3.2179,3.2108,3.0608,3.0931,3.1656,0.0,0.0,0.0,2.9276,2.9357,2.9612,2.9342,2.9317,2.9674,3.0748,3.057,2.975,2.8469,2.7621,2.6485,2.4469,2.3668,2.2949,2.1724,2.0882,2.0159,1.9547,1.8953,1.8216,1.7134,1.7372,1.7231,1.6221,1.5997,1.5508,1.4492,1.381,1.318,1.2725,1.245,1.236,1.236,1.2203,1.2172,1.219,1.1995,1.2034,1.2272,1.1789,1.1764,1.2087,1.1584,1.1201,1.0947,1.0699,1.0538,1.0522,1.0154,0.9947,0.9821,0.9879,0.9925,0.9908,0.9513,0.9413,0.9454,0.0,0.0,0.0,0.0,0.0,0.0,0.0,0.0,0.0,0.0,0.0,0.0,0.0,2.8543,2.8662,2.8761,2.8761,2.8687,2.851,2.8438,2.8324,2.811,2.7956,2.7837,2.7805,2.7718,2.7765,2.789,2.8641,2.9249,2.9715,3.0487,3.1112,3.1452,3.0272,2.9929,3.0212,2.8989,2.8858,2.9533,3.0622,3.1338,3.189,3.2977,3.3274,3.3104,3.3112,3.303,3.2864,3.2696,3.2307,3.182,3.1341,3.1391,3.1443,3.0386,3.0363,3.0639,3.0288,2.9561,2.8988,2.9297,2.8966,2.8714,2.9059,2.8901,2.8369,2.6868,2.6099,2.5263,2.4001,2.3129,2.2521,2.23,2.1338,2.0575,2.0324,1.9478,1.8434,1.719,1.6688,1.593,1.4757,1.4344,1.3886,1.3224,1.289,1.2608,1.2421,1.2274,1.2175,1.2175,1.2026,1.1927,1.1828,1.1719,1.1698,1.1789,1.1345,1.1192,1.1327,1.0724,1.0403,1.0308,1.0035,0.988,0.9784,0.9947,0.9984,0.9925,0.9622,0.9675,0.9858,0.9143,0.8601,0.8166,0.0,0.0,0.0,0.0,0.0,0.0,0.0,0.0,0.0,0.0,0.0,0.0,0.0,0.0,2.8743,2.8957,2.8934,2.8845,2.8773,2.8837,2.8772,2.8558,2.8467,2.8424,2.8402,2.8264,2.8281,2.8438,2.89,2.9341,2.9799,3.0369,3.0839,3.1192,3.0725,3.0556,3.0487,2.9207,2.9003,2.9595,3.0685,3.1402,3.1898,3.2995,3.3322,3.3206,3.3208,3.2902,3.2558,3.3011,3.2639,3.1924,3.1373,3.1274,3.1229,3.0454,3.0723,3.1283,3.0875,2.9948,2.9065,2.9233,2.868,2.8071,2.7954,2.7696,2.7127,2.5692,2.503,2.4378,2.3394,2.2658,2.2307,2.2555,2.1884,2.1243,2.1003,2.0081,1.8975,1.7736,1.6785,1.5716,1.4324,1.3941,1.352,1.2748,1.2579,1.2423,1.2332,1.2175,1.2076,1.2026,1.1877,1.1778,1.1619,1.1528,1.1418,1.1326,1.1023,1.0871,1.0769,1.036,1.0102,0.9999,0.9836,0.9621,0.9465,0.9784,0.9778,0.9568,0.9343,0.9292,0.9327,0.8548,0.7972,0.7456,0.0,0.0,0.0,0.0,0.0,0.0,0.0,0.0,0.0,2.6271,0.0,0.0,0.0,0.0,0.0,2.9293,2.9191,2.9126,2.9107,2.9177,2.9114,2.8819,2.8772,2.8819,2.9016,2.8755,2.87,0.0,0.0,0.0,2.9875,3.0067,3.0703,3.1674,3.1162,3.0516,2.9821,2.8966,2.8651,2.8837,3.0521,3.1139,3.1237,3.2803,3.3388,3.3406,3.3419,3.2645,3.1864,3.3162,3.3156,3.2366,3.0589,3.0493,3.1011,3.0381,3.1043,3.1845,0.0,0.0,0.0,2.9315,2.8502,2.7853,2.7768,2.7129,2.621,2.5004,2.458,2.4048,2.2629,2.242,2.242,2.242,2.242,2.2177,2.15,2.0759,1.9866,1.8668,1.7823,1.6761,1.5149,1.4978,1.4459,1.3214,1.2983,1.2702,1.2311,1.2184,1.2026,1.1877,1.1778,1.1628,1.1528,1.1477,1.1276,1.0922,1.0871,1.0718,1.047,1.047,1.0308,0.9947,0.9947,0.9836,0.9562,0.9562,0.9256,0.8791,0.8972,0.8663,0.8142,0.7619,0.7456,0.7396,0.0,0.0,0.0,0.0,0.0,0.0,0.0,0.0,0.0,0.0,0.0,0.0,2.9277,2.9418,2.9514,2.9533,2.9514,2.9494,2.9398,2.9533,2.9533,2.9319,2.9395,2.9373,2.9291,2.9123,2.9007,0.0,0.0,0.0,0.0,0.0,0.0,2.9489,2.9319,2.9204,2.9089,2.8858,2.876,2.892,3.0658,3.1965,3.292,3.3259,3.3412,3.3414,3.3406,3.2279,3.0834,3.0933,3.2166,3.3273,3.0956,3.0782,3.1265,3.0339,3.1004,3.1894,3.1414,0.0,0.0,0.0,0.0,0.0,2.5894,2.5317,2.4678,2.3351,2.2997,2.2825,2.2333,2.2123,2.2049,2.2049,2.2049,2.1939,2.1796,2.0737,1.9605,1.8776,1.7395,1.6048,1.477,1.4392,1.3942,1.3266,1.2942,1.272,1.261,1.2182,1.1828,1.1628,1.1569,1.1469,1.1377,1.1175,1.1023,1.0871,1.0462,1.0205,1.0102,0.9932,0.9629,0.9271,0.9271,0.9054,0.8732,0.8837,0.8584,0.8029,0.7708,0.7571,0.7567,0.6905,0.6679,0.6679,0.0,0.0,0.0,0.0,0.0,0.0,0.0,0.0,0.0,0.0,0.0,0.0,2.9983,3.0169,3.0258,3.0309,2.999,2.975,2.9661,2.9839,2.9803,2.9551,2.9662,2.9663,2.9532,2.9372,2.924,0.0,0.0,0.0,0.0,0.0,0.0,0.0,2.8713,2.8815,2.8887,2.8877,2.8894,2.9098,3.1455,3.2848,3.3504,3.3441,3.331,3.3113,3.2424,3.1871,3.1244,3.0307,3.1038,3.2056,3.0339,3.0353,3.0793,2.9909,3.0183,3.0758,3.0683,3.0179,2.9569,2.9131,0.0,0.0,2.5551,2.4726,2.3978,2.2702,2.2297,2.2173,2.2061,2.1937,2.1812,2.1812,2.1737,2.1588,2.1388,2.0355,1.9329,1.8609,1.759,1.65,1.5357,1.4882,1.4405,1.3846,1.3406,1.302,1.2629,1.2196,1.1796,1.1528,1.1427,1.1377,1.1326,1.1023,1.082,1.0726,1.0205,0.994,0.9836,0.9517,0.9211,0.9008,0.8798,0.8421,0.7937,0.7931,0.7751,0.7533,0.7173,0.6959,0.6922,0.6517,0.642,0.642,0.0,0.0,0.0,0.0,0.0,0.0,0.0,0.0,0.0,0.0,2.8847,2.9491,3.1011,3.1123,3.1189,3.1447,3.0544,2.9984,3.0105,3.0106,2.9965,2.9677,2.9767,2.9784,2.9715,2.951,2.9588,0.0,0.0,0.0,0.0,0.0,0.0,0.0,0.0,0.0,2.8997,2.9004,2.9191,2.9751,3.2655,3.3652,3.3385,3.3382,3.319,3.2701,3.1185,3.142,3.2234,3.0734,3.0082,2.9786,2.9354,2.9596,2.994,2.9381,2.9093,2.9076,2.9319,2.9144,2.8855,2.8671,2.8295,0.0,2.5878,2.4719,2.3678,2.2567,2.2111,2.1925,2.1874,2.1749,2.1698,2.1698,2.1348,2.0996,2.0655,1.9814,1.9034,1.8267,1.8017,1.7475,1.6416,1.5936,1.5377,1.4634,1.4148,1.3488,1.2563,1.2175,1.1861,1.1608,1.1455,1.1336,1.1336,1.1124,1.0799,1.0522,1.0141,0.9821,0.951,0.9106,0.8903,0.885,0.8474,0.7883,0.7235,0.6961,0.6966,0.7117,0.6953,0.6653,0.6293,0.6351,0.642,0.642,2.5044,0.0,0.0,0.0,0.0,0.0,0.0,0.0,0.0,2.962,3.0354,3.123,3.2244,3.1891,3.1826,3.253,3.1148,3.059,3.1456,3.0615,3.0098,3.0079,2.9945,2.988,2.9868,2.9567,3.0681,0.0,0.0,0.0,0.0,0.0,0.0,0.0,0.0,0.0,2.8989,2.8986,3.0374,3.261,3.346,3.3651,3.3385,3.3386,3.3196,3.2763,3.1828,3.1227,3.0937,3.1178,3.0477,2.9627,2.9895,2.9926,2.9744,2.9346,2.9093,2.897,2.8816,2.8179,2.7394,2.6769,2.6313,0.0,2.4301,2.3671,2.3044,2.2185,2.1925,2.1874,2.1761,2.1612,2.1463,2.1463,2.0355,1.9694,2.0355,1.9628,1.8767,1.8094,1.7501,1.688,1.6358,1.5936,1.5487,1.5019,1.4168,1.3316,1.2633,1.2218,1.2051,1.2221,1.1884,1.1677,1.1677,1.148,1.1064,1.047,0.9899,0.9409,0.9113,0.8685,0.8315,0.7937,0.7883,0.7456,0.681,0.648,0.6213,0.6101,0.6095,0.6065,0.5994,0.6286,0.642,0.6416,2.5144,0.0,0.0,0.0,0.0,0.0,0.0,0.0,3.03,3.0753,3.1971,3.2952,3.3412,3.314,3.3051,3.3327,3.2006,3.1128,3.1096,3.0496,3.017,3.0198,3.0098,3.0002,2.9902,3.1374,3.282,0.0,0.0,0.0,0.0,0.0,0.0,0.0,0.0,0.0,2.9101,3.0717,3.2243,3.3582,3.3607,3.3522,3.3411,3.3393,3.3055,3.2515,3.1846,3.107,3.0394,3.0746,3.0368,2.9685,2.9688,2.9564,2.9326,2.8839,2.8347,2.7951,2.7639,2.7132,2.6491,2.5688,2.5441,0.0,0.0,2.3192,2.2712,2.2035,2.18,2.16,2.1549,2.1411,2.121,2.0805,2.0096,1.9431,1.91,1.8365,1.7687,1.7354,1.689,1.6477,1.6071,1.5674,1.5196,1.4601,1.399,1.3482,1.2933,1.2621,1.2462,1.2389,1.2209,1.2115,1.2115,1.1686,1.1201,1.0593,0.9838,0.9349,0.9004,0.8334,0.8009,0.7851,0.7399,0.6918,0.6431,0.6109,0.5899,0.5736,0.5842,0.5888,0.5933,0.6286,0.642,0.635,2.525,0.0,0.0,0.0,0.0,0.0,0.0,0.0,3.1006,3.2062,3.3371,3.4353,3.4693,3.4417,3.4276,3.4449,3.2947,3.1799,3.132,3.061,3.0194,3.0198,3.0164,3.0067,2.9897,3.3185,3.4717,0.0,0.0,0.0,0.0,0.0,0.0,0.0,0.0,2.9289,3.0094,3.2686,3.3788,3.3713,3.3497,3.3421,3.339,3.3256,3.2844,3.2294,3.1652,3.0909,3.0189,3.0248,3.0076,2.9786,2.9366,2.9121,2.892,2.8414,2.7649,2.6886,2.6439,2.5997,2.5511,2.4611,2.4472,2.4187,0.0,0.0,0.0,2.1611,2.146,2.1365,2.1197,2.1009,2.0692,2.0029,1.9695,1.9031,1.7716,1.6973,1.6533,1.6542,1.6341,1.6129,1.589,1.5588,1.5021,1.402,1.3961,1.3787,1.3275,1.3072,1.2869,1.2507,1.2422,1.2388,1.2332,1.1768,1.1157,1.0565,0.9769,0.9245,0.8881,0.8049,0.7718,0.785,0.7051,0.6485,0.6159,0.5936,0.5767,0.5628,0.5815,0.5908,0.5977,0.6298,0.642,0.635,2.5447,2.7316,0.0,0.0,0.0,0.0,0.0,0.0,3.2151,3.3796,3.4174,3.487,3.6416,3.5162,3.4911,3.6675,3.3848,3.2828,3.4784,3.1962,3.0202,3.0198,3.0045,2.9926,2.9897,3.3185,3.4868,3.4826,0.0,0.0,0.0,0.0,0.0,0.0,2.8737,3.035,3.3284,3.3637,3.3697,3.3524,3.3505,3.3486,3.3411,3.2746,3.2545,3.2419,3.1493,3.0764,3.0231,3.0333,3.0076,2.9697,2.9637,2.9243,2.8701,2.8511,2.7682,2.6666,2.5821,2.477,2.3692,2.2816,2.2038,2.1408,2.1158,0.0,2.1055,2.0299,0.0,2.1197,2.0634,0.0,0.0,1.941,1.8294,1.7317,1.693,1.6455,1.6202,1.6342,1.6032,1.5943,1.6244,1.6166,1.553,1.3935,1.4397,1.4395,1.3485,1.3151,1.2991,1.291,1.2663,1.2373,1.2073,1.154,1.097,1.0229,0.9358,0.8693,0.8202,0.7655,0.7361,0.7177,0.6874,0.6485,0.6168,0.6079,0.5883,0.5628,0.5815,0.5982,0.6203,0.6343,0.642,0.6354,2.705,2.8152,0.0,0.0,0.0,0.0,0.0,0.0,3.3751,3.4951,3.5988,3.69,3.7638,3.6726,3.6102,3.6209,3.4873,3.4397,3.5268,3.3934,3.3108,3.3092,3.1156,3.094,3.2762,3.4186,3.4889,3.4903,3.4706,0.0,0.0,0.0,0.0,0.0,3.1569,3.2187,3.3589,3.3695,3.3643,3.3487,3.3504,3.3484,3.3368,3.2791,3.2017,3.1094,3.0325,2.9615,2.9108,2.9452,2.9153,2.8666,2.8766,2.8265,2.7623,2.7215,2.6767,2.6188,2.5171,2.4559,2.3727,2.2146,2.1631,2.1293,2.0543,2.0423,2.0441,2.0112,0.0,0.0,0.0,0.0,0.0,0.0,1.7586,1.7081,1.6487,1.6018,1.585,1.6132,1.6114,1.5965,1.5687,1.5661,1.5115,1.3735,1.4357,1.4397,1.3554,1.3365,1.3177,1.2981,1.2833,1.2502,1.1882,1.148,1.085,0.9977,0.9273,0.8611,0.8043,0.7532,0.7257,0.7047,0.6634,0.634,0.6131,0.6048,0.5893,0.5791,0.5847,0.5962,0.6046,0.609,0.609,0.6086,2.9193,2.9606,3.0234,3.0858,0.0,0.0,0.0,0.0,3.5249,3.6292,3.7537,3.8373,3.8529,3.7866,3.725,3.6911,3.6035,3.5828,3.6588,3.5726,3.5197,3.5216,3.2874,3.2638,3.4937,3.494,3.4907,3.4906,0.0,0.0,0.0,0.0,0.0,0.0,3.3722,3.3515,3.3513,3.3652,3.3616,3.3494,3.3491,3.3286,3.2957,3.2388,3.1307,2.9952,2.9281,2.8702,2.826,2.8625,2.8421,0.0,2.7838,2.7312,2.6616,2.5964,2.5754,2.5515,2.446,2.4093,2.355,2.1794,2.1299,2.0937,1.9976,1.9817,1.9795,1.9425,1.94,0.0,0.0,0.0,1.7936,1.698,0.0,1.6374,1.5748,1.5438,1.5426,1.578,1.6033,1.5863,1.5091,1.5426,1.5095,1.3726,1.4315,1.4315,1.338,1.3268,1.3094,1.2736,1.2736,1.2359,1.1531,1.1163,1.0534,0.9646,0.8954,0.8365,0.7886,0.7434,0.7162,0.7002,0.6489,0.6228,0.6169,0.5944,0.59,0.5916,0.584,0.5709,0.5596,0.5782,0.5888,0.5822,3.1724,3.1895,3.1899,3.1864,3.2577,0.0,0.0,3.5786,3.646,3.8096,3.8369,3.8597,3.9117,3.8121,3.8194,4.0176,3.7371,3.6872,4.0123,3.7102,3.5203,3.52,3.5098,3.5083,3.5174,3.4997,3.4906,3.4888,0.0,0.0,0.0,0.0,0.0,0.0,3.3917,3.3787,3.3788,3.3725,3.3632,3.3491,3.3422,3.288,3.1951,3.115,3.0321,2.9493,2.8733,2.8312,2.8217,2.8201,2.8106,0.0,0.0,0.0,2.5986,2.5195,2.4862,2.4565,2.3672,2.3054,2.2469,2.1703,2.0486,1.9429,1.9275,1.9257,1.8995,1.7757,1.8173,1.8321,1.7088,1.6417,1.6007,1.6034,1.5106,0.0,0.0,1.4638,1.4776,1.5204,1.5607,1.5479,1.4609,1.5922,1.6015,1.4114,1.442,1.4239,1.3099,1.2736,1.2428,1.212,1.2127,1.1685,1.0863,1.0281,0.9767,0.9338,0.8425,0.7866,0.7606,0.7274,0.6979,0.6801,0.6431,0.6302,0.6255,0.6009,0.5891,0.5907,0.5679,0.5213,0.4752,0.5624,0.5888,0.5756,3.4309,3.4142,3.3771,3.3707,3.3938,3.4726,3.6511,3.7298,3.8099,3.9247,3.9868,4.0251,4.0446,4.0097,4.0124,4.083,3.9627,3.9289,4.0442,3.7175,3.5187,3.5203,3.5196,3.52,3.5202,3.5131,3.5039,3.4889,3.4908,0.0,0.0,0.0,0.0,0.0,0.0,3.3876,3.3807,3.3661,3.3509,3.3352,3.3214,3.2545,3.1593,3.0924,2.9924,2.8738,2.7855,2.7255,0.0,2.7175,2.6973,2.6569,2.6388,2.557,2.4605,2.3996,2.3477,2.2943,0.0,0.0,2.1644,2.0864,0.0,1.9678,1.9165,1.897,1.8542,1.759,1.7475,1.7132,1.5674,1.5279,1.496,1.4348,1.4088,1.3988,0.0,1.4034,1.3947,1.4084,1.4855,1.5104,1.4609,1.5503,1.5408,1.381,1.4107,1.3941,1.303,1.2674,1.2367,1.2127,1.1747,1.117,1.0281,0.9773,0.9139,0.8436,0.8117,0.7687,0.7104,0.7044,0.681,0.6557,0.6429,0.6236,0.6013,0.5542,0.522,0.5011,0.4435,0.4087,0.3956,0.4622,0.4553,0.4084,3.5268,3.5312,3.5234,3.5476,3.5535,3.6163,3.7945,3.8938,3.9696,4.024,4.1133,4.1553,4.1133,4.1095,4.0563,3.9228,3.8872,3.873,3.8723,3.7686,3.7064,3.7028,3.584,3.52,3.5204,3.5131,3.5039,3.4889,3.4908,3.4907,0.0,0.0,0.0,0.0,0.0,3.3947,3.3788,3.3671,3.352,3.3322,3.3122,3.2321,3.1155,3.0473,2.9416,2.8179,0.0,2.6512,2.6145,2.64,2.6199,2.5761,2.5375,2.4522,2.3507,2.2739,2.2174,2.1759,2.1406,2.1247,0.0,2.0427,1.9963,0.0,1.9124,1.8548,1.7941,1.7157,1.6652,1.5911,1.4501,1.423,1.402,1.3418,1.3259,1.3377,0.0,1.3295,1.303,1.355,1.4266,1.4494,1.3985,1.4981,1.4953,1.3055,1.3372,1.3212,1.2143,1.1899,1.16,1.1358,1.1094,1.0584,0.9773,0.946,0.8888,0.7987,0.7852,0.7531,0.6881,0.6749,0.6618,0.642,0.642,0.609,0.5607,0.518,0.4701,0.4172,0.3593,0.3218,0.3084,0.3685,0.3418,0.2815,3.4882,3.5623,3.6483,3.726,3.74,3.7988,3.9647,4.0581,4.1103,4.1099,4.2031,4.2311,4.1212,4.0921,3.9383,3.5817,3.5509,3.5494,3.5492,3.8635,4.0358,4.0076,3.6936,3.5196,3.52,3.4999,3.4982,3.5153,3.4983,0.0,0.0,0.0,0.0,0.0,3.4216,3.3998,3.3807,3.3726,3.3577,3.3364,3.3165,3.2157,3.0681,2.9816,2.8836,2.7794,2.6597,2.6115,2.599,2.5917,2.5791,2.5497,2.4282,2.352,2.2803,2.1438,2.1015,2.1013,2.0734,2.0532,2.0424,2.0424,1.9707,0.0,0.0,0.0,1.7157,1.6415,1.568,1.4815,1.3502,1.3268,1.3202,1.3036,1.2675,1.2549,1.2921,1.2263,1.2164,1.3316,1.3722,1.3597,1.2765,1.4469,1.4509,1.1962,1.241,1.2147,1.0588,1.0542,1.0371,1.0047,1.0248,0.9993,0.9274,0.9274,0.8823,0.7987,0.7657,0.7265,0.6881,0.6552,0.642,0.6416,0.6354,0.5885,0.5087,0.4815,0.4217,0.342,0.3218,0.2681,0.2147,0.2815,0.2681,0.208,3.7331,3.878,3.986,4.0058,3.9629,3.9375,3.9824,4.0583,4.1107,4.1105,4.135,4.1429,4.1134,3.861,3.655,3.559,3.5509,3.5498,3.5504,3.8627,3.9304,3.6623,3.5684,3.5198,3.52,3.4999,3.6121,3.8613,3.6122,0.0,3.6139,0.0,0.0,0.0,0.0,3.4023,3.3807,3.3726,3.3502,3.3135,3.2687,3.1659,3.0328,0.0,2.8236,2.7012,2.6291,2.6026,2.5974,2.5828,2.5642,2.5307,2.4292,2.3447,2.2653,2.1582,2.0864,2.0348,1.9985,1.9775,1.9642,1.9322,1.9054,1.8679,0.0,0.0,0.0,0.0,0.0,0.0,0.0,1.2789,1.2575,1.2039,1.1876,1.1983,1.2305,1.1774,1.155,1.2064,1.1852,1.1993,1.2832,1.3475,1.3273,1.1806,1.2332,1.2178,1.0895,1.1563,1.149,1.0305,0.9946,0.9658,0.9274,0.863,0.8112,0.7657,0.7269,0.6876,0.6548,0.6416,0.635,0.6214,0.5686,0.5156,0.4625,0.3485,0.2815,0.2415,0.1879,0.1545,0.1411,0.1545,0.1546,0.1347,3.8785,4.0494,4.1672,4.1677,4.1405,4.121,4.1211,4.201,4.2262,4.1266,4.2451,4.2213,3.9195,3.6856,3.5503,3.5496,3.4122,3.3903,3.5397,3.7262,3.739,3.5289,3.519,3.5198,3.5185,3.4567,3.6102,3.9891,3.6402,0.0,3.6557,0.0,0.0,0.0,0.0,3.4074,3.3815,3.3661,3.3327,3.288,3.2504,3.1285,0.0,2.9107,2.7889,2.6418,2.6099,2.5954,2.5917,2.568,2.5307,2.4823,2.3903,2.3054,2.2257,2.1307,2.061,2.0029,1.9708,1.9408,1.9158,1.8946,1.8744,1.841,1.7611,1.7034,1.6404,0.0,1.4579,1.3812,0.0,0.0,1.2367,1.1872,1.1588,1.1533,1.1832,1.1212,1.0923,1.1617,1.1188,1.1278,1.2214,1.2418,1.2204,1.1569,1.2158,1.1989,1.067,1.1512,1.1329,0.9592,0.9616,0.9287,0.8765,0.8341,0.7815,0.7269,0.7007,0.6749,0.642,0.642,0.6148,0.5683,0.5286,0.4553,0.3553,0.2751,0.2082,0.1612,0.1277,0.1076,0.1077,0.1077,0.1078,0.1079,3.9819,4.1543,4.2744,4.2731,4.3083,4.3261,4.3047,4.3652,4.3436,4.1463,4.3782,4.3173,3.6708,3.5706,3.532,3.4867,3.2103,3.1655,3.4647,3.4817,3.4928,3.5189,3.5203,3.5141,3.4962,3.3939,3.543,3.9622,3.6123,0.0,0.0,0.0,0.0,0.0,3.4316,3.4074,3.3868,3.3473,3.3055,3.2651,3.2228,3.082,2.8892,2.8718,2.757,2.599,2.5917,2.5844,2.577,2.5508,2.4918,2.4168,2.3376,2.2546,2.1663,2.0795,2.0271,1.9926,1.9617,1.9303,1.8987,1.8934,1.8625,1.8084,1.739,1.6585,1.5718,1.4972,1.4034,1.3147,1.2605,0.0,1.2174,1.1996,1.141,1.1116,1.1329,1.0569,1.0318,1.1329,1.1041,0.0,1.1335,1.147,1.139,1.1218,1.1899,1.1696,1.0207,0.0,1.0553,0.8597,0.919,0.906,0.8057,0.8169,0.7769,0.7007,0.6881,0.6683,0.635,0.635,0.5885,0.502,0.4954,0.3951,0.2348,0.2283,0.1813,0.1076,0.1076,0.1078,0.1079,0.0809,0.0741,0.0741,4.1596,4.3359,4.4538,4.4544,4.5191,4.5214,4.3789,4.2558,4.1658,4.1248,4.1714,4.0538,3.645,3.5694,3.4369,3.1545,3.0753,3.0657,3.1258,3.1191,3.235,3.5076,3.52,3.4729,3.3753,3.35,3.4969,3.8175,3.5638,3.5381,0.0,0.0,0.0,0.0,3.4316,3.4049,3.3762,3.3111,3.2752,3.2502,3.1007,2.9799,2.8805,2.7794,2.6842,2.5974,2.5791,2.5642,2.547,2.5355,2.4639,2.3721,2.3069,2.2211,2.1321,2.0372,1.9978,1.9759,1.9368,1.9158,1.8934,1.8721,1.8116,1.7379,1.6641,1.5776,1.4914,1.4291,1.3812,1.3268,1.2605,0.0,0.0,1.1059,1.0599,1.0125,1.0007,0.982,0.978,1.0196,0.9691,0.9628,1.0701,1.112,1.1194,1.0787,1.1636,1.14,0.9779,0.0,1.0993,0.0,0.9109,0.9028,0.0,0.0,0.7559,0.7396,0.6811,0.6416,0.6214,0.6214,0.5683,0.4625,0.402,0.3151,0.208,0.1545,0.1211,0.1078,0.1078,0.1079,0.0944,-0.0605,-0.1144,-0.0942,4.3509,4.4781,4.5665,4.5675,4.601,4.6013,4.5176,4.1328,3.8496,3.8496,3.8508,3.7172,3.3673,3.3021,3.2183,3.0537,3.0393,3.0412,3.0412,3.0335,3.1771,3.5066,3.52,3.4699,3.3646,3.3467,3.475,3.7539,3.5773,3.5899,0.0,0.0,0.0,3.5859,3.5076,3.4255,3.3411,3.2908,3.2419,3.1862,3.052,2.9362,2.8436,2.7415,2.6466,2.568,2.5605,2.5301,2.491,2.4704,2.4002,2.3128,2.2423,2.1609,2.0822,2.0182,1.9875,1.9604,1.921,1.8946,1.8721,1.8572,1.7886,1.709,1.6358,1.5545,1.4737,1.4061,1.3519,1.3025,1.2282,1.1421,0.0,0.0,1.018,0.9729,0.9594,0.95,0.9427,0.9534,0.9249,0.9362,1.0186,1.0467,1.065,1.0903,1.1548,1.1323,1.0005,0.0,1.1047,0.0,0.0,0.0,0.8169,0.0,0.7342,0.6937,0.6548,0.635,0.621,0.5815,0.5017,0.3956,0.322,0.2415,0.1545,0.1211,0.1078,0.1079,0.0877,0.0337,-0.0404,-0.1278,-0.222,-0.2758,4.509,4.5831,4.6306,4.63,4.6301,4.6305,4.6308,4.0449,3.5995,3.5995,3.5378,3.384,3.1053,3.0576,3.0434,3.0406,3.0402,3.0398,3.0393,3.0393,3.1836,3.5066,3.5021,3.454,3.378,3.3556,3.4541,3.6812,3.5806,0.0,0.0,0.0,0.0,0.0,0.0,0.0,0.0,0.0,3.2004,3.1236,3.001,2.8976,2.803,2.7022,2.6162,2.5378,2.5301,2.4871,2.4261,2.3846,2.3274,2.2532,2.1813,2.1033,2.0309,1.999,1.9668,1.9408,1.904,1.8721,1.8518,1.8422,1.7678,1.6866,1.6234,1.5381,1.451,1.3941,1.3216,1.2536,1.1841,1.1038,0.0,0.0,0.0,0.9426,0.9374,0.9291,0.919,0.9141,0.9174,0.9351,0.9733,0.982,1.0148,1.0877,1.1257,1.1053,1.0184,0.0,0.0,0.0,0.0,0.8598,0.7848,0.0,0.7112,0.6486,0.6416,0.6214,0.5881,0.5286,0.4353,0.3151,0.2616,0.188,0.1077,0.1078,0.0876,0.0472,0.0202,-0.0673,-0.1747,-0.2083,-0.3094,-0.4108,4.5968,4.6245,4.6306,4.6295,4.63,4.6307,4.6305,4.0439,3.6001,3.6001,3.33,3.1176,3.0664,3.0599,3.0539,3.0409,3.0386,3.0394,3.0398,3.0404,3.1844,3.5062,3.4377,3.3818,3.3635,3.3589,3.4107,3.5239,3.511,3.5633,0.0,0.0,0.0,0.0,0.0,0.0,0.0,3.1754,3.138,3.0954,2.9126,2.8217,2.7863,2.6183,2.548,2.5339,2.4974,2.4379,2.3679,2.2966,2.2532,2.2221,2.1609,2.0809,1.999,1.9577,1.9263,1.8987,1.8721,1.8518,1.8422,1.8422,1.739,1.6358,1.613,1.504,1.4001,1.383,1.2773,1.1779,1.1421,1.0288,0.946,0.0,0.0,0.8853,0.8641,0.8926,0.9125,0.8921,0.9077,0.9222,0.9265,0.9475,0.9694,0.9789,1.0144,1.0263,0.9943,0.0,0.0,0.8942,0.8776,0.8518,0.7976,0.7297,0.6915,0.6881,0.6412,0.5745,0.4948,0.4755,0.3751,0.2213,0.2147,0.1747,0.1079,0.1079,0.0135,-0.1345,-0.1412,-0.168,-0.2214,-0.3558,-0.4167,-0.43,4.5936,4.5465,4.5073,4.6113,4.6308,4.49,4.0743,3.5929,3.2771,3.2752,3.1568,3.0684,3.0605,3.0593,3.0579,3.0528,3.0458,3.0402,3.0394,3.0405,3.0791,3.1676,3.3077,3.3706,3.3482,3.3478,3.3899,3.4761,3.5392,3.613,0.0,0.0,0.0,0.0,0.0,3.3053,3.1627,3.1325,3.0971,3.0402,2.8721,2.7907,2.7599,2.5979,2.5162,2.4846,2.4686,2.4078,2.3172,2.2175,2.1805,2.1657,2.1068,2.0422,1.9823,1.946,1.921,1.8934,1.8572,1.8422,1.8302,1.7788,1.6922,1.6016,1.5487,1.4579,1.3769,1.3407,1.2351,1.1351,1.0905,0.9964,0.921,0.8894,0.0,0.8624,0.8528,0.8673,0.8759,0.8667,0.8732,0.8845,0.8985,0.9217,0.9357,0.9357,0.976,1.0016,0.0,0.0,0.0,0.9306,0.0,0.7808,0.7902,0.7173,0.6664,0.6478,0.5815,0.5219,0.4622,0.3687,0.2618,0.1481,0.1481,0.1212,0.0674,-0.0202,-0.0942,-0.1681,-0.2825,-0.3295,-0.3491,-0.4233,-0.45,-0.4498,4.5975,4.3652,4.1797,4.3022,4.3234,4.1607,3.6719,3.2916,3.0594,3.0605,3.0603,3.0595,3.0595,3.0606,3.053,3.0402,3.0329,3.0266,3.0251,3.0117,2.9811,2.9297,3.1273,3.2724,3.345,3.3113,3.3372,3.4232,3.5139,3.5806,0.0,0.0,0.0,0.0,3.3354,3.2446,3.0971,3.0891,3.0518,2.9903,2.8412,2.7639,2.7205,2.5664,2.4726,2.4234,2.4094,2.3465,2.2441,2.1591,2.1111,2.0805,2.0241,1.9902,1.9604,1.9316,1.9052,1.8732,1.841,1.8313,1.8139,1.7379,1.6631,1.5891,1.508,1.4273,1.3459,1.2666,1.1732,1.085,1.0268,0.9582,0.8958,0.8582,0.0,0.0,0.8517,0.8571,0.8592,0.8522,0.87,0.8807,0.8764,0.9024,0.914,0.9076,0.9281,0.9468,0.0,0.0,0.0,0.0,0.0,0.0,0.7655,0.6674,0.6138,0.5881,0.5017,0.442,0.3887,0.2619,0.1682,0.1079,0.1079,0.0607,-0.0269,-0.1751,-0.2423,-0.2554,-0.3904,-0.4372,-0.4431,-0.4637,-0.47,-0.4694,4.6286,4.0739,3.5993,3.6012,3.6028,3.5999,3.5916,3.2888,3.0601,3.0599,3.0606,3.0598,3.0598,3.0598,3.0414,2.9956,2.9972,2.9978,2.9912,2.9471,2.9137,2.9016,2.9044,3.0472,3.3542,3.2428,3.2293,3.3328,3.3866,0.0,3.4148,0.0,3.4215,3.2615,3.2668,3.1907,3.0526,3.0316,3.0033,2.9569,2.8178,2.7306,2.6738,2.5108,2.4135,2.3551,2.326,2.2374,2.1417,2.1272,2.0584,1.971,1.9196,1.9207,1.9316,1.8905,1.8637,1.8367,1.8139,1.8084,1.7963,1.7379,1.6631,1.5891,1.508,1.4094,1.2903,1.1615,1.0905,1.0268,0.946,0.8894,0.8517,0.8517,0.0,0.0,0.8517,0.8711,0.8775,0.8544,0.9136,0.9292,0.8587,0.8798,0.8887,0.8745,0.8333,0.0,0.0,0.0,0.0,0.902,0.8125,0.0,0.7224,0.579,0.509,0.5087,0.402,0.3151,0.2417,0.1549,0.1079,0.1079,0.1079,0.0067,-0.1681,-0.3509,-0.425,-0.43,-0.4573,-0.4637,-0.4625,-0.4761,-0.4831,-0.4831,3.7737,3.5718,3.4203,3.4199,3.3212,3.242,3.243,3.1454,3.0658,3.0433,3.024,3.02,3.0371,3.0398,3.0279,2.9985,2.995,2.9893,0.0,2.9644,2.9379,2.9021,2.9007,3.0076,3.2399,3.2019,3.2238,3.3165,0.0,0.0,0.0,3.3413,3.2664,3.1311,3.1237,3.0817,3.0146,2.993,2.9496,2.8762,2.7604,2.6639,2.5851,2.4782,2.3867,2.3113,2.2979,2.2128,2.0926,2.0395,1.9937,1.9414,1.868,1.8773,1.9052,1.8732,1.8518,1.8286,1.7767,1.7875,1.7775,1.625,1.5905,1.5613,1.4401,1.345,1.2605,1.1996,1.0975,1.0078,0.9831,0.9081,0.8517,0.8517,0.8517,0.0,0.8517,0.8581,0.8597,0.8522,0.8716,0.8764,0.8538,0.8794,0.8981,0.906,0.9125,0.0,0.0,0.0,0.0,0.0,0.7746,0.0,0.6314,0.5671,0.4839,0.402,0.3153,0.2284,0.1482,0.1213,0.1079,0.1012,-0.0202,-0.1751,-0.3509,-0.4043,-0.4375,-0.4573,-0.4634,-0.4697,-0.4761,-0.4957,-0.5286,-0.5683,3.2645,3.2428,3.2397,3.2322,3.1409,3.0691,3.0683,3.068,3.0582,3.0317,3.0151,3.0106,3.0254,3.026,0.0,2.998,2.9912,2.9829,2.9775,2.9625,2.9351,2.892,2.8892,2.9671,3.1373,3.1258,0.0,3.2702,3.3016,3.2913,3.2359,3.2166,3.1573,3.0609,3.0526,3.0231,2.9842,2.9392,2.8774,2.8075,2.6835,2.5877,2.5111,2.4124,2.3231,2.2374,2.2175,2.1355,2.0307,1.981,1.9471,1.915,1.855,1.8577,1.8685,1.8337,1.8065,1.7748,1.7128,1.7145,1.694,1.5526,1.5286,1.504,1.3631,1.2911,1.2359,1.174,1.0724,0.9958,0.9773,0.9081,0.8517,0.8517,0.8517,0.8517,0.8517,0.8517,0.8517,0.8517,0.8592,0.8608,0.8522,0.8673,0.8775,0.8601,0.8793,0.0,0.0,0.0,0.8124,0.8462,0.7167,0.6266,0.5782,0.4841,0.3922,0.3086,0.2284,0.1615,0.1079,0.1079,0.0741,-0.0,-0.1818,-0.3234,-0.4317,-0.4439,-0.4503,-0.4703,-0.4761,-0.4824,-0.496,-0.5418,-0.5877,-0.6272,3.0784,3.0799,3.072,3.0535,3.0501,3.0498,3.0519,3.0501,3.0451,3.0325,3.0279,3.0266,3.0196,3.018,3.0085,2.9908,0.0,0.0,2.9664,2.9429,2.9115,2.87,2.8682,2.9242,3.0455,3.0211,3.0705,3.1914,3.1657,3.1389,3.1112,3.1112,3.0855,3.0426,3.0359,3.0119,2.9605,2.8646,2.7973,2.7364,2.5901,2.4998,2.4448,2.3257,2.2267,2.1465,2.0944,2.0258,1.9565,1.942,1.921,1.8881,1.8614,1.8464,1.8274,1.7746,1.7333,1.6957,1.6452,1.6155,1.58,1.5069,1.4725,1.4231,1.2781,1.2482,1.2174,1.1052,1.0408,0.9894,0.946,0.8894,0.8517,0.8517,0.8517,0.8517,0.8517,0.8517,0.8517,0.8517,0.0,0.0,0.8533,0.8654,0.8403,0.0,0.0,0.0,0.0,0.0,0.8328,0.7957,0.6489,0.5587,0.5437,0.3472,0.242,0.2283,0.1482,0.1079,0.1079,0.0944,-0.0067,-0.1884,-0.3576,-0.4317,-0.4367,-0.4573,-0.47,-0.4691,-0.4954,-0.5153,-0.5286,-0.6071,-0.6465,-0.6662,0.0,0.0,3.0622,3.0587,3.0532,3.0516,3.0574,3.049,3.0385,3.0321,3.0206,3.0139,3.0142,2.9991,2.9855,2.9767,2.9769,2.9663,2.9353,2.9249,2.9012,2.8576,2.8438,2.8721,2.9432,2.9716,3.0283,3.1172,3.0977,3.0616,3.0048,3.0225,3.0113,2.981,2.9842,2.9681,2.9303,2.8136,2.7179,2.6397,2.4759,2.3727,2.3093,2.2156,2.1403,2.0795,2.0584,1.9888,1.9146,1.9105,1.8839,1.8476,1.8182,1.7963,1.7854,1.773,1.7587,1.7366,1.664,1.6428,1.6073,1.4926,1.4032,1.3164,1.2367,1.2182,1.2058,1.1498,1.0661,0.9952,0.9831,0.9081,0.8517,0.8517,0.8517,0.8517,0.8517,0.8517,0.8517,0.0,0.8565,0.8576,0.8522,0.8708,0.8774,0.0,0.0,0.8295,0.8176,0.7319,0.6669,0.6395,0.5588,0.4629,0.3411,0.2887,0.2253,0.1414,0.1213,0.1079,0.1079,-0.0337,-0.1952,-0.3713,-0.4314,-0.4579,-0.464,-0.47,-0.4827,-0.502,-0.5087,-0.5481,-0.6137,-0.6334,-0.7051,-0.8032,3.0587,3.0599,3.0582,3.051,3.0482,3.0453,3.0462,3.0402,3.0321,3.0266,3.019,3.0112,3.0019,2.9872,2.9753,2.9607,2.9551,2.9415,2.9169,2.9101,2.8892,2.8466,2.8255,2.8347,2.8745,2.9225,2.9911,3.0788,3.0485,3.0091,2.9657,2.9524,2.93,2.8996,2.8788,2.8479,2.8031,2.655,2.5605,2.4893,2.3335,2.2456,2.2035,2.1293,2.067,2.0207,1.9888,1.9331,1.8827,1.8732,1.8464,1.8139,1.7865,1.7523,1.7134,1.7022,1.6815,1.6536,1.5839,1.544,1.4983,1.4072,1.3297,1.2674,1.2182,1.2127,1.1934,1.1373,1.0598,0.9958,0.9709,0.9017,0.8517,0.8517,0.8517,0.8517,0.8517,0.8517,0.8489,0.8403,0.8451,0.8467,0.827,0.8538,0.8494,0.7933,0.7922,0.0,0.7115,0.593,0.5457,0.5848,0.4686,0.3591,0.2688,0.2202,0.1663,0.1079,0.1079,0.1079,0.1012,-0.1616,-0.337,-0.4322,-0.4579,-0.4706,-0.47,-0.4827,-0.5024,-0.5153,-0.5547,-0.6005,-0.6461,-0.7116,-0.7897,-0.8678,3.056,3.0571,3.0537,3.0413,3.037,3.0344,3.0273,3.0234,3.0207,3.0133,3.0133,3.0075,2.9888,2.9803,2.968,2.9495,2.9275,2.9144,2.9064,2.8966,2.8743,2.8362,2.811,2.8024,2.8144,2.8679,2.9441,3.0452,2.9881,2.9467,2.921,2.881,2.8449,2.8064,2.761,2.7067,2.6437,2.4808,2.3862,2.3369,2.1911,2.1245,2.1126,2.0421,1.9991,1.9604,1.9093,1.8774,1.856,1.8356,1.8139,1.7799,1.7534,1.7011,1.6379,1.5989,1.5545,1.5054,1.473,1.4147,1.3427,1.2967,1.2674,1.2367,1.2058,1.1934,1.1685,1.0926,1.0345,0.9773,0.9396,0.8894,0.8517,0.8517,0.8382,0.8317,0.8317,0.0,0.8073,0.8025,0.8087,0.7994,0.7751,0.8032,0.7766,0.6471,0.6832,0.6558,0.5435,0.4538,0.4424,0.5478,0.3647,0.2587,0.2456,0.1587,0.1079,0.1012,0.1079,0.0809,0.0202,-0.2696,-0.4115,-0.4381,-0.4643,-0.4703,-0.4691,-0.5024,-0.5219,-0.5352,-0.6137,-0.6527,-0.6854,-0.8091,-0.8678,-0.8935,3.0441,3.0439,3.0425,3.0402,3.0273,3.0128,3.0122,2.9992,2.9851,2.9782,2.9839,2.9841,2.9753,2.9626,2.9493,2.9355,2.916,2.8984,2.8952,2.8906,2.8688,2.8164,2.8017,2.7748,2.7385,2.7928,2.8625,2.9419,2.895,2.8304,2.7595,2.778,2.76,2.7093,2.6982,2.6396,2.5423,2.4081,2.3142,2.2405,2.0993,2.0333,2.0131,1.9488,1.9093,1.8946,1.8721,1.8572,1.8356,1.8073,1.7865,1.759,1.6627,1.6275,1.5989,1.5059,1.4364,1.4055,1.4412,1.3969,1.3141,1.2413,1.2182,1.2058,1.1747,1.131,1.0933,1.0807,1.0034,0.9396,0.9338,0.8894,0.8517,0.8517,0.7912,0.7447,0.7652,0.0,0.6398,0.6575,0.6503,0.636,0.6403,0.6626,0.6566,0.605,0.6215,0.61,0.5504,0.4237,0.3533,0.3676,0.2558,0.1784,0.134,0.1164,0.0944,0.0607,0.0944,-0.0472,-0.3442,-0.2758,-0.3226,-0.4643,-0.4767,-0.4894,-0.502,-0.5292,-0.5683,-0.6203,-0.6334,-0.7116,-0.8226,-0.8544,-0.9069,-0.9664,3.0439,3.0417,3.0383,3.0348,3.026,3.018,3.0066,2.9977,2.9883,2.9784,2.9855,2.9823,2.9626,2.957,2.9474,2.9249,2.9156,2.9067,2.8962,2.8803,2.8626,2.838,2.8045,2.7919,2.8118,2.8018,2.8477,2.9406,2.8575,2.7815,2.7108,2.655,2.5977,2.5424,2.4704,2.4058,2.3395,2.2248,2.1504,2.0987,1.9977,1.9488,1.9291,1.8934,1.8614,1.8302,1.8236,1.7843,1.7335,1.7224,1.6832,1.6389,1.5874,1.5284,1.4688,1.4222,1.3803,1.3511,1.345,1.3025,1.2482,1.1802,1.156,1.1303,1.085,1.0534,1.0288,1.004,0.9658,0.921,0.8894,0.8506,0.8247,0.8247,0.7521,0.0,0.7064,0.6404,0.5933,0.5892,0.5905,0.591,0.5801,0.5974,0.5815,0.529,0.5293,0.5036,0.4227,0.328,0.2726,0.2477,0.1818,0.1293,0.1121,0.1093,0.1012,0.0809,-0.0943,-0.2696,-0.426,-0.3565,-0.3828,-0.4709,-0.4767,-0.4894,-0.5153,-0.5683,-0.6141,-0.6461,-0.7307,-0.8021,-0.8678,-0.9198,-0.9658,-1.0117,2.8578,2.8255,2.8631,3.003,2.9038,2.847,2.9779,2.995,2.9886,2.9769,2.9857,2.9842,2.9551,2.8135,2.7116,2.6892,2.5382,2.4417,2.4306,2.4076,2.5355,2.8522,2.8279,2.8268,2.878,2.8076,2.8212,2.9196,2.7902,2.6975,2.6468,2.5226,2.4324,2.3581,2.2628,2.1927,2.142,2.0617,2.0054,1.9695,1.9028,1.8721,1.8572,1.8398,1.8007,1.7567,1.7567,1.6989,1.6187,1.613,1.568,1.5157,1.4991,1.4341,1.3563,1.339,1.2956,1.2581,1.2421,1.212,1.1685,1.1178,1.0793,1.0351,0.9888,0.9697,0.9512,0.9139,0.8947,0.8753,0.8312,0.8052,0.7852,0.7722,0.0,0.6342,0.6276,0.5675,0.5266,0.5139,0.5225,0.525,0.509,0.5179,0.4987,0.4491,0.4405,0.3961,0.305,0.2554,0.2015,0.1504,0.12,0.1118,0.1111,0.0748,0.0539,0.0404,-0.2424,-0.3981,-0.4322,-0.4375,-0.4503,-0.4706,-0.4964,-0.5223,-0.5481,-0.6268,-0.6728,-0.6985,-0.8215,-0.8801,-0.9064,-0.9786,-1.0174,-1.0308,2.2893,2.1687,2.3404,2.9194,2.528,2.3246,2.9023,2.9808,2.9701,2.9608,2.9683,2.9683,2.9607,2.3882,2.0013,1.9927,1.4023,1.0268,1.0219,1.0109,1.5665,2.8257,2.8806,2.8689,2.8457,2.7599,2.7442,2.8046,2.6183,2.5066,2.4609,2.4041,2.3131,2.1963,2.1886,2.1226,2.0219,1.9952,1.9498,1.8839,1.8375,1.8104,1.7963,1.7689,1.7179,1.6595,1.6595,1.6063,1.5352,1.508,1.4777,1.4355,1.3674,1.339,1.3208,1.2421,1.1413,1.078,1.1864,1.156,1.08,1.0471,0.9964,0.9518,0.9186,0.8678,0.8296,0.8296,0.7912,0.7652,0.7587,0.7521,0.7391,0.6872,0.0,0.0,0.5014,0.402,0.3461,0.3691,0.3712,0.3664,0.3766,0.377,0.3772,0.3711,0.363,0.3327,0.2821,0.2463,0.1738,0.0474,0.083,0.1108,0.1082,-0.0269,-0.1076,-0.1412,-0.2014,-0.2954,-0.4303,-0.4573,-0.4706,-0.4831,-0.5686,-0.6141,-0.6334,-0.7055,-0.7707,-0.8355,-0.8608,-0.9134,-0.9734,-1.0117,-1.0301,-1.0428,1.5825,1.5287,1.719,2.3255,2.275,2.3356,2.8989,2.7057,2.455,2.3476,1.9891,1.733,1.7103,1.4505,1.2915,1.3267,1.0684,0.9081,0.9367,0.9215,1.1175,1.5819,1.9794,2.1129,1.9514,2.4011,2.5401,2.3353,2.3535,2.3165,2.2354,2.1635,2.0969,2.0422,2.0158,1.9576,1.8733,1.8623,1.8354,1.7963,1.7678,1.7335,1.7,1.6708,1.6187,1.5487,1.5245,1.4718,1.4025,1.3965,1.3554,1.307,1.2781,1.2151,1.1348,1.0294,0.968,0.9402,0.9786,0.9754,0.9533,0.8994,0.8758,0.8537,0.7866,0.7711,0.7678,0.7477,0.7173,0.6929,0.6584,0.6129,0.5672,0.5272,0.0,0.3744,0.3613,0.3019,0.2634,0.2727,0.2689,0.2735,0.2808,0.2522,0.2319,0.2358,0.2016,0.1555,0.1121,0.0758,0.034,-0.0202,-0.0272,-0.0204,-0.0,-0.0739,-0.1813,-0.3299,-0.3426,-0.3828,-0.4573,-0.4634,-0.496,-0.5617,-0.5947,-0.647,-0.7055,-0.7897,-0.835,-0.8678,-0.939,-0.9849,-1.018,-1.08,-1.1052,-1.117,0.9367,0.8896,1.0777,1.6775,1.6472,1.7306,2.2903,2.0479,1.7574,1.659,1.2531,0.9699,0.9546,0.7384,0.6173,0.6708,0.4663,0.3526,0.3962,0.3935,0.5263,0.8429,1.3249,1.5279,1.3961,1.9534,2.1708,2.0226,2.0652,2.0555,1.9957,1.9121,1.8464,1.8059,1.8109,1.7809,1.7257,1.7501,1.739,1.6933,1.6708,1.6312,1.5833,1.5477,1.4895,1.4255,1.4007,1.3416,1.2781,1.2781,1.222,1.16,1.16,1.0899,0.9825,0.8927,0.8483,0.8243,0.8012,0.7944,0.7902,0.7685,0.7641,0.7413,0.6691,0.6569,0.6559,0.6305,0.5986,0.5672,0.5262,0.4806,0.4278,0.3673,0.3076,0.2544,0.2209,0.1878,0.168,0.168,0.1693,0.1715,0.1817,0.1469,0.1267,0.1291,0.091,0.0414,-0.0069,-0.0543,-0.094,-0.1074,-0.1477,-0.1678,-0.1678,-0.1676,-0.2549,-0.4311,-0.4303,-0.4436,-0.4703,-0.4894,-0.5415,-0.6141,-0.6666,-0.7186,-0.7842,-0.8678,-0.9069,-0.9134,-0.9977,-1.0428,-1.0681,-1.1296,-1.16,-1.1911,0.3808,0.2504,0.4327,1.0384,0.5618,0.3189,0.9628,0.9727,0.9204,0.9684,0.9464,0.935,0.9641,0.3701,-0.0156,0.0208,-0.5617,-0.9143,-0.8709,-0.8397,-0.2967,0.866,1.1087,1.2581,1.3542,1.4337,1.6266,1.9445,1.7547,1.6944,1.7417,1.6642,1.5723,1.48,1.583,1.6089,1.5861,1.6641,1.6518,1.5746,1.5477,1.5002,1.4355,1.3879,1.3416,1.2948,1.2826,1.2282,1.156,1.156,1.0856,1.0015,0.9958,0.95,0.8942,0.8561,0.7928,0.7264,0.6815,0.6229,0.5872,0.6694,0.6616,0.6278,0.5765,0.5237,0.4812,0.4812,0.4212,0.3678,0.3678,0.3678,0.3343,0.2272,0.2072,0.1672,0.0603,0.0469,0.0469,0.0469,0.0618,0.0698,0.0698,0.0698,0.0698,0.0698,0.0544,0.0201,-0.0469,-0.1206,-0.1878,-0.2417,-0.2815,-0.3284,-0.3825,-0.3284,-0.342,-0.43,-0.43,-0.4431,-0.4625,-0.5543,-0.6005,-0.6207,-0.7837,-0.849,-0.8554,-0.9472,-0.9804,-0.9868,-1.018,-1.0744,-1.1303,-1.1483,-1.1965,-1.2573,-0.4198,-0.5021,-0.3423,0.2494,0.2388,0.3457,0.9266,0.6884,0.407,0.3251,-0.0851,-0.3672,-0.3727,-0.5631,-0.6675,-0.6124,-0.7775,-0.856,-0.7903,-0.7384,-0.5437,-0.1564,0.3479,0.5381,0.3786,1.0472,1.343,1.2254,1.3211,1.3868,1.4112,1.3899,1.3795,1.3877,1.4468,1.4486,1.404,1.4505,1.4514,1.4168,1.393,1.364,1.3235,1.287,1.2458,1.1988,1.174,1.1101,1.0465,1.0465,0.9888,0.8988,0.8275,0.7887,0.7589,0.6687,0.6233,0.5852,0.5137,0.5081,0.5258,0.5126,0.51,0.4948,0.4111,0.4007,0.4024,0.4162,0.3101,0.2071,0.1673,0.0936,0.0134,-0.0401,-0.0469,-0.0602,-0.0938,-0.1005,-0.1005,-0.1005,-0.0945,-0.0882,-0.0882,-0.1221,-0.1494,-0.1494,-0.1886,-0.2214,-0.2417,-0.2618,-0.282,-0.2956,-0.3689,-0.4223,-0.4359,-0.4092,-0.4225,-0.4891,-0.509,-0.5484,-0.6079,-0.6597,-0.7181,-0.7837,-0.8291,-0.8818,-0.9472,-0.9792,-1.0301,-1.0863,-1.1052,-1.1538,-1.2212,-1.2712,-1.3017,-1.3321,-0.7546,-0.7875,-0.6958,-0.348,-0.2586,-0.1176,0.2188,-0.0177,-0.2566,-0.3247,-0.6696,-0.9026,-0.8863,-0.8816,-0.8608,-0.8058,-0.7825,-0.7471,-0.7076,-0.6555,-0.6077,-0.5687,-0.1424,0.0575,-0.007,0.5298,0.8163,0.8422,0.9573,1.0456,1.1098,1.1327,1.1658,1.2097,1.2692,1.2882,1.2671,1.3149,1.3097,1.2801,1.2732,1.2443,1.1965,1.1787,1.1351,1.0856,1.0541,1.0028,0.9384,0.9384,0.8801,0.7962,0.699,0.6666,0.6567,0.5822,0.5583,0.5352,0.4647,0.4384,0.4062,0.2967,0.3384,0.367,0.2385,0.2288,0.2441,0.221,0.1189,0.0201,-0.0134,-0.0804,-0.1408,-0.1878,-0.1945,-0.2012,-0.2214,-0.2214,-0.228,-0.2546,-0.2544,-0.2611,-0.2876,-0.3147,-0.3349,-0.3349,-0.3754,-0.402,-0.402,-0.4156,-0.4292,-0.4292,-0.4824,-0.509,-0.509,-0.496,-0.5093,-0.5422,-0.5749,-0.6207,-0.6741,-0.7321,-0.7902,-0.849,-0.8753,-0.9215,-0.9798,-1.0225,-1.073,-1.1365,-1.1725,-1.2336,-1.2948,-1.3321,-1.3692,-1.3941,-0.7433,-0.736,-0.74,-0.7634,-0.8045,-0.8401,-0.8413,-0.8985,-0.9246,-0.885,-0.875,-0.8478,-0.7887,-0.7538,-0.7255,-0.6818,-0.638,-0.6134,-0.6182,-0.5742,-0.5427,-0.5244,-0.3954,-0.2021,0.041,-0.0138,0.1989,0.6869,0.6523,0.7101,0.8595,0.9041,0.9454,0.9919,1.071,1.1267,1.164,1.2197,1.2135,1.1648,1.1764,1.1406,1.0744,1.0674,1.0288,0.9709,0.9454,0.8941,0.8361,0.8296,0.7702,0.692,0.6152,0.5892,0.58,0.5735,0.5556,0.5322,0.469,0.3685,0.2404,0.0643,0.1343,0.2118,0.0607,0.0375,0.0258,-0.0531,-0.1205,-0.1743,-0.181,-0.1877,-0.2078,-0.2549,-0.2683,-0.295,-0.3357,-0.3491,-0.3689,-0.4148,-0.4215,-0.448,-0.4945,-0.5011,-0.4948,-0.4882,-0.5209,-0.5408,-0.5408,-0.5749,-0.5954,-0.602,-0.602,-0.602,-0.6086,-0.6086,-0.6086,-0.5954,-0.6338,-0.6666,-0.6872,-0.7847,-0.8425,-0.8683,-0.928,-0.9734,-0.9989,-1.078,-1.1219,-1.1545,-1.2266,-1.3009,-1.3571,-1.3571,-1.4001,-1.4565,-0.7845,-0.8269,-0.8587,-0.8695,-0.8597,-0.8452,-0.8264,-0.8142,-0.8028,-0.7815,-0.7849,-0.7678,-0.7297,-0.7316,-0.7198,-0.6857,-0.6366,-0.5821,-0.5242,-0.5088,-0.4651,-0.403,-0.3463,-0.2351,-0.0539,-0.027,0.136,0.4442,0.3939,0.5011,0.7437,0.7181,0.7702,0.8812,0.8854,0.9302,1.0021,1.0288,1.0421,1.0421,1.0415,1.0358,1.011,0.9576,0.9314,0.9122,0.8544,0.7832,0.7186,0.6671,0.621,0.5947,0.5774,0.5645,0.5505,0.5484,0.446,0.3081,0.172,0.1161,0.0702,-0.0352,-0.1382,-0.1951,-0.1272,-0.1048,-0.1195,-0.1924,-0.2412,-0.2882,-0.3556,-0.4087,-0.435,-0.4486,-0.5077,-0.5474,-0.5355,-0.5745,-0.6067,-0.5866,-0.6133,-0.633,-0.6461,-0.6465,-0.6203,-0.5686,-0.5943,-0.6133,-0.6133,-0.6013,-0.6148,-0.6666,-0.6806,-0.7064,-0.7316,-0.7722,-0.7466,-0.6544,-0.712,-0.7647,-0.8122,-0.8894,-0.9472,-0.9913,-1.0047,-1.0428,-1.0996,-1.1421,-1.2035,-1.2642,-1.313,-1.3692,-1.4267,-1.4267,-1.4428,-1.4775,-0.7522,-0.7774,-0.8033,-0.8043,-0.7826,-0.762,-0.7485,-0.7536,-0.7507,-0.7278,-0.7358,-0.7258,-0.6854,-0.6598,-0.6437,-0.6234,-0.6066,-0.5754,-0.5152,-0.5161,-0.4775,-0.3833,-0.3675,-0.2887,-0.1477,-0.1208,0.0135,0.2466,0.2224,0.3002,0.4596,0.5335,0.6191,0.7158,0.7623,0.8146,0.8801,0.9338,0.9396,0.9128,0.9326,0.9128,0.8737,0.8608,0.828,0.7957,0.7572,0.699,0.6346,0.5966,0.5704,0.5634,0.5379,0.477,0.3956,0.3286,0.2389,0.131,-0.0327,-0.1395,-0.2145,-0.2514,-0.3719,-0.4494,-0.3053,-0.2828,-0.3124,-0.3838,-0.4212,-0.461,-0.5415,-0.5745,-0.5943,-0.5943,-0.6334,-0.6658,-0.6724,-0.7046,-0.7367,-0.7678,-0.7872,-0.8076,-0.8339,-0.8409,-0.8215,-0.7892,-0.8016,-0.814,-0.814,-0.7957,-0.8021,-0.8339,-0.8479,-0.8613,-0.8801,-0.9069,-0.8877,-0.8285,-0.8544,-0.8877,-0.9145,-0.9849,-1.0364,-1.0611,-1.0611,-1.0989,-1.1553,-1.2042,-1.265,-1.3338,-1.4013,-1.4412,-1.4662,-1.5059,-1.5557,-1.6136,-0.6937,-0.6885,-0.6933,-0.6954,-0.6781,-0.6726,-0.6747,-0.7103,-0.7229,-0.6937,-0.703,-0.6898,-0.6457,-0.5896,-0.5608,-0.5579,-0.5687,-0.5632,-0.5235,-0.5398,-0.5065,-0.4121,-0.3901,-0.3291,-0.2287,-0.2085,-0.1144,0.074,0.1074,0.1406,0.1738,0.3476,0.4671,0.545,0.6441,0.7163,0.7627,0.8415,0.8415,0.7947,0.821,0.7887,0.7298,0.7567,0.7246,0.6662,0.6396,0.5939,0.5425,0.5306,0.5243,0.5043,0.43,0.3218,0.1873,0.0402,-0.0201,-0.0736,-0.2213,-0.3818,-0.4974,-0.4699,-0.5443,-0.5916,-0.4793,-0.4694,-0.4964,-0.5687,-0.6005,-0.6392,-0.6976,-0.7237,-0.7367,-0.7432,-0.7562,-0.7817,-0.8189,-0.8382,-0.8698,-0.94,-0.9527,-0.9666,-1.0078,-1.0148,-1.0148,-1.0021,-1.0078,-1.0078,-1.0078,-1.0015,-1.0078,-1.0148,-1.0148,-1.0078,-1.0148,-1.0148,-1.0148,-1.0148,-1.0155,-1.0085,-0.9958,-1.0667,-1.1045,-1.1115,-1.1115,-1.149,-1.205,-1.2773,-1.3312,-1.3847,-1.4928,-1.52,-1.5086,-1.5999,-1.6931,-1.7905,-0.649,-0.6486,-0.656,-0.6709,-0.6692,-0.6749,-0.6849,-0.6845,-0.6724,-0.6502,-0.656,-0.6426,-0.5948,-0.5701,-0.552,-0.5337,-0.5346,-0.5265,-0.4991,-0.4931,-0.4775,-0.4498,-0.3436,-0.282,-0.2619,-0.1747,-0.1077,-0.0809,0.0471,0.1141,0.1206,0.1876,0.3009,0.4469,0.4668,0.5193,0.5975,0.6379,0.6576,0.6641,0.6841,0.6846,0.665,0.6326,0.6133,0.587,0.448,0.3818,0.3549,0.3551,0.3353,0.2885,0.1541,0.0536,-0.0335,-0.1811,-0.3155,-0.4167,-0.4506,-0.5264,-0.5911,-0.5631,-0.588,-0.62,-0.6245,-0.6349,-0.6467,-0.6685,-0.7111,-0.7548,-0.7976,-0.8745,-0.9388,-0.9699,-1.0418,-1.0808,-1.06,-1.1051,-1.1253,-1.0822,-1.0773,-1.0654,-1.0451,-1.0717,-1.0598,-1.0021,-1.0268,-1.0458,-1.0458,-1.0142,-1.0275,-1.0856,-1.0591,-1.0591,-1.0856,-1.0856,-1.0856,-1.0856,-1.1296,-1.1101,-1.0395,-1.085,-1.124,-1.1677,-1.1677,-1.2112,-1.292,-1.3674,-1.4213,-1.4684,-1.5889,-1.6256,-1.6202,-1.7196,-1.8134,-1.9014,-0.6661,-0.6578,-0.6621,-0.6658,-0.6609,-0.6548,-0.6482,-0.6586,-0.6557,-0.6282,-0.6384,-0.6321,-0.6058,-0.581,-0.5493,-0.5118,-0.5162,-0.506,-0.4758,-0.4884,-0.4801,-0.4472,-0.3995,-0.3623,-0.3288,-0.2751,-0.2216,-0.1681,-0.0404,0.0336,0.0471,0.1141,0.1811,0.2544,0.3678,0.4342,0.4734,0.5599,0.58,0.5533,0.5668,0.5269,0.4602,0.4475,0.414,0.3671,0.2943,0.2409,0.1939,0.1537,0.1337,0.0869,-0.0735,-0.2008,-0.3017,-0.3763,-0.477,-0.5704,-0.5624,-0.6217,-0.6861,-0.6843,-0.7581,-0.8287,-0.8199,-0.8757,-0.9071,-0.8126,-0.8584,-0.9358,-0.9914,-1.0547,-1.1044,-1.1169,-1.1502,-1.1819,-1.1997,-1.2258,-1.2451,-1.2381,-1.2397,-1.2451,-1.2549,-1.2679,-1.2801,-1.2708,-1.289,-1.2959,-1.2959,-1.283,-1.2899,-1.3158,-1.3028,-1.3028,-1.3158,-1.3158,-1.3158,-1.3158,-1.3416,-1.303,-1.2089,-1.1939,-1.2515,-1.3608,-1.3091,-1.3364,-1.4282,-1.4697,-1.505,-1.5469,-1.6749,-1.7625,-1.8369,-1.9066,-1.9744,-2.0306]}]]